<?xml version='1.0' encoding='UTF-8'?><gpx version="1.1" creator="JPX - https://github.com/jenetics/jpx" xmlns="http://www.topografix.com/GPX/1/1"><trk><trkseg><trkpt lat="43.26950143629839" lon="10.62752947780883"><ele>124.00000000000001</ele><time>2026-04-11T05:08:49.999Z</time></trkpt><trkpt lat="43.269526918250584" lon="10.627616209057882"><ele>124.0</ele><time>2026-04-11T05:08:52.999Z</time></trkpt><trkpt lat="43.26957369305899" lon="10.627715745944405"><ele>124.0</ele><time>2026-04-11T05:08:56.999Z</time></trkpt><trkpt lat="43.26960592902256" lon="10.62779592095565"><ele>124.0</ele><time>2026-04-11T05:08:58.999Z</time></trkpt><trkpt lat="43.269629591029826" lon="10.627902285628316"><ele>124.00000000000001</ele><time>2026-04-11T05:09:01.999Z</time></trkpt><trkpt lat="43.2696853164999" lon="10.62800638559485"><ele>124.0</ele><time>2026-04-11T05:09:04.999Z</time></trkpt><trkpt lat="43.26971981110212" lon="10.62809415709143"><ele>122.66666666666667</ele><time>2026-04-11T05:09:06.999Z</time></trkpt><trkpt lat="43.26976082254573" lon="10.628177890820998"><ele>121.33333333333334</ele><time>2026-04-11T05:09:08.999Z</time></trkpt><trkpt lat="43.269802783633374" lon="10.628274063247975"><ele>120.0</ele><time>2026-04-11T05:09:10.999Z</time></trkpt><trkpt lat="43.26984979045858" lon="10.628357070821817"><ele>118.66666666666666</ele><time>2026-04-11T05:09:12.999Z</time></trkpt><trkpt lat="43.269910198653406" lon="10.628429230193767"><ele>117.33333333333333</ele><time>2026-04-11T05:09:14.999Z</time></trkpt><trkpt lat="43.269967943269386" lon="10.628497109987997"><ele>116.0</ele><time>2026-04-11T05:09:16.999Z</time></trkpt><trkpt lat="43.27003134656789" lon="10.628560286484479"><ele>115.99999999999999</ele><time>2026-04-11T05:09:18.999Z</time></trkpt><trkpt lat="43.27009300120972" lon="10.628624822549828"><ele>116.0</ele><time>2026-04-11T05:09:20.999Z</time></trkpt><trkpt lat="43.27016160606642" lon="10.628696617918981"><ele>116.0</ele><time>2026-04-11T05:09:22.999Z</time></trkpt><trkpt lat="43.27023703381445" lon="10.628770668764068"><ele>116.0</ele><time>2026-04-11T05:09:24.999Z</time></trkpt><trkpt lat="43.27030177783849" lon="10.628853334087712"><ele>115.99999999999999</ele><time>2026-04-11T05:09:26.998Z</time></trkpt><trkpt lat="43.27036711674064" lon="10.628931558467794"><ele>116.0</ele><time>2026-04-11T05:09:28.998Z</time></trkpt><trkpt lat="43.270419658802" lon="10.629017670435662"><ele>118.66666666666666</ele><time>2026-04-11T05:09:30.998Z</time></trkpt><trkpt lat="43.27046606050121" lon="10.629114862136102"><ele>121.33333333333333</ele><time>2026-04-11T05:09:32.998Z</time></trkpt><trkpt lat="43.27046756263917" lon="10.629228492512512"><ele>124.0</ele><time>2026-04-11T05:09:34.998Z</time></trkpt><trkpt lat="43.27043925629335" lon="10.629344373064484"><ele>126.66666666666666</ele><time>2026-04-11T05:09:36.998Z</time></trkpt><trkpt lat="43.27039312503221" lon="10.62943988783161"><ele>129.33333333333334</ele><time>2026-04-11T05:09:38.998Z</time></trkpt><trkpt lat="43.27036989759351" lon="10.629553935935206"><ele>132.0</ele><time>2026-04-11T05:09:40.998Z</time></trkpt><trkpt lat="43.27037506216338" lon="10.629677290051117"><ele>132.33333333333334</ele><time>2026-04-11T05:09:42.998Z</time></trkpt><trkpt lat="43.270422817912426" lon="10.629779014457215"><ele>132.66666666666666</ele><time>2026-04-11T05:09:44.998Z</time></trkpt><trkpt lat="43.27047262085953" lon="10.62988093761528"><ele>133.0</ele><time>2026-04-11T05:09:46.998Z</time></trkpt><trkpt lat="43.27052418917846" lon="10.629982559655014"><ele>133.33333333333331</ele><time>2026-04-11T05:09:48.998Z</time></trkpt><trkpt lat="43.270569343178906" lon="10.630079741249723"><ele>133.66666666666666</ele><time>2026-04-11T05:09:50.998Z</time></trkpt><trkpt lat="43.27060172184783" lon="10.63018308429089"><ele>134.0</ele><time>2026-04-11T05:09:52.998Z</time></trkpt><trkpt lat="43.2706128888378" lon="10.63030201798142"><ele>133.8</ele><time>2026-04-11T05:09:54.998Z</time></trkpt><trkpt lat="43.2705918957933" lon="10.630420458638005"><ele>133.60000000000002</ele><time>2026-04-11T05:09:56.998Z</time></trkpt><trkpt lat="43.27057569607288" lon="10.630533309752446"><ele>133.4</ele><time>2026-04-11T05:09:58.998Z</time></trkpt><trkpt lat="43.2706050142574" lon="10.630651056399088"><ele>133.20000000000002</ele><time>2026-04-11T05:10:00.998Z</time></trkpt><trkpt lat="43.270679245343125" lon="10.6307182284638"><ele>133.0</ele><time>2026-04-11T05:10:02.998Z</time></trkpt><trkpt lat="43.27077464598351" lon="10.630751233990441"><ele>129.8</ele><time>2026-04-11T05:10:04.998Z</time></trkpt><trkpt lat="43.27086122891453" lon="10.630779660324434"><ele>126.60000000000001</ele><time>2026-04-11T05:10:06.998Z</time></trkpt><trkpt lat="43.27093404317276" lon="10.630857034627283"><ele>123.39999999999999</ele><time>2026-04-11T05:10:08.998Z</time></trkpt><trkpt lat="43.27095970710855" lon="10.63097217223944"><ele>120.19999999999999</ele><time>2026-04-11T05:10:10.998Z</time></trkpt><trkpt lat="43.27093152560009" lon="10.631096077043644"><ele>117.0</ele><time>2026-04-11T05:10:12.998Z</time></trkpt><trkpt lat="43.27089709760712" lon="10.631205148199081"><ele>117.0</ele><time>2026-04-11T05:10:14.998Z</time></trkpt><trkpt lat="43.27084989992515" lon="10.631294304520024"><ele>117.0</ele><time>2026-04-11T05:10:16.998Z</time></trkpt><trkpt lat="43.27081265281293" lon="10.631390042396768"><ele>117.0</ele><time>2026-04-11T05:10:18.998Z</time></trkpt><trkpt lat="43.27076324604503" lon="10.631489135182962"><ele>117.0</ele><time>2026-04-11T05:10:20.997Z</time></trkpt><trkpt lat="43.27074763869043" lon="10.631597226858133"><ele>117.0</ele><time>2026-04-11T05:10:22.997Z</time></trkpt><trkpt lat="43.27072047325755" lon="10.631704015890849"><ele>117.0</ele><time>2026-04-11T05:10:24.997Z</time></trkpt><trkpt lat="43.27072454286295" lon="10.631812428341924"><ele>117.0</ele><time>2026-04-11T05:10:26.997Z</time></trkpt><trkpt lat="43.27072892705911" lon="10.631924759499856"><ele>117.0</ele><time>2026-04-11T05:10:28.997Z</time></trkpt><trkpt lat="43.27075103428142" lon="10.632030104783562"><ele>117.0</ele><time>2026-04-11T05:10:30.999Z</time></trkpt><trkpt lat="43.27076027580479" lon="10.632144838269353"><ele>117.0</ele><time>2026-04-11T05:10:32.999Z</time></trkpt><trkpt lat="43.27077367408036" lon="10.632258348937723"><ele>117.0</ele><time>2026-04-11T05:10:34.999Z</time></trkpt><trkpt lat="43.270764709095126" lon="10.63236988642155"><ele>117.0</ele><time>2026-04-11T05:10:36.999Z</time></trkpt><trkpt lat="43.27073520167567" lon="10.632476941697107"><ele>117.0</ele><time>2026-04-11T05:10:38.999Z</time></trkpt><trkpt lat="43.27068139890311" lon="10.6325739049487"><ele>116.99999999999999</ele><time>2026-04-11T05:10:40.999Z</time></trkpt><trkpt lat="43.270584124077594" lon="10.632691164555778"><ele>116.99999999999999</ele><time>2026-04-11T05:10:43.999Z</time></trkpt><trkpt lat="43.270506917492106" lon="10.632754813879089"><ele>117.0</ele><time>2026-04-11T05:10:45.999Z</time></trkpt><trkpt lat="43.270439284517046" lon="10.632847640925476"><ele>117.0</ele><time>2026-04-11T05:10:47.999Z</time></trkpt><trkpt lat="43.2703910737139" lon="10.632956487304883"><ele>120.8</ele><time>2026-04-11T05:10:49.999Z</time></trkpt><trkpt lat="43.27034977101709" lon="10.633066346990416"><ele>124.6</ele><time>2026-04-11T05:10:51.999Z</time></trkpt><trkpt lat="43.27033265543309" lon="10.633188852897208"><ele>128.39999999999998</ele><time>2026-04-11T05:10:53.999Z</time></trkpt><trkpt lat="43.27032887530515" lon="10.63331978962943"><ele>132.2</ele><time>2026-04-11T05:10:55.999Z</time></trkpt><trkpt lat="43.27035913395443" lon="10.633437363918697"><ele>136.0</ele><time>2026-04-11T05:10:57.999Z</time></trkpt><trkpt lat="43.270403967367194" lon="10.633534235338107"><ele>136.0</ele><time>2026-04-11T05:10:59.999Z</time></trkpt><trkpt lat="43.27043611523089" lon="10.633630375106604"><ele>136.0</ele><time>2026-04-11T05:11:02.999Z</time></trkpt><trkpt lat="43.2704319657562" lon="10.63373520047843"><ele>136.0</ele><time>2026-04-11T05:11:04.999Z</time></trkpt><trkpt lat="43.27044479080428" lon="10.633825799093513"><ele>136.0</ele><time>2026-04-11T05:11:06.999Z</time></trkpt><trkpt lat="43.27045645131658" lon="10.633922571202918"><ele>136.0</ele><time>2026-04-11T05:11:08.999Z</time></trkpt><trkpt lat="43.2704695905482" lon="10.634031838336396"><ele>136.0</ele><time>2026-04-11T05:11:10.999Z</time></trkpt><trkpt lat="43.27047552458003" lon="10.634138277948656"><ele>137.4</ele><time>2026-04-11T05:11:12.999Z</time></trkpt><trkpt lat="43.27048563845371" lon="10.634241446777722"><ele>138.8</ele><time>2026-04-11T05:11:15.999Z</time></trkpt><trkpt lat="43.27050114819478" lon="10.634326423856958"><ele>140.20000000000002</ele><time>2026-04-11T05:11:17.999Z</time></trkpt><trkpt lat="43.27051618586283" lon="10.634505484123112"><ele>141.6</ele><time>2026-04-11T05:11:19.999Z</time></trkpt><trkpt lat="43.27054528455842" lon="10.634624914144695"><ele>143.0</ele><time>2026-04-11T05:11:21.999Z</time></trkpt><trkpt lat="43.27059305691546" lon="10.63475340787111"><ele>143.5</ele><time>2026-04-11T05:11:23.999Z</time></trkpt><trkpt lat="43.27060237126121" lon="10.634902632147897"><ele>144.0</ele><time>2026-04-11T05:11:25.999Z</time></trkpt><trkpt lat="43.27064655346654" lon="10.6350058823968"><ele>144.5</ele><time>2026-04-11T05:11:27.998Z</time></trkpt><trkpt lat="43.27066042830473" lon="10.635127056629242"><ele>145.0</ele><time>2026-04-11T05:11:29.998Z</time></trkpt><trkpt lat="43.27066564660903" lon="10.635234992686922"><ele>145.5</ele><time>2026-04-11T05:11:31.998Z</time></trkpt><trkpt lat="43.27065029379491" lon="10.635341363803922"><ele>146.0</ele><time>2026-04-11T05:11:33.998Z</time></trkpt><trkpt lat="43.270616073058946" lon="10.635440105320487"><ele>145.83333333333331</ele><time>2026-04-11T05:11:35.998Z</time></trkpt><trkpt lat="43.27056418528363" lon="10.63552368809642"><ele>145.66666666666666</ele><time>2026-04-11T05:11:37.998Z</time></trkpt><trkpt lat="43.270526099655285" lon="10.635615885430992"><ele>145.5</ele><time>2026-04-11T05:11:39.998Z</time></trkpt><trkpt lat="43.2705047426792" lon="10.635706737240975"><ele>145.33333333333334</ele><time>2026-04-11T05:11:41.998Z</time></trkpt><trkpt lat="43.27051055840713" lon="10.63580085334901"><ele>145.16666666666669</ele><time>2026-04-11T05:11:43.998Z</time></trkpt><trkpt lat="43.270556512829394" lon="10.635903971425398"><ele>145.0</ele><time>2026-04-11T05:11:45.998Z</time></trkpt><trkpt lat="43.270593395679214" lon="10.63598053953087"><ele>141.6</ele><time>2026-04-11T05:11:48.998Z</time></trkpt><trkpt lat="43.270618918007216" lon="10.636087241920972"><ele>138.2</ele><time>2026-04-11T05:11:50.998Z</time></trkpt><trkpt lat="43.27063226790762" lon="10.636208879946658"><ele>134.8</ele><time>2026-04-11T05:11:53.998Z</time></trkpt><trkpt lat="43.27062132702082" lon="10.636358089412289"><ele>131.4</ele><time>2026-04-11T05:11:56.998Z</time></trkpt><trkpt lat="43.27062467191074" lon="10.63647418111429"><ele>128.0</ele><time>2026-04-11T05:11:58.998Z</time></trkpt><trkpt lat="43.2706101084723" lon="10.636589488003027"><ele>131.66666666666666</ele><time>2026-04-11T05:12:01.998Z</time></trkpt><trkpt lat="43.27058335361607" lon="10.636699703703654"><ele>135.33333333333331</ele><time>2026-04-11T05:12:03.998Z</time></trkpt><trkpt lat="43.27055837827798" lon="10.636779068334533"><ele>139.0</ele><time>2026-04-11T05:12:05.998Z</time></trkpt><trkpt lat="43.27054472677808" lon="10.636892506851986"><ele>142.66666666666666</ele><time>2026-04-11T05:12:08.998Z</time></trkpt><trkpt lat="43.2705129549634" lon="10.636996056077637"><ele>146.33333333333334</ele><time>2026-04-11T05:12:11.998Z</time></trkpt><trkpt lat="43.27048510602879" lon="10.637074509151256"><ele>150.0</ele><time>2026-04-11T05:12:13.998Z</time></trkpt><trkpt lat="43.27043042313145" lon="10.637194620481988"><ele>150.7142857142857</ele><time>2026-04-11T05:12:14.998Z</time></trkpt><trkpt lat="43.27040602352731" lon="10.637283658855148"><ele>151.42857142857142</ele><time>2026-04-11T05:12:16.998Z</time></trkpt><trkpt lat="43.27040366472243" lon="10.63737188056256"><ele>152.14285714285714</ele><time>2026-04-11T05:12:18.998Z</time></trkpt><trkpt lat="43.270428809302814" lon="10.637462250932135"><ele>152.85714285714283</ele><time>2026-04-11T05:12:20.998Z</time></trkpt><trkpt lat="43.27046760270337" lon="10.637532005002102"><ele>153.57142857142856</ele><time>2026-04-11T05:12:22.998Z</time></trkpt><trkpt lat="43.27049986034867" lon="10.63761043202541"><ele>154.28571428571428</ele><time>2026-04-11T05:12:24.997Z</time></trkpt><trkpt lat="43.27053049375447" lon="10.637688074359128"><ele>155.0</ele><time>2026-04-11T05:12:26.997Z</time></trkpt><trkpt lat="43.27058259903344" lon="10.63778411028938"><ele>153.0</ele><time>2026-04-11T05:12:29.997Z</time></trkpt><trkpt lat="43.27066309474873" lon="10.637838164514203"><ele>151.0</ele><time>2026-04-11T05:12:32.997Z</time></trkpt><trkpt lat="43.27069902821042" lon="10.637909415332656"><ele>149.0</ele><time>2026-04-11T05:12:34.997Z</time></trkpt><trkpt lat="43.270746968195404" lon="10.637975572911728"><ele>147.0</ele><time>2026-04-11T05:12:36.999Z</time></trkpt><trkpt lat="43.270775158601104" lon="10.638055359664556"><ele>145.0</ele><time>2026-04-11T05:12:38.999Z</time></trkpt><trkpt lat="43.270791384199136" lon="10.638150142072417"><ele>143.0</ele><time>2026-04-11T05:12:40.999Z</time></trkpt><trkpt lat="43.27079269504214" lon="10.638242293249107"><ele>141.0</ele><time>2026-04-11T05:12:42.999Z</time></trkpt><trkpt lat="43.2707865693566" lon="10.638364506339578"><ele>141.0</ele><time>2026-04-11T05:12:45.999Z</time></trkpt><trkpt lat="43.27076573258831" lon="10.638485966190414"><ele>141.0</ele><time>2026-04-11T05:12:48.999Z</time></trkpt><trkpt lat="43.27076237342346" lon="10.63858362934544"><ele>141.0</ele><time>2026-04-11T05:12:50.999Z</time></trkpt><trkpt lat="43.27073405907724" lon="10.638706533770069"><ele>141.0</ele><time>2026-04-11T05:12:53.999Z</time></trkpt><trkpt lat="43.27071485178423" lon="10.638790321208749"><ele>141.0</ele><time>2026-04-11T05:12:55.999Z</time></trkpt><trkpt lat="43.27068937892466" lon="10.638906188381236"><ele>141.0</ele><time>2026-04-11T05:12:58.999Z</time></trkpt><trkpt lat="43.270658286643645" lon="10.639018970085036"><ele>141.0</ele><time>2026-04-11T05:13:01.999Z</time></trkpt><trkpt lat="43.27062150519347" lon="10.639133617661031"><ele>141.0</ele><time>2026-04-11T05:13:04.999Z</time></trkpt><trkpt lat="43.270590021459974" lon="10.63921151310732"><ele>141.0</ele><time>2026-04-11T05:13:06.999Z</time></trkpt><trkpt lat="43.27053424697285" lon="10.63932513623643"><ele>141.0</ele><time>2026-04-11T05:13:09.999Z</time></trkpt><trkpt lat="43.27047326639826" lon="10.639416094085766"><ele>141.0</ele><time>2026-04-11T05:13:12.999Z</time></trkpt><trkpt lat="43.270422986792035" lon="10.639522795303217"><ele>141.0</ele><time>2026-04-11T05:13:15.999Z</time></trkpt><trkpt lat="43.2703705856019" lon="10.63961427338956"><ele>143.0</ele><time>2026-04-11T05:13:18.999Z</time></trkpt><trkpt lat="43.27035755951966" lon="10.63973512680525"><ele>145.0</ele><time>2026-04-11T05:13:21.999Z</time></trkpt><trkpt lat="43.27034869969986" lon="10.639825461378917"><ele>147.0</ele><time>2026-04-11T05:13:23.999Z</time></trkpt><trkpt lat="43.27034784311682" lon="10.639918323063478"><ele>149.0</ele><time>2026-04-11T05:13:25.999Z</time></trkpt><trkpt lat="43.2703551841558" lon="10.640013141942598"><ele>151.0</ele><time>2026-04-11T05:13:27.999Z</time></trkpt><trkpt lat="43.27036382702994" lon="10.640109687530353"><ele>153.0</ele><time>2026-04-11T05:13:29.998Z</time></trkpt><trkpt lat="43.27036990343537" lon="10.640209674156523"><ele>155.0</ele><time>2026-04-11T05:13:31.998Z</time></trkpt><trkpt lat="43.27037590797031" lon="10.640299920864013"><ele>156.0</ele><time>2026-04-11T05:13:33.998Z</time></trkpt><trkpt lat="43.27037204132819" lon="10.640386698064757"><ele>157.0</ele><time>2026-04-11T05:13:35.998Z</time></trkpt><trkpt lat="43.270348444412356" lon="10.640567369464916"><ele>158.0</ele><time>2026-04-11T05:13:39.999Z</time></trkpt><trkpt lat="43.27034933306425" lon="10.640668357260475"><ele>159.0</ele><time>2026-04-11T05:13:41.999Z</time></trkpt><trkpt lat="43.270331948524536" lon="10.640764618189266"><ele>160.0</ele><time>2026-04-11T05:13:43.999Z</time></trkpt><trkpt lat="43.27033265361307" lon="10.640887402479631"><ele>161.0</ele><time>2026-04-11T05:13:46.999Z</time></trkpt><trkpt lat="43.27033849176869" lon="10.640989656280299"><ele>161.0</ele><time>2026-04-11T05:13:47.999Z</time></trkpt><trkpt lat="43.27036495625503" lon="10.641085494487271"><ele>161.0</ele><time>2026-04-11T05:13:49.999Z</time></trkpt><trkpt lat="43.2703986037623" lon="10.641174652675517"><ele>161.0</ele><time>2026-04-11T05:13:51.999Z</time></trkpt><trkpt lat="43.27042421849361" lon="10.641256121347773"><ele>161.0</ele><time>2026-04-11T05:13:53.999Z</time></trkpt><trkpt lat="43.27043999960188" lon="10.64134978693065"><ele>161.0</ele><time>2026-04-11T05:13:55.999Z</time></trkpt><trkpt lat="43.27043760680187" lon="10.641457991059575"><ele>161.0</ele><time>2026-04-11T05:13:57.999Z</time></trkpt><trkpt lat="43.2704023039325" lon="10.64156426951953"><ele>161.0</ele><time>2026-04-11T05:13:59.999Z</time></trkpt><trkpt lat="43.270342235367075" lon="10.641673229363452"><ele>160.60000000000002</ele><time>2026-04-11T05:14:01.999Z</time></trkpt><trkpt lat="43.270272986201164" lon="10.6417640599766"><ele>160.20000000000002</ele><time>2026-04-11T05:14:03.999Z</time></trkpt><trkpt lat="43.27020996996323" lon="10.641853724154174"><ele>159.8</ele><time>2026-04-11T05:14:05.999Z</time></trkpt><trkpt lat="43.27015290513069" lon="10.641941832043797"><ele>159.4</ele><time>2026-04-11T05:14:07.999Z</time></trkpt><trkpt lat="43.27009466982273" lon="10.642043564598394"><ele>159.0</ele><time>2026-04-11T05:14:09.999Z</time></trkpt><trkpt lat="43.270036557953915" lon="10.642136857193323"><ele>158.0</ele><time>2026-04-11T05:14:11.999Z</time></trkpt><trkpt lat="43.269987346698805" lon="10.642238056865473"><ele>157.0</ele><time>2026-04-11T05:14:13.999Z</time></trkpt><trkpt lat="43.26994005285156" lon="10.642353819225809"><ele>156.0</ele><time>2026-04-11T05:14:15.999Z</time></trkpt><trkpt lat="43.26988715626788" lon="10.642463576314018"><ele>155.0</ele><time>2026-04-11T05:14:17.999Z</time></trkpt><trkpt lat="43.26983000713388" lon="10.642588542656283"><ele>154.0</ele><time>2026-04-11T05:14:19.999Z</time></trkpt><trkpt lat="43.269786374503724" lon="10.642713699394044"><ele>154.8</ele><time>2026-04-11T05:14:21.999Z</time></trkpt><trkpt lat="43.26979406066706" lon="10.642853261520967"><ele>155.60000000000002</ele><time>2026-04-11T05:14:23.999Z</time></trkpt><trkpt lat="43.26983335674519" lon="10.642958287063735"><ele>156.4</ele><time>2026-04-11T05:14:25.999Z</time></trkpt><trkpt lat="43.269937256041516" lon="10.642978161274732"><ele>157.20000000000002</ele><time>2026-04-11T05:14:27.999Z</time></trkpt><trkpt lat="43.270027751624944" lon="10.642986630195608"><ele>158.0</ele><time>2026-04-11T05:14:29.999Z</time></trkpt><trkpt lat="43.27011286089753" lon="10.643013095485635"><ele>158.0</ele><time>2026-04-11T05:14:31.998Z</time></trkpt><trkpt lat="43.27018741967459" lon="10.643062509111234"><ele>158.0</ele><time>2026-04-11T05:14:33.998Z</time></trkpt><trkpt lat="43.27024735616826" lon="10.643156280990512"><ele>158.0</ele><time>2026-04-11T05:14:35.998Z</time></trkpt><trkpt lat="43.270300972424465" lon="10.643270580845238"><ele>158.0</ele><time>2026-04-11T05:14:37.998Z</time></trkpt><trkpt lat="43.27035142968434" lon="10.643390604306186"><ele>158.0</ele><time>2026-04-11T05:14:39.998Z</time></trkpt><trkpt lat="43.270398350099306" lon="10.643509339428787"><ele>159.60000000000002</ele><time>2026-04-11T05:14:42Z</time></trkpt><trkpt lat="43.27043287833543" lon="10.64363099515794"><ele>161.20000000000002</ele><time>2026-04-11T05:14:44Z</time></trkpt><trkpt lat="43.27047194863148" lon="10.643743725744223"><ele>162.8</ele><time>2026-04-11T05:14:46Z</time></trkpt><trkpt lat="43.27050180781688" lon="10.643868406159136"><ele>164.4</ele><time>2026-04-11T05:14:48Z</time></trkpt><trkpt lat="43.270486995300885" lon="10.644001198962513"><ele>166.0</ele><time>2026-04-11T05:14:50Z</time></trkpt><trkpt lat="43.27047774862576" lon="10.644132926080152"><ele>166.0</ele><time>2026-04-11T05:14:52Z</time></trkpt><trkpt lat="43.27047065079789" lon="10.64425932324993"><ele>166.0</ele><time>2026-04-11T05:14:54Z</time></trkpt><trkpt lat="43.27045360135127" lon="10.644381719929687"><ele>166.0</ele><time>2026-04-11T05:14:56Z</time></trkpt><trkpt lat="43.270441476259" lon="10.644502268544214"><ele>166.0</ele><time>2026-04-11T05:14:58Z</time></trkpt><trkpt lat="43.27043029155603" lon="10.644626448376204"><ele>166.0</ele><time>2026-04-11T05:15:00Z</time></trkpt><trkpt lat="43.27038536976361" lon="10.644734527649238"><ele>166.0</ele><time>2026-04-11T05:15:02Z</time></trkpt><trkpt lat="43.27033686087264" lon="10.644842660031593"><ele>166.0</ele><time>2026-04-11T05:15:04Z</time></trkpt><trkpt lat="43.27028362344517" lon="10.644940948745745"><ele>166.0</ele><time>2026-04-11T05:15:06Z</time></trkpt><trkpt lat="43.27023956636216" lon="10.645058689095565"><ele>166.0</ele><time>2026-04-11T05:15:08Z</time></trkpt><trkpt lat="43.27023080221859" lon="10.645180244920354"><ele>166.0</ele><time>2026-04-11T05:15:10Z</time></trkpt><trkpt lat="43.270250325873086" lon="10.64528185791775"><ele>166.0</ele><time>2026-04-11T05:15:12Z</time></trkpt><trkpt lat="43.270276498375665" lon="10.645384546063104"><ele>166.0</ele><time>2026-04-11T05:15:14Z</time></trkpt><trkpt lat="43.27030355938095" lon="10.645480020202987"><ele>166.0</ele><time>2026-04-11T05:15:16Z</time></trkpt><trkpt lat="43.270299802158156" lon="10.645578225864352"><ele>166.0</ele><time>2026-04-11T05:15:18Z</time></trkpt><trkpt lat="43.27027354673916" lon="10.64566133621969"><ele>166.0</ele><time>2026-04-11T05:15:20Z</time></trkpt><trkpt lat="43.270212334906645" lon="10.645710068090692"><ele>166.0</ele><time>2026-04-11T05:15:22Z</time></trkpt><trkpt lat="43.27015010569385" lon="10.645772099911083"><ele>166.0</ele><time>2026-04-11T05:15:24Z</time></trkpt><trkpt lat="43.27008545365296" lon="10.645817194546767"><ele>166.0</ele><time>2026-04-11T05:15:26Z</time></trkpt><trkpt lat="43.27003052803844" lon="10.645891579430392"><ele>166.0</ele><time>2026-04-11T05:15:28Z</time></trkpt><trkpt lat="43.26999665516375" lon="10.645973772053358"><ele>166.0</ele><time>2026-04-11T05:15:30Z</time></trkpt><trkpt lat="43.26996856856205" lon="10.64606532253673"><ele>166.0</ele><time>2026-04-11T05:15:32Z</time></trkpt><trkpt lat="43.26995614584776" lon="10.646150309023776"><ele>166.0</ele><time>2026-04-11T05:15:34Z</time></trkpt><trkpt lat="43.269926593338226" lon="10.646243227220316"><ele>166.0</ele><time>2026-04-11T05:15:35.999Z</time></trkpt><trkpt lat="43.2698937715161" lon="10.646330132370037"><ele>166.0</ele><time>2026-04-11T05:15:37.999Z</time></trkpt><trkpt lat="43.26986618579123" lon="10.646420145125274"><ele>166.0</ele><time>2026-04-11T05:15:39.999Z</time></trkpt><trkpt lat="43.26983536886113" lon="10.646500027887532"><ele>166.14285714285714</ele><time>2026-04-11T05:15:41.999Z</time></trkpt><trkpt lat="43.26979831227856" lon="10.646577732817635"><ele>166.2857142857143</ele><time>2026-04-11T05:15:43.999Z</time></trkpt><trkpt lat="43.26975673810498" lon="10.646654852844316"><ele>166.42857142857144</ele><time>2026-04-11T05:15:45.999Z</time></trkpt><trkpt lat="43.269717189008595" lon="10.646737830926682"><ele>166.57142857142856</ele><time>2026-04-11T05:15:47.999Z</time></trkpt><trkpt lat="43.26969276750428" lon="10.646829610641301"><ele>166.71428571428572</ele><time>2026-04-11T05:15:49.999Z</time></trkpt><trkpt lat="43.26967170693289" lon="10.64692228865717"><ele>166.85714285714286</ele><time>2026-04-11T05:15:51.999Z</time></trkpt><trkpt lat="43.2696565567626" lon="10.647014098638923"><ele>167.0</ele><time>2026-04-11T05:15:53.999Z</time></trkpt><trkpt lat="43.26963333517726" lon="10.647106403163745"><ele>168.14285714285714</ele><time>2026-04-11T05:15:55.999Z</time></trkpt><trkpt lat="43.269612962472486" lon="10.64719257431826"><ele>169.28571428571428</ele><time>2026-04-11T05:15:57.999Z</time></trkpt><trkpt lat="43.2695979406415" lon="10.647279928042595"><ele>170.42857142857144</ele><time>2026-04-11T05:15:59.999Z</time></trkpt><trkpt lat="43.26959308828294" lon="10.647369705144271"><ele>171.57142857142856</ele><time>2026-04-11T05:16:01.999Z</time></trkpt><trkpt lat="43.26961282438556" lon="10.647459791022392"><ele>172.71428571428572</ele><time>2026-04-11T05:16:03.999Z</time></trkpt><trkpt lat="43.26965538530829" lon="10.647528981259223"><ele>173.85714285714286</ele><time>2026-04-11T05:16:05.999Z</time></trkpt><trkpt lat="43.269723528571944" lon="10.647556779028633"><ele>175.0</ele><time>2026-04-11T05:16:07.999Z</time></trkpt><trkpt lat="43.269793305532" lon="10.647549857358104"><ele>175.0</ele><time>2026-04-11T05:16:09.999Z</time></trkpt><trkpt lat="43.26985298402165" lon="10.647490943494383"><ele>175.0</ele><time>2026-04-11T05:16:11.999Z</time></trkpt><trkpt lat="43.269916493455355" lon="10.647445286027295"><ele>175.0</ele><time>2026-04-11T05:16:13.999Z</time></trkpt><trkpt lat="43.269964903974085" lon="10.647374120825324"><ele>175.0</ele><time>2026-04-11T05:16:16.999Z</time></trkpt><trkpt lat="43.270037242599194" lon="10.647271234843775"><ele>175.0</ele><time>2026-04-11T05:16:18.999Z</time></trkpt><trkpt lat="43.270076493853054" lon="10.64719493865997"><ele>175.0</ele><time>2026-04-11T05:16:20.999Z</time></trkpt><trkpt lat="43.27011592645116" lon="10.647110022492601"><ele>175.0</ele><time>2026-04-11T05:16:22.999Z</time></trkpt><trkpt lat="43.27014721330125" lon="10.647024859778497"><ele>175.0</ele><time>2026-04-11T05:16:24.999Z</time></trkpt><trkpt lat="43.270187574233326" lon="10.646942773390693"><ele>175.0</ele><time>2026-04-11T05:16:26.999Z</time></trkpt><trkpt lat="43.270230311002834" lon="10.646862487672498"><ele>175.0</ele><time>2026-04-11T05:16:28.999Z</time></trkpt><trkpt lat="43.27028002569199" lon="10.646788053206855"><ele>175.0</ele><time>2026-04-11T05:16:30.999Z</time></trkpt><trkpt lat="43.27035082247896" lon="10.646731422447578"><ele>175.0</ele><time>2026-04-11T05:16:33.999Z</time></trkpt><trkpt lat="43.27043667249632" lon="10.64668883866014"><ele>173.85714285714286</ele><time>2026-04-11T05:16:35.999Z</time></trkpt><trkpt lat="43.27052501478307" lon="10.646678397880741"><ele>172.71428571428572</ele><time>2026-04-11T05:16:37.999Z</time></trkpt><trkpt lat="43.2705967606656" lon="10.646670923041631"><ele>171.57142857142856</ele><time>2026-04-11T05:16:39.999Z</time></trkpt><trkpt lat="43.27066366797808" lon="10.646677107458014"><ele>170.42857142857144</ele><time>2026-04-11T05:16:41.998Z</time></trkpt><trkpt lat="43.27073763049878" lon="10.646689505840738"><ele>169.28571428571428</ele><time>2026-04-11T05:16:43.998Z</time></trkpt><trkpt lat="43.27080650985721" lon="10.646705966809497"><ele>168.14285714285714</ele><time>2026-04-11T05:16:45.998Z</time></trkpt><trkpt lat="43.27087179350969" lon="10.646746203331457"><ele>167.0</ele><time>2026-04-11T05:16:48Z</time></trkpt><trkpt lat="43.27091985959716" lon="10.646815365776149"><ele>167.0</ele><time>2026-04-11T05:16:50Z</time></trkpt><trkpt lat="43.27093763473782" lon="10.646903547817088"><ele>167.0</ele><time>2026-04-11T05:16:52Z</time></trkpt><trkpt lat="43.27094152026794" lon="10.647032658171826"><ele>167.0</ele><time>2026-04-11T05:16:55Z</time></trkpt><trkpt lat="43.270941310914125" lon="10.647122856153384"><ele>167.0</ele><time>2026-04-11T05:16:57Z</time></trkpt><trkpt lat="43.27093616526822" lon="10.647229016228035"><ele>167.0</ele><time>2026-04-11T05:17:00Z</time></trkpt><trkpt lat="43.27094006522672" lon="10.647341454280362"><ele>167.0</ele><time>2026-04-11T05:17:03Z</time></trkpt><trkpt lat="43.2709775418346" lon="10.647416517143482"><ele>168.83333333333331</ele><time>2026-04-11T05:17:05Z</time></trkpt><trkpt lat="43.27100168984213" lon="10.647565441884336"><ele>170.66666666666666</ele><time>2026-04-11T05:17:07Z</time></trkpt><trkpt lat="43.27105294227457" lon="10.64763937264651"><ele>172.5</ele><time>2026-04-11T05:17:09Z</time></trkpt><trkpt lat="43.27110049454072" lon="10.647708657134766"><ele>174.33333333333334</ele><time>2026-04-11T05:17:11Z</time></trkpt><trkpt lat="43.271151809506776" lon="10.647769944104079"><ele>176.16666666666669</ele><time>2026-04-11T05:17:13Z</time></trkpt><trkpt lat="43.27120274601714" lon="10.647835219401307"><ele>178.0</ele><time>2026-04-11T05:17:15Z</time></trkpt><trkpt lat="43.27125122777588" lon="10.647904433735874"><ele>178.83333333333334</ele><time>2026-04-11T05:17:17Z</time></trkpt><trkpt lat="43.27130249099367" lon="10.647961165039968"><ele>179.66666666666669</ele><time>2026-04-11T05:17:19Z</time></trkpt><trkpt lat="43.27135165284732" lon="10.648029812764177"><ele>180.5</ele><time>2026-04-11T05:17:21Z</time></trkpt><trkpt lat="43.27139119205703" lon="10.648109169439698"><ele>181.33333333333334</ele><time>2026-04-11T05:17:23Z</time></trkpt><trkpt lat="43.27140811652023" lon="10.648210120551177"><ele>182.16666666666666</ele><time>2026-04-11T05:17:25Z</time></trkpt><trkpt lat="43.27140024208459" lon="10.648349858808382"><ele>183.0</ele><time>2026-04-11T05:17:28Z</time></trkpt><trkpt lat="43.27134699555592" lon="10.648429487726768"><ele>183.0</ele><time>2026-04-11T05:17:30Z</time></trkpt><trkpt lat="43.27130777151977" lon="10.648513361226263"><ele>183.0</ele><time>2026-04-11T05:17:32Z</time></trkpt><trkpt lat="43.27127390908931" lon="10.64859305943889"><ele>183.0</ele><time>2026-04-11T05:17:34Z</time></trkpt><trkpt lat="43.27124805363775" lon="10.648684894654126"><ele>183.0</ele><time>2026-04-11T05:17:36Z</time></trkpt><trkpt lat="43.27124100484825" lon="10.648781226561654"><ele>183.0</ele><time>2026-04-11T05:17:38Z</time></trkpt><trkpt lat="43.27125044856267" lon="10.648873431495089"><ele>183.0</ele><time>2026-04-11T05:17:40Z</time></trkpt><trkpt lat="43.27128739898606" lon="10.648954375506973"><ele>183.0</ele><time>2026-04-11T05:17:42Z</time></trkpt><trkpt lat="43.27135596771063" lon="10.648948313930644"><ele>183.42857142857144</ele><time>2026-04-11T05:17:44Z</time></trkpt><trkpt lat="43.27142449777938" lon="10.648899200327943"><ele>183.85714285714286</ele><time>2026-04-11T05:17:46Z</time></trkpt><trkpt lat="43.271474004790136" lon="10.648820728879079"><ele>184.28571428571428</ele><time>2026-04-11T05:17:47.999Z</time></trkpt><trkpt lat="43.27153134905148" lon="10.648752282390795"><ele>184.71428571428572</ele><time>2026-04-11T05:17:49.999Z</time></trkpt><trkpt lat="43.27158695661906" lon="10.648704104121169"><ele>185.14285714285714</ele><time>2026-04-11T05:17:51.999Z</time></trkpt><trkpt lat="43.271660609350185" lon="10.648691094074698"><ele>185.57142857142858</ele><time>2026-04-11T05:17:53.999Z</time></trkpt><trkpt lat="43.27173157544171" lon="10.648737999760142"><ele>186.0</ele><time>2026-04-11T05:17:55.999Z</time></trkpt><trkpt lat="43.27176641506699" lon="10.648839177896372"><ele>186.00000000000003</ele><time>2026-04-11T05:17:57.999Z</time></trkpt><trkpt lat="43.27179191748042" lon="10.648938957003573"><ele>186.0</ele><time>2026-04-11T05:17:59.999Z</time></trkpt><trkpt lat="43.271826007003625" lon="10.649032025553412"><ele>186.0</ele><time>2026-04-11T05:18:01.999Z</time></trkpt><trkpt lat="43.27184355531115" lon="10.649130412380924"><ele>186.0</ele><time>2026-04-11T05:18:03.999Z</time></trkpt><trkpt lat="43.271858133151696" lon="10.64923603850805"><ele>186.0</ele><time>2026-04-11T05:18:05.999Z</time></trkpt><trkpt lat="43.27186930061181" lon="10.649333938179632"><ele>186.00000000000003</ele><time>2026-04-11T05:18:07.999Z</time></trkpt><trkpt lat="43.27188345271714" lon="10.649424153728345"><ele>186.0</ele><time>2026-04-11T05:18:09.999Z</time></trkpt><trkpt lat="43.27189631638658" lon="10.649512611952657"><ele>187.16666666666666</ele><time>2026-04-11T05:18:11.999Z</time></trkpt><trkpt lat="43.27192060312587" lon="10.649626574374604"><ele>188.33333333333331</ele><time>2026-04-11T05:18:14.999Z</time></trkpt><trkpt lat="43.271953059540714" lon="10.649740896054164"><ele>189.5</ele><time>2026-04-11T05:18:16.999Z</time></trkpt><trkpt lat="43.27198198517981" lon="10.649823567785461"><ele>190.66666666666666</ele><time>2026-04-11T05:18:18.999Z</time></trkpt><trkpt lat="43.27200655662795" lon="10.649923072975488"><ele>191.83333333333331</ele><time>2026-04-11T05:18:21.999Z</time></trkpt><trkpt lat="43.271997499236456" lon="10.650049109176809"><ele>193.0</ele><time>2026-04-11T05:18:24.999Z</time></trkpt><trkpt lat="43.27196752565568" lon="10.650131092778679"><ele>192.99999999999997</ele><time>2026-04-11T05:18:26.999Z</time></trkpt><trkpt lat="43.271937682582774" lon="10.650211591473573"><ele>193.0</ele><time>2026-04-11T05:18:28.999Z</time></trkpt><trkpt lat="43.27191344506425" lon="10.65033558400426"><ele>193.0</ele><time>2026-04-11T05:18:31.999Z</time></trkpt><trkpt lat="43.27193718199408" lon="10.650457575534475"><ele>193.0</ele><time>2026-04-11T05:18:34.999Z</time></trkpt><trkpt lat="43.27196811984459" lon="10.650564482257458"><ele>192.99999999999997</ele><time>2026-04-11T05:18:37.999Z</time></trkpt><trkpt lat="43.27202694958327" lon="10.650664621852135"><ele>193.0</ele><time>2026-04-11T05:18:40.999Z</time></trkpt><trkpt lat="43.272073087174235" lon="10.650749813042486"><ele>193.71428571428572</ele><time>2026-04-11T05:18:42.999Z</time></trkpt><trkpt lat="43.27210552171486" lon="10.650830606131287"><ele>194.42857142857144</ele><time>2026-04-11T05:18:44.999Z</time></trkpt><trkpt lat="43.272147310993326" lon="10.650912754916284"><ele>195.14285714285717</ele><time>2026-04-11T05:18:47.999Z</time></trkpt><trkpt lat="43.27218027358512" lon="10.651020810123548"><ele>195.85714285714286</ele><time>2026-04-11T05:18:50.999Z</time></trkpt><trkpt lat="43.272194446342816" lon="10.651126945145219"><ele>196.57142857142856</ele><time>2026-04-11T05:18:54Z</time></trkpt><trkpt lat="43.27218962990882" lon="10.651214890033579"><ele>197.2857142857143</ele><time>2026-04-11T05:18:56Z</time></trkpt><trkpt lat="43.27217615437464" lon="10.651311690484647"><ele>198.0</ele><time>2026-04-11T05:18:58Z</time></trkpt><trkpt lat="43.272149480842245" lon="10.651421791243969"><ele>198.66666666666666</ele><time>2026-04-11T05:19:01Z</time></trkpt><trkpt lat="43.27211591290367" lon="10.651529848762562"><ele>199.33333333333331</ele><time>2026-04-11T05:19:04Z</time></trkpt><trkpt lat="43.27208153033194" lon="10.651637501262494"><ele>200.0</ele><time>2026-04-11T05:19:07Z</time></trkpt><trkpt lat="43.272033874187464" lon="10.65174001972705"><ele>200.66666666666666</ele><time>2026-04-11T05:19:10Z</time></trkpt><trkpt lat="43.27199622950737" lon="10.651839845479929"><ele>201.33333333333331</ele><time>2026-04-11T05:19:13Z</time></trkpt><trkpt lat="43.27195226109515" lon="10.65193469563611"><ele>202.0</ele><time>2026-04-11T05:19:16Z</time></trkpt><trkpt lat="43.2719101752702" lon="10.652038633145622"><ele>202.33333333333331</ele><time>2026-04-11T05:19:19Z</time></trkpt><trkpt lat="43.271874874101826" lon="10.652141501248712"><ele>202.66666666666666</ele><time>2026-04-11T05:19:22Z</time></trkpt><trkpt lat="43.27182382295448" lon="10.652245461901238"><ele>203.0</ele><time>2026-04-11T05:19:25Z</time></trkpt><trkpt lat="43.27178501457313" lon="10.652341157071934"><ele>203.33333333333331</ele><time>2026-04-11T05:19:28Z</time></trkpt><trkpt lat="43.27174655269476" lon="10.65244682097782"><ele>203.66666666666666</ele><time>2026-04-11T05:19:31Z</time></trkpt><trkpt lat="43.271721666864465" lon="10.652548847444747"><ele>204.0</ele><time>2026-04-11T05:19:34Z</time></trkpt><trkpt lat="43.27171077159219" lon="10.652637368810602"><ele>204.0</ele><time>2026-04-11T05:19:37Z</time></trkpt><trkpt lat="43.27168957655125" lon="10.65276309283311"><ele>204.0</ele><time>2026-04-11T05:19:40Z</time></trkpt><trkpt lat="43.27165280618232" lon="10.652872928104749"><ele>204.0</ele><time>2026-04-11T05:19:43Z</time></trkpt><trkpt lat="43.27163292910772" lon="10.652975517652266"><ele>204.0</ele><time>2026-04-11T05:19:47Z</time></trkpt><trkpt lat="43.27161517420886" lon="10.65307643390838"><ele>204.0</ele><time>2026-04-11T05:19:50.999Z</time></trkpt><trkpt lat="43.271641923474895" lon="10.65319058184674"><ele>204.0</ele><time>2026-04-11T05:19:54.999Z</time></trkpt><trkpt lat="43.27170489591054" lon="10.653236051840686"><ele>205.5</ele><time>2026-04-11T05:19:58.999Z</time></trkpt><trkpt lat="43.27178539016829" lon="10.653259298130155"><ele>207.0</ele><time>2026-04-11T05:20:02.999Z</time></trkpt><trkpt lat="43.271849303251685" lon="10.653242565025733"><ele>208.5</ele><time>2026-04-11T05:20:05.999Z</time></trkpt><trkpt lat="43.271929987475104" lon="10.65320881385264"><ele>210.0</ele><time>2026-04-11T05:20:09.999Z</time></trkpt><trkpt lat="43.272018311464" lon="10.653188152864102"><ele>211.5</ele><time>2026-04-11T05:20:13.999Z</time></trkpt><trkpt lat="43.27208432137745" lon="10.65315911504797"><ele>213.0</ele><time>2026-04-11T05:20:16.999Z</time></trkpt><trkpt lat="43.27214510554481" lon="10.653119180820694"><ele>213.0</ele><time>2026-04-11T05:20:19.999Z</time></trkpt><trkpt lat="43.27220318556909" lon="10.653048263464962"><ele>213.0</ele><time>2026-04-11T05:20:23.999Z</time></trkpt><trkpt lat="43.272249205315894" lon="10.652980294429112"><ele>213.0</ele><time>2026-04-11T05:20:27.999Z</time></trkpt><trkpt lat="43.27230327199257" lon="10.652893944174478"><ele>213.0</ele><time>2026-04-11T05:20:31.999Z</time></trkpt><trkpt lat="43.272365311754925" lon="10.652826973180042"><ele>213.0</ele><time>2026-04-11T05:20:35.999Z</time></trkpt><trkpt lat="43.27244106030604" lon="10.652778558037726"><ele>213.0</ele><time>2026-04-11T05:20:39.999Z</time></trkpt><trkpt lat="43.272511813854436" lon="10.652751373239324"><ele>213.7142857142857</ele><time>2026-04-11T05:20:43.999Z</time></trkpt><trkpt lat="43.272589573528684" lon="10.652727606999917"><ele>214.42857142857142</ele><time>2026-04-11T05:20:48.999Z</time></trkpt><trkpt lat="43.27266911944195" lon="10.652717793749405"><ele>215.14285714285714</ele><time>2026-04-11T05:20:53.999Z</time></trkpt><trkpt lat="43.27274230581062" lon="10.652726828170607"><ele>215.85714285714283</ele><time>2026-04-11T05:20:57.999Z</time></trkpt><trkpt lat="43.27280902029456" lon="10.652772261154528"><ele>216.57142857142858</ele><time>2026-04-11T05:21:02Z</time></trkpt><trkpt lat="43.27285702634924" lon="10.652835203137892"><ele>217.28571428571428</ele><time>2026-04-11T05:21:06Z</time></trkpt><trkpt lat="43.27289497081251" lon="10.652917120307626"><ele>218.0</ele><time>2026-04-11T05:21:10Z</time></trkpt><trkpt lat="43.27292678371234" lon="10.653007760075912"><ele>218.0</ele><time>2026-04-11T05:21:15Z</time></trkpt><trkpt lat="43.272962206895976" lon="10.653095110517473"><ele>218.0</ele><time>2026-04-11T05:21:20Z</time></trkpt><trkpt lat="43.27299031341628" lon="10.653180741763578"><ele>218.0</ele><time>2026-04-11T05:21:25Z</time></trkpt><trkpt lat="43.27302565138914" lon="10.653272601329252"><ele>218.0</ele><time>2026-04-11T05:21:31Z</time></trkpt><trkpt lat="43.27305745838042" lon="10.65336332127009"><ele>218.0</ele><time>2026-04-11T05:21:37Z</time></trkpt><trkpt lat="43.27307426349422" lon="10.653462491937814"><ele>218.0</ele><time>2026-04-11T05:21:43Z</time></trkpt><trkpt lat="43.273095831744506" lon="10.653551556555676"><ele>218.0</ele><time>2026-04-11T05:21:47.999Z</time></trkpt><trkpt lat="43.27310066577338" lon="10.653638341070721"><ele>220.85714285714286</ele><time>2026-04-11T05:21:52.999Z</time></trkpt><trkpt lat="43.27312755758034" lon="10.653724201090293"><ele>223.71428571428572</ele><time>2026-04-11T05:21:57.999Z</time></trkpt><trkpt lat="43.27316619180584" lon="10.653798689293964"><ele>226.57142857142856</ele><time>2026-04-11T05:22:02.999Z</time></trkpt><trkpt lat="43.27322113398542" lon="10.653860159964744"><ele>229.42857142857144</ele><time>2026-04-11T05:22:08.999Z</time></trkpt><trkpt lat="43.27327098276563" lon="10.653915239000684"><ele>232.28571428571428</ele><time>2026-04-11T05:22:13.999Z</time></trkpt><trkpt lat="43.27333475719782" lon="10.653974418133947"><ele>235.14285714285714</ele><time>2026-04-11T05:22:19.999Z</time></trkpt><trkpt lat="43.27339039512327" lon="10.654034019592748"><ele>238.0</ele><time>2026-04-11T05:22:24.999Z</time></trkpt><trkpt lat="43.27343330637482" lon="10.654101080050289"><ele>238.0</ele><time>2026-04-11T05:22:29.999Z</time></trkpt><trkpt lat="43.27348449404795" lon="10.654156839730407"><ele>238.0</ele><time>2026-04-11T05:22:34.999Z</time></trkpt><trkpt lat="43.273556048298474" lon="10.654172007956477"><ele>238.0</ele><time>2026-04-11T05:22:40.999Z</time></trkpt><trkpt lat="43.27361474290853" lon="10.654214054382535"><ele>238.0</ele><time>2026-04-11T05:22:46.999Z</time></trkpt><trkpt lat="43.273680816762536" lon="10.654246736242056"><ele>238.0</ele><time>2026-04-11T05:22:52.999Z</time></trkpt><trkpt lat="43.27373888249827" lon="10.654284076325713"><ele>238.0</ele><time>2026-04-11T05:22:57.999Z</time></trkpt><trkpt lat="43.27379645992921" lon="10.654327948145651"><ele>238.0</ele><time>2026-04-11T05:23:02.999Z</time></trkpt><trkpt lat="43.27384907347038" lon="10.654375753689836"><ele>238.0</ele><time>2026-04-11T05:23:07.999Z</time></trkpt><trkpt lat="43.27390641102097" lon="10.65443766695389"><ele>238.0</ele><time>2026-04-11T05:23:14Z</time></trkpt><trkpt lat="43.27394032775543" lon="10.65452825551414"><ele>238.0</ele><time>2026-04-11T05:23:20Z</time></trkpt><trkpt lat="43.273933333889914" lon="10.654618407960491"><ele>238.0</ele><time>2026-04-11T05:23:25Z</time></trkpt><trkpt lat="43.2738877155659" lon="10.654694775115734"><ele>238.0</ele><time>2026-04-11T05:23:31Z</time></trkpt><trkpt lat="43.273824535520475" lon="10.654728978414163"><ele>238.0</ele><time>2026-04-11T05:23:36Z</time></trkpt><trkpt lat="43.273756521916326" lon="10.654763483628836"><ele>238.0</ele><time>2026-04-11T05:23:41Z</time></trkpt><trkpt lat="43.27368183087617" lon="10.654797173928534"><ele>240.42857142857144</ele><time>2026-04-11T05:23:46Z</time></trkpt><trkpt lat="43.27361246587066" lon="10.65483261109972"><ele>242.85714285714286</ele><time>2026-04-11T05:23:51Z</time></trkpt><trkpt lat="43.27353464234012" lon="10.65487662225124"><ele>245.28571428571428</ele><time>2026-04-11T05:23:55Z</time></trkpt><trkpt lat="43.27346277917426" lon="10.654913274144135"><ele>247.71428571428572</ele><time>2026-04-11T05:23:58.999Z</time></trkpt><trkpt lat="43.273402343570794" lon="10.654951864898084"><ele>250.14285714285717</ele><time>2026-04-11T05:24:02.999Z</time></trkpt><trkpt lat="43.27334134642394" lon="10.654973356717127"><ele>252.57142857142858</ele><time>2026-04-11T05:24:06.999Z</time></trkpt><trkpt lat="43.273280206959264" lon="10.655005293643097"><ele>255.0</ele><time>2026-04-11T05:24:09.999Z</time></trkpt><trkpt lat="43.2732205432343" lon="10.655045525692756"><ele>255.0</ele><time>2026-04-11T05:24:13.999Z</time></trkpt><trkpt lat="43.273158652036486" lon="10.655097243428342"><ele>255.00000000000003</ele><time>2026-04-11T05:24:17.999Z</time></trkpt><trkpt lat="43.27313092895666" lon="10.65518102594797"><ele>255.0</ele><time>2026-04-11T05:24:21.999Z</time></trkpt><trkpt lat="43.27311668541576" lon="10.655273283088246"><ele>255.0</ele><time>2026-04-11T05:24:26.999Z</time></trkpt><trkpt lat="43.27310189691822" lon="10.655368103221866"><ele>255.00000000000003</ele><time>2026-04-11T05:24:31.999Z</time></trkpt><trkpt lat="43.273089036896586" lon="10.655468894413712"><ele>255.0</ele><time>2026-04-11T05:24:36.999Z</time></trkpt><trkpt lat="43.27307428007393" lon="10.655557541344086"><ele>255.0</ele><time>2026-04-11T05:24:40.999Z</time></trkpt><trkpt lat="43.273046929793885" lon="10.655655799563682"><ele>255.85714285714286</ele><time>2026-04-11T05:24:45.999Z</time></trkpt><trkpt lat="43.27301982036989" lon="10.655749783696594"><ele>256.7142857142857</ele><time>2026-04-11T05:24:50.999Z</time></trkpt><trkpt lat="43.27298736394296" lon="10.655829609189686"><ele>257.57142857142856</ele><time>2026-04-11T05:24:55.999Z</time></trkpt><trkpt lat="43.272939921349966" lon="10.655896229298936"><ele>258.42857142857144</ele><time>2026-04-11T05:24:59.999Z</time></trkpt><trkpt lat="43.27288434697627" lon="10.655947154967231"><ele>259.2857142857143</ele><time>2026-04-11T05:25:03.999Z</time></trkpt><trkpt lat="43.27282257546176" lon="10.655980966737776"><ele>260.14285714285717</ele><time>2026-04-11T05:25:06.999Z</time></trkpt><trkpt lat="43.272748136579665" lon="10.656014805288489"><ele>261.0</ele><time>2026-04-11T05:25:11Z</time></trkpt><trkpt lat="43.27267439543767" lon="10.656067928997153"><ele>262.8571428571429</ele><time>2026-04-11T05:25:15Z</time></trkpt><trkpt lat="43.27263222348375" lon="10.656150646492364"><ele>264.7142857142857</ele><time>2026-04-11T05:25:18Z</time></trkpt><trkpt lat="43.27261047171748" lon="10.656256816929046"><ele>266.57142857142856</ele><time>2026-04-11T05:25:22Z</time></trkpt><trkpt lat="43.27259712238814" lon="10.6563523746277"><ele>268.42857142857144</ele><time>2026-04-11T05:25:26Z</time></trkpt><trkpt lat="43.272589090321155" lon="10.656449632006353"><ele>270.2857142857143</ele><time>2026-04-11T05:25:30Z</time></trkpt><trkpt lat="43.2725777101407" lon="10.656549065406056"><ele>272.14285714285717</ele><time>2026-04-11T05:25:33Z</time></trkpt><trkpt lat="43.27256173236513" lon="10.656640570966523"><ele>274.0</ele><time>2026-04-11T05:25:37Z</time></trkpt><trkpt lat="43.27253944146188" lon="10.6567648848045"><ele>274.00000000000006</ele><time>2026-04-11T05:25:41Z</time></trkpt><trkpt lat="43.272519316631815" lon="10.656862865752991"><ele>274.0</ele><time>2026-04-11T05:25:45Z</time></trkpt><trkpt lat="43.27248664552155" lon="10.65695705934178"><ele>274.0</ele><time>2026-04-11T05:25:50Z</time></trkpt><trkpt lat="43.272467019236366" lon="10.657040016084297"><ele>274.0</ele><time>2026-04-11T05:25:54Z</time></trkpt><trkpt lat="43.27246727994515" lon="10.657127477727258"><ele>274.0</ele><time>2026-04-11T05:25:58Z</time></trkpt><trkpt lat="43.27245077985225" lon="10.657234143551413"><ele>274.00000000000006</ele><time>2026-04-11T05:26:03Z</time></trkpt><trkpt lat="43.272446588439564" lon="10.657328357412425"><ele>274.0</ele><time>2026-04-11T05:26:07Z</time></trkpt><trkpt lat="43.272448833694455" lon="10.65741876404449"><ele>275.5</ele><time>2026-04-11T05:26:11Z</time></trkpt><trkpt lat="43.272449286567415" lon="10.657515378746595"><ele>277.0</ele><time>2026-04-11T05:26:15Z</time></trkpt><trkpt lat="43.27244895174997" lon="10.657620570618649"><ele>278.5</ele><time>2026-04-11T05:26:19.999Z</time></trkpt><trkpt lat="43.27245916957979" lon="10.65770943350752"><ele>280.0</ele><time>2026-04-11T05:26:23.999Z</time></trkpt><trkpt lat="43.27246024073418" lon="10.657818825602494"><ele>281.5</ele><time>2026-04-11T05:26:28.999Z</time></trkpt><trkpt lat="43.27247248648548" lon="10.657949818438333"><ele>283.0</ele><time>2026-04-11T05:26:32.999Z</time></trkpt><trkpt lat="43.272482589776935" lon="10.658059555683613"><ele>283.2857142857143</ele><time>2026-04-11T05:26:35.999Z</time></trkpt><trkpt lat="43.27246931475038" lon="10.658170590027712"><ele>283.5714285714286</ele><time>2026-04-11T05:26:38.999Z</time></trkpt><trkpt lat="43.27250388596711" lon="10.658192962840616"><ele>283.8571428571429</ele><time>2026-04-11T05:27:21.998Z</time></trkpt><trkpt lat="43.27247496445219" lon="10.658291393031902"><ele>284.14285714285717</ele><time>2026-04-11T05:27:26.999Z</time></trkpt><trkpt lat="43.27254361734677" lon="10.658302128762724"><ele>284.42857142857144</ele><time>2026-04-11T05:27:29.999Z</time></trkpt><trkpt lat="43.27261453071114" lon="10.658358638128526"><ele>284.7142857142857</ele><time>2026-04-11T05:27:31.999Z</time></trkpt><trkpt lat="43.27267943752753" lon="10.658433717811832"><ele>285.0</ele><time>2026-04-11T05:27:33.999Z</time></trkpt><trkpt lat="43.27274160006526" lon="10.658448928163422"><ele>285.0</ele><time>2026-04-11T05:27:36.999Z</time></trkpt><trkpt lat="43.27274078528645" lon="10.658547372398623"><ele>285.0</ele><time>2026-04-11T05:27:41.999Z</time></trkpt><trkpt lat="43.27267177472057" lon="10.658536585751015"><ele>285.0</ele><time>2026-04-11T05:27:44.999Z</time></trkpt><trkpt lat="43.27263375570008" lon="10.658444275209517"><ele>285.0</ele><time>2026-04-11T05:27:47.999Z</time></trkpt><trkpt lat="43.27256169184964" lon="10.658381395600925"><ele>285.0</ele><time>2026-04-11T05:27:50.999Z</time></trkpt><trkpt lat="43.272499032941646" lon="10.65833551381221"><ele>285.0</ele><time>2026-04-11T05:27:53.999Z</time></trkpt><trkpt lat="43.272421209967625" lon="10.65833082072068"><ele>285.0</ele><time>2026-04-11T05:27:57.999Z</time></trkpt><trkpt lat="43.272387254106185" lon="10.65840854513747"><ele>285.0</ele><time>2026-04-11T05:28:00.999Z</time></trkpt><trkpt lat="43.27236157512934" lon="10.658500844084744"><ele>285.0</ele><time>2026-04-11T05:28:03.999Z</time></trkpt><trkpt lat="43.27234234150749" lon="10.658586816775214"><ele>285.0</ele><time>2026-04-11T05:28:06.999Z</time></trkpt><trkpt lat="43.272337661711994" lon="10.65868616798713"><ele>285.0</ele><time>2026-04-11T05:28:09.999Z</time></trkpt><trkpt lat="43.272311784459504" lon="10.658781777326109"><ele>285.0</ele><time>2026-04-11T05:28:12.999Z</time></trkpt><trkpt lat="43.27227557977461" lon="10.658886472244056"><ele>285.0</ele><time>2026-04-11T05:28:15.999Z</time></trkpt><trkpt lat="43.27221819669642" lon="10.658967231481164"><ele>286.0</ele><time>2026-04-11T05:28:18.999Z</time></trkpt><trkpt lat="43.27213912841336" lon="10.659014104396016"><ele>287.0</ele><time>2026-04-11T05:28:21.999Z</time></trkpt><trkpt lat="43.27205160347565" lon="10.659050127109614"><ele>288.0</ele><time>2026-04-11T05:28:24.999Z</time></trkpt><trkpt lat="43.27197499155024" lon="10.659088893845409"><ele>289.0</ele><time>2026-04-11T05:28:27.999Z</time></trkpt><trkpt lat="43.27189348417561" lon="10.659118833208247"><ele>290.0</ele><time>2026-04-11T05:28:30.999Z</time></trkpt><trkpt lat="43.27180897822186" lon="10.659156840782208"><ele>291.0</ele><time>2026-04-11T05:28:34.999Z</time></trkpt><trkpt lat="43.27173491910944" lon="10.659199185787251"><ele>291.0</ele><time>2026-04-11T05:28:37.999Z</time></trkpt><trkpt lat="43.27166793373001" lon="10.659227318848579"><ele>291.0</ele><time>2026-04-11T05:28:40.999Z</time></trkpt><trkpt lat="43.27160283694437" lon="10.659240081182508"><ele>291.0</ele><time>2026-04-11T05:28:42.999Z</time></trkpt><trkpt lat="43.27153500565207" lon="10.659291839432287"><ele>291.0</ele><time>2026-04-11T05:28:44.999Z</time></trkpt><trkpt lat="43.27140410112549" lon="10.659343025519178"><ele>291.0</ele><time>2026-04-11T05:28:45.999Z</time></trkpt><trkpt lat="43.271337451321514" lon="10.659367720265557"><ele>291.0</ele><time>2026-04-11T05:28:47.999Z</time></trkpt><trkpt lat="43.27123692287786" lon="10.65940560131237"><ele>290.0</ele><time>2026-04-11T05:28:51.999Z</time></trkpt><trkpt lat="43.27115100172903" lon="10.659415853134469"><ele>289.0</ele><time>2026-04-11T05:28:53.999Z</time></trkpt><trkpt lat="43.27107180723125" lon="10.65943883277626"><ele>288.0</ele><time>2026-04-11T05:28:55.999Z</time></trkpt><trkpt lat="43.2709836154163" lon="10.659454974683761"><ele>287.0</ele><time>2026-04-11T05:28:57.999Z</time></trkpt><trkpt lat="43.27090393735197" lon="10.659476639876878"><ele>286.0</ele><time>2026-04-11T05:28:59.999Z</time></trkpt><trkpt lat="43.270821613355515" lon="10.659498744671778"><ele>285.0</ele><time>2026-04-11T05:29:01.999Z</time></trkpt><trkpt lat="43.27073511336068" lon="10.659515091618385"><ele>285.0</ele><time>2026-04-11T05:29:03.999Z</time></trkpt><trkpt lat="43.270651050457715" lon="10.659522975042334"><ele>285.0</ele><time>2026-04-11T05:29:05.999Z</time></trkpt><trkpt lat="43.27056225542697" lon="10.659532042645626"><ele>285.0</ele><time>2026-04-11T05:29:07.999Z</time></trkpt><trkpt lat="43.27047667812158" lon="10.659533036913894"><ele>285.0</ele><time>2026-04-11T05:29:09.999Z</time></trkpt><trkpt lat="43.27038432047758" lon="10.659534647389817"><ele>285.0</ele><time>2026-04-11T05:29:11.998Z</time></trkpt><trkpt lat="43.2702899715789" lon="10.659536680997379"><ele>285.0</ele><time>2026-04-11T05:29:13.998Z</time></trkpt><trkpt lat="43.270186790324544" lon="10.659527947858878"><ele>286.0</ele><time>2026-04-11T05:29:15.998Z</time></trkpt><trkpt lat="43.27007926089468" lon="10.659524696892905"><ele>287.0</ele><time>2026-04-11T05:29:17.998Z</time></trkpt><trkpt lat="43.26997220140814" lon="10.659518307860752"><ele>288.0</ele><time>2026-04-11T05:29:19.998Z</time></trkpt><trkpt lat="43.269873984335355" lon="10.659507908990282"><ele>289.0</ele><time>2026-04-11T05:29:21.998Z</time></trkpt><trkpt lat="43.26977960219817" lon="10.659510981347728"><ele>290.0</ele><time>2026-04-11T05:29:23.998Z</time></trkpt><trkpt lat="43.2697021311111" lon="10.659494016293472"><ele>290.33333333333337</ele><time>2026-04-11T05:29:25.998Z</time></trkpt><trkpt lat="43.26960927833305" lon="10.659465630037834"><ele>290.6666666666667</ele><time>2026-04-11T05:29:29Z</time></trkpt><trkpt lat="43.26953914649107" lon="10.659433319492846"><ele>291.0</ele><time>2026-04-11T05:29:31Z</time></trkpt><trkpt lat="43.26945479438753" lon="10.659413153374976"><ele>291.3333333333333</ele><time>2026-04-11T05:29:33Z</time></trkpt><trkpt lat="43.26936387254412" lon="10.659386013312885"><ele>291.66666666666663</ele><time>2026-04-11T05:29:35Z</time></trkpt><trkpt lat="43.26927587708502" lon="10.659368578627939"><ele>292.0</ele><time>2026-04-11T05:29:37Z</time></trkpt><trkpt lat="43.26918955548286" lon="10.659360959325888"><ele>292.0</ele><time>2026-04-11T05:29:39Z</time></trkpt><trkpt lat="43.269107696839775" lon="10.65937292565693"><ele>292.0</ele><time>2026-04-11T05:29:41Z</time></trkpt><trkpt lat="43.26902598912708" lon="10.659379766458862"><ele>292.0</ele><time>2026-04-11T05:29:43Z</time></trkpt><trkpt lat="43.26894053701309" lon="10.659395396927872"><ele>292.0</ele><time>2026-04-11T05:29:45Z</time></trkpt><trkpt lat="43.26885438424978" lon="10.659414185570052"><ele>292.0</ele><time>2026-04-11T05:29:47Z</time></trkpt><trkpt lat="43.26876848714344" lon="10.659429233030227"><ele>292.0</ele><time>2026-04-11T05:29:49Z</time></trkpt><trkpt lat="43.268677137995134" lon="10.659450536950192"><ele>295.0</ele><time>2026-04-11T05:29:51Z</time></trkpt><trkpt lat="43.26858196693949" lon="10.659475198943026"><ele>298.0</ele><time>2026-04-11T05:29:53Z</time></trkpt><trkpt lat="43.26849231883866" lon="10.659490774038623"><ele>301.0</ele><time>2026-04-11T05:29:54.999Z</time></trkpt><trkpt lat="43.268400129272145" lon="10.659487542595036"><ele>304.0</ele><time>2026-04-11T05:29:56.999Z</time></trkpt><trkpt lat="43.268308130133114" lon="10.659476158702732"><ele>307.0</ele><time>2026-04-11T05:29:58.999Z</time></trkpt><trkpt lat="43.26821827709709" lon="10.659457531708425"><ele>305.4</ele><time>2026-04-11T05:30:00.999Z</time></trkpt><trkpt lat="43.26814043916485" lon="10.659443375909708"><ele>303.79999999999995</ele><time>2026-04-11T05:30:02.999Z</time></trkpt><trkpt lat="43.26804450570268" lon="10.659436039217796"><ele>302.2</ele><time>2026-04-11T05:30:04.999Z</time></trkpt><trkpt lat="43.267943468567374" lon="10.659433383515962"><ele>300.59999999999997</ele><time>2026-04-11T05:30:06.999Z</time></trkpt><trkpt lat="43.26783792132982" lon="10.659432098191553"><ele>299.0</ele><time>2026-04-11T05:30:08.999Z</time></trkpt><trkpt lat="43.26773131249679" lon="10.659433962330715"><ele>299.0</ele><time>2026-04-11T05:30:10.999Z</time></trkpt><trkpt lat="43.26763808256756" lon="10.659437050759994"><ele>299.0</ele><time>2026-04-11T05:30:12.999Z</time></trkpt><trkpt lat="43.26754742366852" lon="10.659431262658735"><ele>299.0</ele><time>2026-04-11T05:30:14.999Z</time></trkpt><trkpt lat="43.26746397214167" lon="10.659429264020279"><ele>299.0</ele><time>2026-04-11T05:30:16.999Z</time></trkpt><trkpt lat="43.26738132869361" lon="10.659419867232012"><ele>299.0</ele><time>2026-04-11T05:30:18.999Z</time></trkpt><trkpt lat="43.267296283753176" lon="10.659394781487089"><ele>299.0</ele><time>2026-04-11T05:30:20.999Z</time></trkpt><trkpt lat="43.26721611208612" lon="10.659356097309924"><ele>300.6666666666667</ele><time>2026-04-11T05:30:22.999Z</time></trkpt><trkpt lat="43.26715017278427" lon="10.659314324621155"><ele>302.33333333333337</ele><time>2026-04-11T05:30:24.999Z</time></trkpt><trkpt lat="43.267091527717554" lon="10.65925882269059"><ele>304.0</ele><time>2026-04-11T05:30:27.999Z</time></trkpt><trkpt lat="43.267031499477824" lon="10.659185000773313"><ele>305.6666666666667</ele><time>2026-04-11T05:30:30.999Z</time></trkpt><trkpt lat="43.26696666327161" lon="10.659101680003484"><ele>307.3333333333333</ele><time>2026-04-11T05:30:33.999Z</time></trkpt><trkpt lat="43.266895724254645" lon="10.659041102648317"><ele>309.0</ele><time>2026-04-11T05:30:36.999Z</time></trkpt><trkpt lat="43.266835518118796" lon="10.658963853636811"><ele>309.0</ele><time>2026-04-11T05:30:39.999Z</time></trkpt><trkpt lat="43.26676215881392" lon="10.658904278927261"><ele>309.0</ele><time>2026-04-11T05:30:42.999Z</time></trkpt><trkpt lat="43.266684132472" lon="10.65884035505067"><ele>309.0</ele><time>2026-04-11T05:30:45.999Z</time></trkpt><trkpt lat="43.2666062021034" lon="10.658784358586233"><ele>309.0</ele><time>2026-04-11T05:30:48.999Z</time></trkpt><trkpt lat="43.26652650378666" lon="10.658734524045249"><ele>309.0</ele><time>2026-04-11T05:30:51.999Z</time></trkpt><trkpt lat="43.26644936036798" lon="10.65869094048721"><ele>309.0</ele><time>2026-04-11T05:30:54.999Z</time></trkpt><trkpt lat="43.26636439754421" lon="10.658634556905442"><ele>309.5</ele><time>2026-04-11T05:30:57.999Z</time></trkpt><trkpt lat="43.266287959961105" lon="10.658560902920781"><ele>310.0</ele><time>2026-04-11T05:31:00.999Z</time></trkpt><trkpt lat="43.26623365466888" lon="10.658504851275264"><ele>310.5</ele><time>2026-04-11T05:31:02.999Z</time></trkpt><trkpt lat="43.26618467766687" lon="10.658438468288068"><ele>311.0</ele><time>2026-04-11T05:31:05.999Z</time></trkpt><trkpt lat="43.2661339810015" lon="10.658380753160298"><ele>311.5</ele><time>2026-04-11T05:31:07.999Z</time></trkpt><trkpt lat="43.26607507618477" lon="10.658308200731899"><ele>312.0</ele><time>2026-04-11T05:31:10.999Z</time></trkpt><trkpt lat="43.26601002080937" lon="10.658250602023832"><ele>312.0</ele><time>2026-04-11T05:31:13.999Z</time></trkpt><trkpt lat="43.265942704610694" lon="10.658183460370653"><ele>312.0</ele><time>2026-04-11T05:31:16.999Z</time></trkpt><trkpt lat="43.26588607528695" lon="10.658127484666847"><ele>312.0</ele><time>2026-04-11T05:31:18.999Z</time></trkpt><trkpt lat="43.26584501034407" lon="10.658037726886583"><ele>312.0</ele><time>2026-04-11T05:31:21.999Z</time></trkpt><trkpt lat="43.26579566292944" lon="10.657941966747218"><ele>312.0</ele><time>2026-04-11T05:31:23.999Z</time></trkpt><trkpt lat="43.26575401698142" lon="10.657846240163126"><ele>312.0</ele><time>2026-04-11T05:31:25.999Z</time></trkpt><trkpt lat="43.265717727620995" lon="10.65776099334597"><ele>311.8333333333333</ele><time>2026-04-11T05:31:28.999Z</time></trkpt><trkpt lat="43.26566871947745" lon="10.657666198958566"><ele>311.6666666666667</ele><time>2026-04-11T05:31:31.999Z</time></trkpt><trkpt lat="43.26562811500389" lon="10.657585775777225"><ele>311.5</ele><time>2026-04-11T05:31:34Z</time></trkpt><trkpt lat="43.26557023574447" lon="10.65750470954617"><ele>311.33333333333337</ele><time>2026-04-11T05:31:37Z</time></trkpt><trkpt lat="43.265516539565475" lon="10.657430715565525"><ele>311.1666666666667</ele><time>2026-04-11T05:31:40Z</time></trkpt><trkpt lat="43.2654654135625" lon="10.657373433524974"><ele>311.0</ele><time>2026-04-11T05:31:43Z</time></trkpt><trkpt lat="43.26540711155435" lon="10.657309419820848"><ele>312.4285714285714</ele><time>2026-04-11T05:31:46Z</time></trkpt><trkpt lat="43.26534153089691" lon="10.657237326871254"><ele>313.8571428571429</ele><time>2026-04-11T05:31:50Z</time></trkpt><trkpt lat="43.26528399179798" lon="10.657197649513096"><ele>315.2857142857143</ele><time>2026-04-11T05:31:53Z</time></trkpt><trkpt lat="43.26522851138917" lon="10.657154819044651"><ele>316.71428571428567</ele><time>2026-04-11T05:31:56Z</time></trkpt><trkpt lat="43.265156208612915" lon="10.65712011977832"><ele>318.1428571428571</ele><time>2026-04-11T05:32:00Z</time></trkpt><trkpt lat="43.265097540886465" lon="10.657076239799295"><ele>319.57142857142856</ele><time>2026-04-11T05:32:04Z</time></trkpt><trkpt lat="43.26502912715423" lon="10.657022044355923"><ele>321.0</ele><time>2026-04-11T05:32:09Z</time></trkpt><trkpt lat="43.26497546116158" lon="10.65695879043576"><ele>320.85714285714283</ele><time>2026-04-11T05:32:13Z</time></trkpt><trkpt lat="43.26491981464116" lon="10.656882679195125"><ele>320.7142857142857</ele><time>2026-04-11T05:32:17Z</time></trkpt><trkpt lat="43.26487434845003" lon="10.656794897089362"><ele>320.57142857142856</ele><time>2026-04-11T05:32:20Z</time></trkpt><trkpt lat="43.26483025892585" lon="10.656724039369486"><ele>320.42857142857144</ele><time>2026-04-11T05:32:22Z</time></trkpt><trkpt lat="43.2647888625491" lon="10.65665315493752"><ele>320.2857142857143</ele><time>2026-04-11T05:32:24Z</time></trkpt><trkpt lat="43.26474543404831" lon="10.656583326422018"><ele>320.1428571428571</ele><time>2026-04-11T05:32:26Z</time></trkpt><trkpt lat="43.26469386807403" lon="10.656524590128917"><ele>320.0</ele><time>2026-04-11T05:32:28Z</time></trkpt><trkpt lat="43.26464442838871" lon="10.656461980675102"><ele>320.6666666666667</ele><time>2026-04-11T05:32:30Z</time></trkpt><trkpt lat="43.26457823769404" lon="10.656368110671409"><ele>321.33333333333337</ele><time>2026-04-11T05:32:32.999Z</time></trkpt><trkpt lat="43.26451489630257" lon="10.656282689361221"><ele>322.0</ele><time>2026-04-11T05:32:35.999Z</time></trkpt><trkpt lat="43.26445235798011" lon="10.65618920457438"><ele>322.6666666666667</ele><time>2026-04-11T05:32:38.999Z</time></trkpt><trkpt lat="43.26438301872995" lon="10.656108450985784"><ele>323.3333333333333</ele><time>2026-04-11T05:32:41.999Z</time></trkpt><trkpt lat="43.264327887885116" lon="10.656045643735903"><ele>324.0</ele><time>2026-04-11T05:32:44.999Z</time></trkpt><trkpt lat="43.2642810393004" lon="10.655980148007101"><ele>324.0</ele><time>2026-04-11T05:32:46.999Z</time></trkpt><trkpt lat="43.26421684436739" lon="10.655911150473003"><ele>324.0</ele><time>2026-04-11T05:32:48.999Z</time></trkpt><trkpt lat="43.2641552973887" lon="10.655851009452494"><ele>324.0</ele><time>2026-04-11T05:32:50.999Z</time></trkpt><trkpt lat="43.26408396170155" lon="10.655791990789355"><ele>324.0</ele><time>2026-04-11T05:32:52.999Z</time></trkpt><trkpt lat="43.26400235757418" lon="10.6557387447845"><ele>324.0</ele><time>2026-04-11T05:32:54.999Z</time></trkpt><trkpt lat="43.26393060784417" lon="10.655692303668285"><ele>324.0</ele><time>2026-04-11T05:32:55.999Z</time></trkpt><trkpt lat="43.26383851468801" lon="10.655633180131396"><ele>324.5</ele><time>2026-04-11T05:32:57.999Z</time></trkpt><trkpt lat="43.26376821334039" lon="10.655566520610856"><ele>325.0</ele><time>2026-04-11T05:32:59.999Z</time></trkpt><trkpt lat="43.26369477914907" lon="10.655513990496218"><ele>325.5</ele><time>2026-04-11T05:33:01.999Z</time></trkpt><trkpt lat="43.26363198996004" lon="10.655450618713738"><ele>326.0</ele><time>2026-04-11T05:33:03.999Z</time></trkpt><trkpt lat="43.26355885413008" lon="10.655370565007381"><ele>326.5</ele><time>2026-04-11T05:33:05.999Z</time></trkpt><trkpt lat="43.26349125631528" lon="10.655275899293853"><ele>327.0</ele><time>2026-04-11T05:33:07.999Z</time></trkpt><trkpt lat="43.26343429638602" lon="10.655169629513171"><ele>327.0</ele><time>2026-04-11T05:33:09.999Z</time></trkpt><trkpt lat="43.263380684166734" lon="10.655061461564733"><ele>327.0</ele><time>2026-04-11T05:33:11.999Z</time></trkpt><trkpt lat="43.263328245664844" lon="10.654963057089184"><ele>327.0</ele><time>2026-04-11T05:33:13.999Z</time></trkpt><trkpt lat="43.263281648352454" lon="10.654868085600059"><ele>327.0</ele><time>2026-04-11T05:33:15.999Z</time></trkpt><trkpt lat="43.263242109992746" lon="10.654758902925913"><ele>327.0</ele><time>2026-04-11T05:33:17.999Z</time></trkpt><trkpt lat="43.26321932907068" lon="10.654669034361246"><ele>327.0</ele><time>2026-04-11T05:33:19.999Z</time></trkpt><trkpt lat="43.26319035119919" lon="10.654563139478771"><ele>326.20000000000005</ele><time>2026-04-11T05:33:21.999Z</time></trkpt><trkpt lat="43.26316196876381" lon="10.654441343942988"><ele>325.4</ele><time>2026-04-11T05:33:23.999Z</time></trkpt><trkpt lat="43.263113176620344" lon="10.654296846286803"><ele>324.6</ele><time>2026-04-11T05:33:25.999Z</time></trkpt><trkpt lat="43.26309404300616" lon="10.654130932420937"><ele>323.79999999999995</ele><time>2026-04-11T05:33:27.999Z</time></trkpt><trkpt lat="43.26308958438057" lon="10.653974207524696"><ele>323.0</ele><time>2026-04-11T05:33:29.999Z</time></trkpt><trkpt lat="43.26309590112233" lon="10.6538225292304"><ele>325.5</ele><time>2026-04-11T05:33:31.999Z</time></trkpt><trkpt lat="43.26309933482353" lon="10.65369379762858"><ele>328.0</ele><time>2026-04-11T05:33:33.999Z</time></trkpt><trkpt lat="43.2630952299589" lon="10.653586637877131"><ele>330.5</ele><time>2026-04-11T05:33:35.999Z</time></trkpt><trkpt lat="43.263055857523995" lon="10.653486058753257"><ele>333.0</ele><time>2026-04-11T05:33:38.999Z</time></trkpt><trkpt lat="43.263002416750055" lon="10.653401402305484"><ele>335.5</ele><time>2026-04-11T05:33:42Z</time></trkpt><trkpt lat="43.26294547956033" lon="10.653338946110177"><ele>338.0</ele><time>2026-04-11T05:33:45Z</time></trkpt><trkpt lat="43.262891246876514" lon="10.653284264264263"><ele>338.0</ele><time>2026-04-11T05:33:48Z</time></trkpt><trkpt lat="43.26284501057252" lon="10.653224671204502"><ele>338.0</ele><time>2026-04-11T05:33:51Z</time></trkpt><trkpt lat="43.26279485145659" lon="10.65316909043929"><ele>338.0</ele><time>2026-04-11T05:33:54Z</time></trkpt><trkpt lat="43.26273057614518" lon="10.653128411292418"><ele>338.0</ele><time>2026-04-11T05:33:57Z</time></trkpt><trkpt lat="43.262661699688465" lon="10.653099562424654"><ele>338.0</ele><time>2026-04-11T05:34:01Z</time></trkpt><trkpt lat="43.262606014214406" lon="10.653053031917056"><ele>338.0</ele><time>2026-04-11T05:34:04Z</time></trkpt><trkpt lat="43.26255148634832" lon="10.653003990591912"><ele>338.0</ele><time>2026-04-11T05:34:07Z</time></trkpt><trkpt lat="43.262503590431756" lon="10.652924241924158"><ele>338.0</ele><time>2026-04-11T05:34:10Z</time></trkpt><trkpt lat="43.262474814828906" lon="10.652826294805436"><ele>338.0</ele><time>2026-04-11T05:34:13Z</time></trkpt><trkpt lat="43.26246062898256" lon="10.652721409745917"><ele>338.0</ele><time>2026-04-11T05:34:16.001Z</time></trkpt><trkpt lat="43.26244287667723" lon="10.652609067324036"><ele>338.0</ele><time>2026-04-11T05:34:19.001Z</time></trkpt><trkpt lat="43.26241242324284" lon="10.652529584316246"><ele>338.0</ele><time>2026-04-11T05:34:21.001Z</time></trkpt><trkpt lat="43.26235035832499" lon="10.652447318411058"><ele>338.0</ele><time>2026-04-11T05:34:24.001Z</time></trkpt><trkpt lat="43.26228384311337" lon="10.652398424019493"><ele>339.1666666666667</ele><time>2026-04-11T05:34:26.001Z</time></trkpt><trkpt lat="43.262199542507965" lon="10.652371345333895"><ele>340.33333333333337</ele><time>2026-04-11T05:34:29.001Z</time></trkpt><trkpt lat="43.26213072257728" lon="10.652347107518661"><ele>341.5</ele><time>2026-04-11T05:34:32.001Z</time></trkpt><trkpt lat="43.262057773612405" lon="10.652337711917275"><ele>342.6666666666667</ele><time>2026-04-11T05:34:35.001Z</time></trkpt><trkpt lat="43.26198126576995" lon="10.652334231562387"><ele>343.8333333333333</ele><time>2026-04-11T05:34:38Z</time></trkpt><trkpt lat="43.26190387669227" lon="10.652317193131495"><ele>345.0</ele><time>2026-04-11T05:34:41Z</time></trkpt><trkpt lat="43.26182573364199" lon="10.652287240958326"><ele>345.0</ele><time>2026-04-11T05:34:44Z</time></trkpt><trkpt lat="43.26174832425058" lon="10.652262320275746"><ele>345.0</ele><time>2026-04-11T05:34:47Z</time></trkpt><trkpt lat="43.26167582731618" lon="10.65222758460099"><ele>345.0</ele><time>2026-04-11T05:34:51Z</time></trkpt><trkpt lat="43.26161421738873" lon="10.652195894277295"><ele>345.0</ele><time>2026-04-11T05:34:54Z</time></trkpt><trkpt lat="43.261550106591045" lon="10.652154609811328"><ele>345.0</ele><time>2026-04-11T05:34:57Z</time></trkpt><trkpt lat="43.26148617051343" lon="10.652116291958075"><ele>345.0</ele><time>2026-04-11T05:35:01Z</time></trkpt><trkpt lat="43.26141036718451" lon="10.652054261864507"><ele>346.3333333333333</ele><time>2026-04-11T05:35:05Z</time></trkpt><trkpt lat="43.26135398392931" lon="10.651988772983483"><ele>347.6666666666667</ele><time>2026-04-11T05:35:09Z</time></trkpt><trkpt lat="43.261308816191026" lon="10.651925565270654"><ele>349.0</ele><time>2026-04-11T05:35:12Z</time></trkpt><trkpt lat="43.261262362229346" lon="10.651846574119341"><ele>350.33333333333337</ele><time>2026-04-11T05:35:15Z</time></trkpt><trkpt lat="43.26122281431288" lon="10.651733363770784"><ele>351.6666666666667</ele><time>2026-04-11T05:35:18Z</time></trkpt><trkpt lat="43.26118684437885" lon="10.65163034477518"><ele>353.0</ele><time>2026-04-11T05:35:21Z</time></trkpt><trkpt lat="43.26115591478235" lon="10.651526824953683"><ele>353.0</ele><time>2026-04-11T05:35:23Z</time></trkpt><trkpt lat="43.26112422857052" lon="10.651428934386493"><ele>353.0</ele><time>2026-04-11T05:35:26Z</time></trkpt><trkpt lat="43.261083533920115" lon="10.651329589173914"><ele>353.0</ele><time>2026-04-11T05:35:29Z</time></trkpt><trkpt lat="43.261045665511446" lon="10.651256840639547"><ele>353.0</ele><time>2026-04-11T05:35:31Z</time></trkpt><trkpt lat="43.26098822754208" lon="10.651177750727056"><ele>353.0</ele><time>2026-04-11T05:35:34Z</time></trkpt><trkpt lat="43.26092976640759" lon="10.651110047656173"><ele>353.0</ele><time>2026-04-11T05:35:36Z</time></trkpt><trkpt lat="43.26084772030263" lon="10.65105243245607"><ele>352.4285714285714</ele><time>2026-04-11T05:35:39Z</time></trkpt><trkpt lat="43.260781787075246" lon="10.65100465546199"><ele>351.8571428571429</ele><time>2026-04-11T05:35:42Z</time></trkpt><trkpt lat="43.26073051865295" lon="10.65095002117831"><ele>351.2857142857143</ele><time>2026-04-11T05:35:44Z</time></trkpt><trkpt lat="43.26068150053446" lon="10.650887669095047"><ele>350.71428571428567</ele><time>2026-04-11T05:35:45.001Z</time></trkpt><trkpt lat="43.260647975630064" lon="10.65080658384775"><ele>350.1428571428571</ele><time>2026-04-11T05:35:48.001Z</time></trkpt><trkpt lat="43.26060812060948" lon="10.650711755843856"><ele>349.57142857142856</ele><time>2026-04-11T05:35:49.001Z</time></trkpt><trkpt lat="43.26056735738529" lon="10.650617372133256"><ele>349.0</ele><time>2026-04-11T05:35:51.001Z</time></trkpt><trkpt lat="43.2604914904183" lon="10.650570033055189"><ele>349.0</ele><time>2026-04-11T05:35:53.001Z</time></trkpt><trkpt lat="43.26040040002319" lon="10.65061149220605"><ele>349.0</ele><time>2026-04-11T05:35:55.001Z</time></trkpt><trkpt lat="43.260321288273175" lon="10.650684360682506"><ele>349.0</ele><time>2026-04-11T05:35:57.001Z</time></trkpt><trkpt lat="43.2602277627022" lon="10.650755933979703"><ele>349.0</ele><time>2026-04-11T05:35:59.001Z</time></trkpt><trkpt lat="43.260124855648385" lon="10.650792745851403"><ele>349.0</ele><time>2026-04-11T05:36:01.001Z</time></trkpt><trkpt lat="43.2600164418915" lon="10.650797539795137"><ele>349.0</ele><time>2026-04-11T05:36:03.001Z</time></trkpt><trkpt lat="43.25990917514199" lon="10.650783571145743"><ele>349.0</ele><time>2026-04-11T05:36:05.001Z</time></trkpt><trkpt lat="43.2598041262128" lon="10.650754572401983"><ele>349.0</ele><time>2026-04-11T05:36:07.001Z</time></trkpt><trkpt lat="43.25969709206166" lon="10.650720927886336"><ele>349.0</ele><time>2026-04-11T05:36:09.001Z</time></trkpt><trkpt lat="43.25959442663216" lon="10.650692437491427"><ele>349.0</ele><time>2026-04-11T05:36:11.001Z</time></trkpt><trkpt lat="43.25949761291314" lon="10.65069501584373"><ele>345.75</ele><time>2026-04-11T05:36:13.001Z</time></trkpt><trkpt lat="43.259411319143275" lon="10.650762926555334"><ele>342.5</ele><time>2026-04-11T05:36:15.001Z</time></trkpt><trkpt lat="43.259350019751125" lon="10.650880558068103"><ele>339.25</ele><time>2026-04-11T05:36:17.001Z</time></trkpt><trkpt lat="43.25933426445373" lon="10.651106568163957"><ele>336.0</ele><time>2026-04-11T05:36:20.001Z</time></trkpt><trkpt lat="43.25937081367836" lon="10.65127601783673"><ele>335.8333333333333</ele><time>2026-04-11T05:36:22.001Z</time></trkpt><trkpt lat="43.259394678040486" lon="10.651374182341215"><ele>335.6666666666667</ele><time>2026-04-11T05:36:23.001Z</time></trkpt><trkpt lat="43.259420340303805" lon="10.651472447197543"><ele>335.5</ele><time>2026-04-11T05:36:24.001Z</time></trkpt><trkpt lat="43.259439950822006" lon="10.651574860906951"><ele>335.33333333333337</ele><time>2026-04-11T05:36:25.001Z</time></trkpt><trkpt lat="43.259455451399674" lon="10.651693091963157"><ele>335.1666666666667</ele><time>2026-04-11T05:36:26.001Z</time></trkpt><trkpt lat="43.25946023378183" lon="10.651817435902853"><ele>335.0</ele><time>2026-04-11T05:36:27.001Z</time></trkpt><trkpt lat="43.25944631010919" lon="10.65194183681271"><ele>334.8</ele><time>2026-04-11T05:36:28.001Z</time></trkpt><trkpt lat="43.25940898614709" lon="10.65205225559892"><ele>334.6</ele><time>2026-04-11T05:36:29.001Z</time></trkpt><trkpt lat="43.259353368442326" lon="10.652145934835607"><ele>334.4</ele><time>2026-04-11T05:36:30.001Z</time></trkpt><trkpt lat="43.25929241351705" lon="10.652235350414875"><ele>334.2</ele><time>2026-04-11T05:36:31.001Z</time></trkpt><trkpt lat="43.259244896697695" lon="10.65231828919911"><ele>334.0</ele><time>2026-04-11T05:36:32.001Z</time></trkpt><trkpt lat="43.25918908353188" lon="10.652468029028375"><ele>334.0</ele><time>2026-04-11T05:36:34.001Z</time></trkpt><trkpt lat="43.259190767745416" lon="10.652565103295792"><ele>334.0</ele><time>2026-04-11T05:36:35.001Z</time></trkpt><trkpt lat="43.25920561557888" lon="10.65265935135668"><ele>334.0</ele><time>2026-04-11T05:36:36Z</time></trkpt><trkpt lat="43.25923456556536" lon="10.652754010292481"><ele>334.0</ele><time>2026-04-11T05:36:37Z</time></trkpt><trkpt lat="43.25926429484966" lon="10.652851568677633"><ele>334.0</ele><time>2026-04-11T05:36:38Z</time></trkpt><trkpt lat="43.25932428013437" lon="10.652941300437629"><ele>334.0</ele><time>2026-04-11T05:36:39Z</time></trkpt><trkpt lat="43.259362352519624" lon="10.65303107108085"><ele>332.5</ele><time>2026-04-11T05:36:40Z</time></trkpt><trkpt lat="43.25941969778567" lon="10.65310891111765"><ele>331.0</ele><time>2026-04-11T05:36:41Z</time></trkpt><trkpt lat="43.259469906785725" lon="10.653192300371455"><ele>329.5</ele><time>2026-04-11T05:36:42Z</time></trkpt><trkpt lat="43.25951236911292" lon="10.653282522045595"><ele>328.0</ele><time>2026-04-11T05:36:43Z</time></trkpt><trkpt lat="43.25955891718992" lon="10.653365479555504"><ele>326.5</ele><time>2026-04-11T05:36:44Z</time></trkpt><trkpt lat="43.25959291904073" lon="10.653460522736598"><ele>325.0</ele><time>2026-04-11T05:36:45Z</time></trkpt><trkpt lat="43.25961970858038" lon="10.653562692782556"><ele>324.3333333333333</ele><time>2026-04-11T05:36:46Z</time></trkpt><trkpt lat="43.259633665904616" lon="10.653673470656088"><ele>323.66666666666663</ele><time>2026-04-11T05:36:47Z</time></trkpt><trkpt lat="43.25963616759985" lon="10.653792625411725"><ele>323.0</ele><time>2026-04-11T05:36:48Z</time></trkpt><trkpt lat="43.25963824916734" lon="10.653910898774072"><ele>322.3333333333333</ele><time>2026-04-11T05:36:49Z</time></trkpt><trkpt lat="43.25964871173471" lon="10.654032719591301"><ele>321.6666666666667</ele><time>2026-04-11T05:36:50Z</time></trkpt><trkpt lat="43.25965996033069" lon="10.654161324822827"><ele>321.0</ele><time>2026-04-11T05:36:51Z</time></trkpt><trkpt lat="43.25966170185895" lon="10.654296575728688"><ele>321.0</ele><time>2026-04-11T05:36:52Z</time></trkpt><trkpt lat="43.25965788089652" lon="10.654432973730263"><ele>321.0</ele><time>2026-04-11T05:36:53Z</time></trkpt><trkpt lat="43.25964918986267" lon="10.654572570441838"><ele>321.0</ele><time>2026-04-11T05:36:54Z</time></trkpt><trkpt lat="43.259628379101365" lon="10.654713884123082"><ele>321.0</ele><time>2026-04-11T05:36:55Z</time></trkpt><trkpt lat="43.25960736790662" lon="10.654857388175497"><ele>321.0</ele><time>2026-04-11T05:36:56Z</time></trkpt><trkpt lat="43.25958674293965" lon="10.654999050289383"><ele>320.8</ele><time>2026-04-11T05:36:57Z</time></trkpt><trkpt lat="43.25956498336556" lon="10.65513285694863"><ele>320.6</ele><time>2026-04-11T05:36:58Z</time></trkpt><trkpt lat="43.25953520304" lon="10.655259518809359"><ele>320.4</ele><time>2026-04-11T05:36:59Z</time></trkpt><trkpt lat="43.2594866237108" lon="10.655376637234289"><ele>320.2</ele><time>2026-04-11T05:37:00Z</time></trkpt><trkpt lat="43.259428419044724" lon="10.655476704583835"><ele>320.0</ele><time>2026-04-11T05:37:01Z</time></trkpt><trkpt lat="43.25936745603468" lon="10.655566861651288"><ele>319.6666666666667</ele><time>2026-04-11T05:37:02Z</time></trkpt><trkpt lat="43.259306284473965" lon="10.65564412525471"><ele>319.33333333333337</ele><time>2026-04-11T05:37:03Z</time></trkpt><trkpt lat="43.2592396677368" lon="10.655711713781198"><ele>319.0</ele><time>2026-04-11T05:37:04Z</time></trkpt><trkpt lat="43.25917341879992" lon="10.655785348807989"><ele>318.6666666666667</ele><time>2026-04-11T05:37:05Z</time></trkpt><trkpt lat="43.25909916974658" lon="10.65584725059559"><ele>318.3333333333333</ele><time>2026-04-11T05:37:06Z</time></trkpt><trkpt lat="43.25902229791633" lon="10.655908524081097"><ele>318.0</ele><time>2026-04-11T05:37:07Z</time></trkpt><trkpt lat="43.25894810671296" lon="10.655976507282883"><ele>318.0</ele><time>2026-04-11T05:37:08Z</time></trkpt><trkpt lat="43.25887924412424" lon="10.65604882313532"><ele>318.0</ele><time>2026-04-11T05:37:09Z</time></trkpt><trkpt lat="43.25881762593686" lon="10.65612217019603"><ele>318.0</ele><time>2026-04-11T05:37:10Z</time></trkpt><trkpt lat="43.25875375064825" lon="10.65618276947243"><ele>318.0</ele><time>2026-04-11T05:37:11Z</time></trkpt><trkpt lat="43.25868476202606" lon="10.656223792631938"><ele>318.0</ele><time>2026-04-11T05:37:12Z</time></trkpt><trkpt lat="43.2586108637473" lon="10.656242843527789"><ele>318.0</ele><time>2026-04-11T05:37:13Z</time></trkpt><trkpt lat="43.25854598112061" lon="10.656245877285263"><ele>319.4</ele><time>2026-04-11T05:37:14Z</time></trkpt><trkpt lat="43.25842641902239" lon="10.656278881964232"><ele>320.8</ele><time>2026-04-11T05:37:16Z</time></trkpt><trkpt lat="43.25834022201876" lon="10.656333241469838"><ele>322.2</ele><time>2026-04-11T05:37:18Z</time></trkpt><trkpt lat="43.25829145019226" lon="10.656435583924317"><ele>323.6</ele><time>2026-04-11T05:37:20Z</time></trkpt><trkpt lat="43.2582635953965" lon="10.656564951553525"><ele>325.0</ele><time>2026-04-11T05:37:22Z</time></trkpt><trkpt lat="43.25826205048952" lon="10.65669521451829"><ele>325.0</ele><time>2026-04-11T05:37:24Z</time></trkpt><trkpt lat="43.258207296998144" lon="10.6567866709938"><ele>325.0</ele><time>2026-04-11T05:37:26Z</time></trkpt><trkpt lat="43.25812505760112" lon="10.656755931278383"><ele>325.0</ele><time>2026-04-11T05:37:28Z</time></trkpt><trkpt lat="43.25808309739931" lon="10.656678754714582"><ele>325.0</ele><time>2026-04-11T05:37:29Z</time></trkpt><trkpt lat="43.25801565342134" lon="10.656534570064107"><ele>325.0</ele><time>2026-04-11T05:37:31Z</time></trkpt><trkpt lat="43.257908643482324" lon="10.656440443162431"><ele>326.0</ele><time>2026-04-11T05:37:33Z</time></trkpt><trkpt lat="43.25780408183227" lon="10.65635512637767"><ele>327.0</ele><time>2026-04-11T05:37:35Z</time></trkpt><trkpt lat="43.257694314920414" lon="10.656323167651921"><ele>328.0</ele><time>2026-04-11T05:37:37Z</time></trkpt><trkpt lat="43.25759191880269" lon="10.656352829994567"><ele>329.0</ele><time>2026-04-11T05:37:39Z</time></trkpt><trkpt lat="43.25749864468336" lon="10.65639678159228"><ele>330.0</ele><time>2026-04-11T05:37:41Z</time></trkpt><trkpt lat="43.25740041863507" lon="10.656381915970655"><ele>330.0</ele><time>2026-04-11T05:37:43Z</time></trkpt><trkpt lat="43.257300948842975" lon="10.65634494410328"><ele>330.0</ele><time>2026-04-11T05:37:45Z</time></trkpt><trkpt lat="43.257226912270525" lon="10.656241593085856"><ele>330.0</ele><time>2026-04-11T05:37:47Z</time></trkpt><trkpt lat="43.25713924328516" lon="10.65616110170615"><ele>330.0</ele><time>2026-04-11T05:37:49Z</time></trkpt><trkpt lat="43.25705836638847" lon="10.656072071107893"><ele>330.0</ele><time>2026-04-11T05:37:51.001Z</time></trkpt><trkpt lat="43.2569906133069" lon="10.65597705387669"><ele>328.6666666666667</ele><time>2026-04-11T05:37:53.001Z</time></trkpt><trkpt lat="43.256927167109986" lon="10.655898565214084"><ele>327.3333333333333</ele><time>2026-04-11T05:37:55.001Z</time></trkpt><trkpt lat="43.256853643664826" lon="10.655866614091275"><ele>326.0</ele><time>2026-04-11T05:37:57.001Z</time></trkpt><trkpt lat="43.25676995895066" lon="10.655859794287332"><ele>324.66666666666663</ele><time>2026-04-11T05:37:59.001Z</time></trkpt><trkpt lat="43.256690197814535" lon="10.655887914574636"><ele>323.3333333333333</ele><time>2026-04-11T05:38:01.001Z</time></trkpt><trkpt lat="43.256615621842194" lon="10.655916806029786"><ele>322.0</ele><time>2026-04-11T05:38:03.001Z</time></trkpt><trkpt lat="43.256543988106266" lon="10.655953470031367"><ele>322.0</ele><time>2026-04-11T05:38:05.001Z</time></trkpt><trkpt lat="43.256467413998365" lon="10.6559941099075"><ele>322.0</ele><time>2026-04-11T05:38:07.001Z</time></trkpt><trkpt lat="43.25640160853148" lon="10.656044941610935"><ele>322.0</ele><time>2026-04-11T05:38:09.001Z</time></trkpt><trkpt lat="43.25634190350448" lon="10.656122267279262"><ele>322.0</ele><time>2026-04-11T05:38:12.001Z</time></trkpt><trkpt lat="43.256292903695105" lon="10.656221951095166"><ele>322.0</ele><time>2026-04-11T05:38:15.001Z</time></trkpt><trkpt lat="43.25623398018291" lon="10.6563296876675"><ele>322.0</ele><time>2026-04-11T05:38:18.001Z</time></trkpt><trkpt lat="43.2561887409087" lon="10.656421910716151"><ele>324.0</ele><time>2026-04-11T05:38:21.001Z</time></trkpt><trkpt lat="43.25612094735985" lon="10.656484686543383"><ele>326.0</ele><time>2026-04-11T05:38:24.001Z</time></trkpt><trkpt lat="43.256062909485046" lon="10.656557857561486"><ele>328.0</ele><time>2026-04-11T05:38:27.001Z</time></trkpt><trkpt lat="43.2559947066344" lon="10.656616891103921"><ele>330.0</ele><time>2026-04-11T05:38:30Z</time></trkpt><trkpt lat="43.255926453892954" lon="10.656649837612369"><ele>332.0</ele><time>2026-04-11T05:38:33Z</time></trkpt><trkpt lat="43.25585029373742" lon="10.656682196042944"><ele>334.0</ele><time>2026-04-11T05:38:36Z</time></trkpt><trkpt lat="43.255780720252574" lon="10.65666002082402"><ele>334.0</ele><time>2026-04-11T05:38:40Z</time></trkpt><trkpt lat="43.25571119040357" lon="10.656643036568646"><ele>334.0</ele><time>2026-04-11T05:38:43Z</time></trkpt><trkpt lat="43.25564318943731" lon="10.656616485297846"><ele>334.0</ele><time>2026-04-11T05:38:46Z</time></trkpt><trkpt lat="43.25556686365591" lon="10.656617949932592"><ele>334.0</ele><time>2026-04-11T05:38:49Z</time></trkpt><trkpt lat="43.25548576813268" lon="10.656637077883438"><ele>334.0</ele><time>2026-04-11T05:38:52Z</time></trkpt><trkpt lat="43.2554021486422" lon="10.65667954388229"><ele>334.0</ele><time>2026-04-11T05:38:55Z</time></trkpt><trkpt lat="43.25530977396691" lon="10.656711357738502"><ele>334.0</ele><time>2026-04-11T05:38:58Z</time></trkpt><trkpt lat="43.25522578375635" lon="10.656716915713272"><ele>334.0</ele><time>2026-04-11T05:39:01Z</time></trkpt><trkpt lat="43.25513284123065" lon="10.65670010933986"><ele>334.0</ele><time>2026-04-11T05:39:04Z</time></trkpt><trkpt lat="43.25506960954676" lon="10.656678523416588"><ele>334.0</ele><time>2026-04-11T05:39:06Z</time></trkpt><trkpt lat="43.2549726365469" lon="10.656649112553868"><ele>334.0</ele><time>2026-04-11T05:39:08Z</time></trkpt><trkpt lat="43.25491151965372" lon="10.656623376659107"><ele>334.0</ele><time>2026-04-11T05:39:10Z</time></trkpt><trkpt lat="43.25482382634338" lon="10.65660673939721"><ele>334.16666666666663</ele><time>2026-04-11T05:39:13Z</time></trkpt><trkpt lat="43.25474485840122" lon="10.656597561254044"><ele>334.3333333333333</ele><time>2026-04-11T05:39:16Z</time></trkpt><trkpt lat="43.254665526676696" lon="10.65662209987379"><ele>334.5</ele><time>2026-04-11T05:39:18Z</time></trkpt><trkpt lat="43.25459581407506" lon="10.6566937282996"><ele>334.6666666666667</ele><time>2026-04-11T05:39:21Z</time></trkpt><trkpt lat="43.254552016951486" lon="10.656771944037608"><ele>334.83333333333337</ele><time>2026-04-11T05:39:24Z</time></trkpt><trkpt lat="43.254468962714824" lon="10.656870168716573"><ele>335.0</ele><time>2026-04-11T05:39:25Z</time></trkpt><trkpt lat="43.25442625270727" lon="10.65696038280634"><ele>335.0</ele><time>2026-04-11T05:39:27Z</time></trkpt><trkpt lat="43.254384125530514" lon="10.657060377610495"><ele>335.0</ele><time>2026-04-11T05:39:29Z</time></trkpt><trkpt lat="43.25435789867127" lon="10.657169506944877"><ele>335.0</ele><time>2026-04-11T05:39:31Z</time></trkpt><trkpt lat="43.25434854998967" lon="10.657282681652735"><ele>335.0</ele><time>2026-04-11T05:39:33Z</time></trkpt><trkpt lat="43.254347084545515" lon="10.65739083202031"><ele>335.0</ele><time>2026-04-11T05:39:35Z</time></trkpt><trkpt lat="43.254361514852015" lon="10.657532836780836"><ele>335.0</ele><time>2026-04-11T05:39:37Z</time></trkpt><trkpt lat="43.254381176298345" lon="10.65766781692813"><ele>337.6666666666667</ele><time>2026-04-11T05:39:38.999Z</time></trkpt><trkpt lat="43.25439908291624" lon="10.657800414508067"><ele>340.33333333333337</ele><time>2026-04-11T05:39:40.999Z</time></trkpt><trkpt lat="43.25441816546292" lon="10.657910256747646"><ele>343.0</ele><time>2026-04-11T05:39:42.999Z</time></trkpt><trkpt lat="43.254403087991435" lon="10.658025669868822"><ele>345.6666666666667</ele><time>2026-04-11T05:39:44.999Z</time></trkpt><trkpt lat="43.254413406205245" lon="10.658146026325971"><ele>348.3333333333333</ele><time>2026-04-11T05:39:47.999Z</time></trkpt><trkpt lat="43.25439918052592" lon="10.658236084098931"><ele>351.0</ele><time>2026-04-11T05:39:49.999Z</time></trkpt><trkpt lat="43.25434697697886" lon="10.658306258547807"><ele>351.0</ele><time>2026-04-11T05:39:51.999Z</time></trkpt><trkpt lat="43.25426559849415" lon="10.658306654452941"><ele>351.0</ele><time>2026-04-11T05:39:53.999Z</time></trkpt><trkpt lat="43.254193597140585" lon="10.658226318577777"><ele>351.0</ele><time>2026-04-11T05:39:56.001Z</time></trkpt><trkpt lat="43.25413799117279" lon="10.658108466826466"><ele>351.0</ele><time>2026-04-11T05:39:58.001Z</time></trkpt><trkpt lat="43.254098366750256" lon="10.658002782531772"><ele>351.0</ele><time>2026-04-11T05:40:00.001Z</time></trkpt><trkpt lat="43.254019543861446" lon="10.657753706068423"><ele>352.5</ele><time>2026-04-11T05:40:03.001Z</time></trkpt><trkpt lat="43.25395599555509" lon="10.657618303186107"><ele>354.0</ele><time>2026-04-11T05:40:05.001Z</time></trkpt><trkpt lat="43.25389323438892" lon="10.657488533638123"><ele>355.5</ele><time>2026-04-11T05:40:07.001Z</time></trkpt><trkpt lat="43.25380951376576" lon="10.657374991291428"><ele>357.0</ele><time>2026-04-11T05:40:09.001Z</time></trkpt><trkpt lat="43.25370419550826" lon="10.657292094543108"><ele>357.0</ele><time>2026-04-11T05:40:11.001Z</time></trkpt><trkpt lat="43.253605406097165" lon="10.657204667637057"><ele>357.0</ele><time>2026-04-11T05:40:13.001Z</time></trkpt><trkpt lat="43.253529591242916" lon="10.657068558806552"><ele>357.0</ele><time>2026-04-11T05:40:15.001Z</time></trkpt><trkpt lat="43.253473014371565" lon="10.656921789771427"><ele>357.0</ele><time>2026-04-11T05:40:17.001Z</time></trkpt><trkpt lat="43.253437949598855" lon="10.656847914671944"><ele>357.0</ele><time>2026-04-11T05:40:18.001Z</time></trkpt><trkpt lat="43.25338944876083" lon="10.656782924218568"><ele>354.57142857142856</ele><time>2026-04-11T05:40:19.001Z</time></trkpt><trkpt lat="43.2533342550287" lon="10.656720765702278"><ele>352.1428571428571</ele><time>2026-04-11T05:40:20.001Z</time></trkpt><trkpt lat="43.25328136045942" lon="10.656668143448604"><ele>349.7142857142857</ele><time>2026-04-11T05:40:21.001Z</time></trkpt><trkpt lat="43.2532328045016" lon="10.65660631548055"><ele>347.2857142857143</ele><time>2026-04-11T05:40:22.001Z</time></trkpt><trkpt lat="43.25317673204167" lon="10.656525743832983"><ele>344.85714285714283</ele><time>2026-04-11T05:40:23.001Z</time></trkpt><trkpt lat="43.25313227088876" lon="10.656454004198574"><ele>342.42857142857144</ele><time>2026-04-11T05:40:24.001Z</time></trkpt><trkpt lat="43.25309801843107" lon="10.656370922218896"><ele>340.0</ele><time>2026-04-11T05:40:25.001Z</time></trkpt><trkpt lat="43.25305628229062" lon="10.656283234897293"><ele>340.0</ele><time>2026-04-11T05:40:26Z</time></trkpt><trkpt lat="43.25301393843574" lon="10.656208903190947"><ele>340.0</ele><time>2026-04-11T05:40:27Z</time></trkpt><trkpt lat="43.252969074277395" lon="10.65612458124754"><ele>340.0</ele><time>2026-04-11T05:40:28Z</time></trkpt><trkpt lat="43.252923585449786" lon="10.65605304530336"><ele>340.0</ele><time>2026-04-11T05:40:29Z</time></trkpt><trkpt lat="43.252870056165584" lon="10.655995341845344"><ele>340.0</ele><time>2026-04-11T05:40:30Z</time></trkpt><trkpt lat="43.25275222548234" lon="10.65595440983144"><ele>340.0</ele><time>2026-04-11T05:40:32Z</time></trkpt><trkpt lat="43.25263645239673" lon="10.656012099131836"><ele>340.0</ele><time>2026-04-11T05:40:34Z</time></trkpt><trkpt lat="43.25253403486423" lon="10.656104032101876"><ele>340.0</ele><time>2026-04-11T05:40:36Z</time></trkpt><trkpt lat="43.25244760358245" lon="10.656201011780041"><ele>340.0</ele><time>2026-04-11T05:40:38Z</time></trkpt><trkpt lat="43.25238396100841" lon="10.656307740006925"><ele>340.0</ele><time>2026-04-11T05:40:40Z</time></trkpt><trkpt lat="43.252327200750194" lon="10.656403124709069"><ele>340.0</ele><time>2026-04-11T05:40:42Z</time></trkpt><trkpt lat="43.25227498178994" lon="10.65649322638344"><ele>335.5</ele><time>2026-04-11T05:40:44Z</time></trkpt><trkpt lat="43.25222848049119" lon="10.656576947848786"><ele>331.0</ele><time>2026-04-11T05:40:46Z</time></trkpt><trkpt lat="43.25218403166577" lon="10.656658656857584"><ele>326.5</ele><time>2026-04-11T05:40:49Z</time></trkpt><trkpt lat="43.25213962534574" lon="10.656749037971608"><ele>322.0</ele><time>2026-04-11T05:40:51Z</time></trkpt><trkpt lat="43.25209722356045" lon="10.656824959451722"><ele>317.5</ele><time>2026-04-11T05:40:52Z</time></trkpt><trkpt lat="43.25205864424468" lon="10.656907627408533"><ele>313.0</ele><time>2026-04-11T05:40:55Z</time></trkpt><trkpt lat="43.25202004919824" lon="10.65702071754583"><ele>313.0</ele><time>2026-04-11T05:40:56Z</time></trkpt><trkpt lat="43.25199422450051" lon="10.657128702870866"><ele>313.0</ele><time>2026-04-11T05:40:58Z</time></trkpt><trkpt lat="43.2519826074405" lon="10.657241391309993"><ele>313.0</ele><time>2026-04-11T05:41:00Z</time></trkpt><trkpt lat="43.25198852031803" lon="10.657344392393284"><ele>313.0</ele><time>2026-04-11T05:41:02Z</time></trkpt><trkpt lat="43.25200765426791" lon="10.65743763123064"><ele>313.0</ele><time>2026-04-11T05:41:04Z</time></trkpt><trkpt lat="43.2520278775993" lon="10.657531795968179"><ele>313.0</ele><time>2026-04-11T05:41:06Z</time></trkpt><trkpt lat="43.25204851993663" lon="10.657615824955752"><ele>313.0</ele><time>2026-04-11T05:41:08Z</time></trkpt><trkpt lat="43.25207254103427" lon="10.657731430315373"><ele>314.16666666666663</ele><time>2026-04-11T05:41:11Z</time></trkpt><trkpt lat="43.2520925536905" lon="10.657837638337345"><ele>315.3333333333333</ele><time>2026-04-11T05:41:14Z</time></trkpt><trkpt lat="43.252103903610006" lon="10.657950203168905"><ele>316.5</ele><time>2026-04-11T05:41:18Z</time></trkpt><trkpt lat="43.252111815098154" lon="10.658041296330882"><ele>317.6666666666667</ele><time>2026-04-11T05:41:21Z</time></trkpt><trkpt lat="43.25211142227642" lon="10.658133607350683"><ele>318.83333333333337</ele><time>2026-04-11T05:41:25Z</time></trkpt><trkpt lat="43.25211580115915" lon="10.658231601782326"><ele>320.0</ele><time>2026-04-11T05:41:29Z</time></trkpt><trkpt lat="43.25212979989146" lon="10.658345694186927"><ele>320.0</ele><time>2026-04-11T05:41:32.999Z</time></trkpt><trkpt lat="43.25214817311699" lon="10.658431328624982"><ele>320.0</ele><time>2026-04-11T05:41:36.999Z</time></trkpt><trkpt lat="43.25218054042124" lon="10.658542426224791"><ele>320.0</ele><time>2026-04-11T05:41:40.999Z</time></trkpt><trkpt lat="43.25221305349553" lon="10.658641100969064"><ele>320.0</ele><time>2026-04-11T05:41:44.999Z</time></trkpt><trkpt lat="43.252242358003535" lon="10.658741772492677"><ele>320.0</ele><time>2026-04-11T05:41:47.999Z</time></trkpt><trkpt lat="43.25227643845634" lon="10.658856111225015"><ele>320.0</ele><time>2026-04-11T05:41:52.999Z</time></trkpt><trkpt lat="43.25229806577936" lon="10.658941459631604"><ele>325.83333333333337</ele><time>2026-04-11T05:41:55.999Z</time></trkpt><trkpt lat="43.25233090764105" lon="10.659038968535613"><ele>331.6666666666667</ele><time>2026-04-11T05:42:00.001Z</time></trkpt><trkpt lat="43.25236091831929" lon="10.6591352609901"><ele>337.5</ele><time>2026-04-11T05:42:04.001Z</time></trkpt><trkpt lat="43.25239282244426" lon="10.659220567513367"><ele>343.3333333333333</ele><time>2026-04-11T05:42:08.001Z</time></trkpt><trkpt lat="43.25242446449031" lon="10.659331846881539"><ele>349.16666666666663</ele><time>2026-04-11T05:42:12.001Z</time></trkpt><trkpt lat="43.252469141582196" lon="10.659398395183802"><ele>355.0</ele><time>2026-04-11T05:42:16.001Z</time></trkpt><trkpt lat="43.252507977619466" lon="10.659494128603377"><ele>355.0</ele><time>2026-04-11T05:42:20.001Z</time></trkpt><trkpt lat="43.2525479703086" lon="10.65959819399618"><ele>355.0</ele><time>2026-04-11T05:42:24Z</time></trkpt><trkpt lat="43.252565076284995" lon="10.659698576613271"><ele>355.0</ele><time>2026-04-11T05:42:27Z</time></trkpt><trkpt lat="43.252574370633376" lon="10.659801755422372"><ele>355.0</ele><time>2026-04-11T05:42:31Z</time></trkpt><trkpt lat="43.25257939429426" lon="10.659893669146793"><ele>355.0</ele><time>2026-04-11T05:42:34Z</time></trkpt><trkpt lat="43.25259670910607" lon="10.659986345494177"><ele>355.0</ele><time>2026-04-11T05:42:37Z</time></trkpt><trkpt lat="43.252629069681994" lon="10.660085102314437"><ele>355.0</ele><time>2026-04-11T05:42:40Z</time></trkpt><trkpt lat="43.252659085813114" lon="10.660170588790805"><ele>355.0</ele><time>2026-04-11T05:42:43Z</time></trkpt><trkpt lat="43.25264497197601" lon="10.66026945499314"><ele>355.0</ele><time>2026-04-11T05:42:46Z</time></trkpt><trkpt lat="43.252579161116984" lon="10.6603264551738"><ele>355.0</ele><time>2026-04-11T05:42:49Z</time></trkpt><trkpt lat="43.25250836442188" lon="10.66033799446175"><ele>355.0</ele><time>2026-04-11T05:42:52Z</time></trkpt><trkpt lat="43.2524350521937" lon="10.660331953685699"><ele>355.0</ele><time>2026-04-11T05:42:54Z</time></trkpt><trkpt lat="43.252356491963596" lon="10.660326818533065"><ele>355.0</ele><time>2026-04-11T05:42:57Z</time></trkpt><trkpt lat="43.25229042821997" lon="10.660317938314755"><ele>359.6</ele><time>2026-04-11T05:42:59Z</time></trkpt><trkpt lat="43.252194536486904" lon="10.66033386081039"><ele>364.2</ele><time>2026-04-11T05:43:02Z</time></trkpt><trkpt lat="43.25210880836886" lon="10.660372737422934"><ele>368.79999999999995</ele><time>2026-04-11T05:43:04Z</time></trkpt><trkpt lat="43.252044114993105" lon="10.660420272103398"><ele>373.4</ele><time>2026-04-11T05:43:07Z</time></trkpt><trkpt lat="43.2519204773808" lon="10.660496820614554"><ele>378.0</ele><time>2026-04-11T05:43:08Z</time></trkpt><trkpt lat="43.25184605521057" lon="10.660553712489417"><ele>378.0</ele><time>2026-04-11T05:43:10Z</time></trkpt><trkpt lat="43.25177511368858" lon="10.660612284845776"><ele>378.0</ele><time>2026-04-11T05:43:12Z</time></trkpt><trkpt lat="43.251708525812774" lon="10.660669576465718"><ele>378.0</ele><time>2026-04-11T05:43:14Z</time></trkpt><trkpt lat="43.251624018660515" lon="10.660648053185321"><ele>378.0</ele><time>2026-04-11T05:43:16Z</time></trkpt><trkpt lat="43.251551810444596" lon="10.6605801585785"><ele>378.0</ele><time>2026-04-11T05:43:18Z</time></trkpt><trkpt lat="43.251552170340844" lon="10.66042484473458"><ele>378.0</ele><time>2026-04-11T05:43:20Z</time></trkpt><trkpt lat="43.251590519022365" lon="10.660275360893193"><ele>373.2</ele><time>2026-04-11T05:43:21.999Z</time></trkpt><trkpt lat="43.25159519967456" lon="10.660187578516409"><ele>368.4</ele><time>2026-04-11T05:43:22.999Z</time></trkpt><trkpt lat="43.251599146861984" lon="10.660096606201604"><ele>363.59999999999997</ele><time>2026-04-11T05:43:23.999Z</time></trkpt><trkpt lat="43.251585016444615" lon="10.659927103984842"><ele>358.79999999999995</ele><time>2026-04-11T05:43:25.999Z</time></trkpt><trkpt lat="43.25154801951338" lon="10.659837053455242"><ele>354.0</ele><time>2026-04-11T05:43:26.999Z</time></trkpt><trkpt lat="43.25148196277748" lon="10.65969788117281"><ele>353.0</ele><time>2026-04-11T05:43:28.999Z</time></trkpt><trkpt lat="43.25136356914208" lon="10.659636895253467"><ele>352.0</ele><time>2026-04-11T05:43:30.999Z</time></trkpt><trkpt lat="43.2512975209022" lon="10.65959796677034"><ele>351.0</ele><time>2026-04-11T05:43:31.999Z</time></trkpt><trkpt lat="43.25123922824165" lon="10.659540849003115"><ele>350.0</ele><time>2026-04-11T05:43:32.999Z</time></trkpt><trkpt lat="43.25119606657431" lon="10.659461279318394"><ele>349.0</ele><time>2026-04-11T05:43:33.999Z</time></trkpt><trkpt lat="43.251153695168185" lon="10.659385083400817"><ele>348.0</ele><time>2026-04-11T05:43:34.999Z</time></trkpt><trkpt lat="43.25110433067815" lon="10.6593224727658"><ele>348.0</ele><time>2026-04-11T05:43:35.999Z</time></trkpt><trkpt lat="43.25104912583317" lon="10.659274330285731"><ele>348.0</ele><time>2026-04-11T05:43:36.999Z</time></trkpt><trkpt lat="43.2509873628063" lon="10.659242293036417"><ele>348.0</ele><time>2026-04-11T05:43:37.999Z</time></trkpt><trkpt lat="43.250919843212955" lon="10.659224564883386"><ele>348.0</ele><time>2026-04-11T05:43:38.999Z</time></trkpt><trkpt lat="43.25085602859526" lon="10.659207463907146"><ele>348.0</ele><time>2026-04-11T05:43:39.999Z</time></trkpt><trkpt lat="43.250793288254144" lon="10.659182129495132"><ele>348.0</ele><time>2026-04-11T05:43:40.999Z</time></trkpt><trkpt lat="43.250734435115454" lon="10.659147162407397"><ele>348.0</ele><time>2026-04-11T05:43:41.999Z</time></trkpt><trkpt lat="43.25067186636752" lon="10.659109853167017"><ele>348.1428571428571</ele><time>2026-04-11T05:43:42.999Z</time></trkpt><trkpt lat="43.25061557087143" lon="10.659064163678043"><ele>348.2857142857143</ele><time>2026-04-11T05:43:43.999Z</time></trkpt><trkpt lat="43.25055116156855" lon="10.659023583125947"><ele>348.42857142857144</ele><time>2026-04-11T05:43:44.999Z</time></trkpt><trkpt lat="43.250486780723314" lon="10.658988239213718"><ele>348.57142857142856</ele><time>2026-04-11T05:43:45.999Z</time></trkpt><trkpt lat="43.25042096973968" lon="10.65895761961247"><ele>348.7142857142857</ele><time>2026-04-11T05:43:46.999Z</time></trkpt><trkpt lat="43.25035615152219" lon="10.658936153668442"><ele>348.85714285714283</ele><time>2026-04-11T05:43:47.999Z</time></trkpt><trkpt lat="43.25029007351454" lon="10.658917367907474"><ele>349.0</ele><time>2026-04-11T05:43:48.999Z</time></trkpt><trkpt lat="43.250223028673574" lon="10.658897540502911"><ele>349.0</ele><time>2026-04-11T05:43:49.999Z</time></trkpt><trkpt lat="43.25015907453505" lon="10.658883054082956"><ele>349.0</ele><time>2026-04-11T05:43:50.999Z</time></trkpt><trkpt lat="43.25009587741157" lon="10.658875623209962"><ele>349.0</ele><time>2026-04-11T05:43:51.999Z</time></trkpt><trkpt lat="43.249974099274006" lon="10.658900292557743"><ele>349.0</ele><time>2026-04-11T05:43:53.999Z</time></trkpt><trkpt lat="43.24987608544719" lon="10.658977605540736"><ele>349.0</ele><time>2026-04-11T05:43:55.999Z</time></trkpt><trkpt lat="43.24980185652787" lon="10.659079523317036"><ele>350.2</ele><time>2026-04-11T05:43:57.999Z</time></trkpt><trkpt lat="43.249712324810815" lon="10.659170029698387"><ele>351.4</ele><time>2026-04-11T05:43:59.999Z</time></trkpt><trkpt lat="43.24962127149967" lon="10.659245439181333"><ele>352.6</ele><time>2026-04-11T05:44:01.999Z</time></trkpt><trkpt lat="43.24954884330917" lon="10.659315289278938"><ele>353.8</ele><time>2026-04-11T05:44:03.999Z</time></trkpt><trkpt lat="43.249485334238614" lon="10.659397573297117"><ele>355.0</ele><time>2026-04-11T05:44:06Z</time></trkpt><trkpt lat="43.24940725746192" lon="10.65948699725673"><ele>355.0</ele><time>2026-04-11T05:44:08Z</time></trkpt><trkpt lat="43.24932952179939" lon="10.659574803883741"><ele>355.0</ele><time>2026-04-11T05:44:10Z</time></trkpt><trkpt lat="43.249246366427414" lon="10.659668558527777"><ele>355.0</ele><time>2026-04-11T05:44:12Z</time></trkpt><trkpt lat="43.249168693541364" lon="10.659760468960668"><ele>355.0</ele><time>2026-04-11T05:44:14Z</time></trkpt><trkpt lat="43.249047309691726" lon="10.65986219209597"><ele>355.0</ele><time>2026-04-11T05:44:17Z</time></trkpt><trkpt lat="43.248960803212924" lon="10.659924528782472"><ele>355.0</ele><time>2026-04-11T05:44:19Z</time></trkpt><trkpt lat="43.24888397339232" lon="10.659997263085716"><ele>355.0</ele><time>2026-04-11T05:44:21Z</time></trkpt><trkpt lat="43.24881050238414" lon="10.660068937380993"><ele>355.0</ele><time>2026-04-11T05:44:23Z</time></trkpt><trkpt lat="43.248731660956786" lon="10.660127776192144"><ele>355.0</ele><time>2026-04-11T05:44:25Z</time></trkpt><trkpt lat="43.24865883850269" lon="10.660189305648606"><ele>352.57142857142856</ele><time>2026-04-11T05:44:27Z</time></trkpt><trkpt lat="43.248587829878055" lon="10.660238199074493"><ele>350.14285714285717</ele><time>2026-04-11T05:44:29Z</time></trkpt><trkpt lat="43.24854263154983" lon="10.660320468248282"><ele>347.7142857142857</ele><time>2026-04-11T05:44:31Z</time></trkpt><trkpt lat="43.24850933211526" lon="10.660397964559778"><ele>345.2857142857143</ele><time>2026-04-11T05:44:33Z</time></trkpt><trkpt lat="43.248491194486704" lon="10.660485773019746"><ele>342.85714285714283</ele><time>2026-04-11T05:44:35Z</time></trkpt><trkpt lat="43.24847328111139" lon="10.66058655668683"><ele>340.42857142857144</ele><time>2026-04-11T05:44:38Z</time></trkpt><trkpt lat="43.24845648035171" lon="10.660679476093462"><ele>338.0</ele><time>2026-04-11T05:44:40Z</time></trkpt><trkpt lat="43.24843614779742" lon="10.660803195431166"><ele>338.0</ele><time>2026-04-11T05:44:43Z</time></trkpt><trkpt lat="43.24841644612083" lon="10.660893637697708"><ele>338.0</ele><time>2026-04-11T05:44:45Z</time></trkpt><trkpt lat="43.248404978194046" lon="10.661027891040094"><ele>338.0</ele><time>2026-04-11T05:44:48Z</time></trkpt><trkpt lat="43.248390596059735" lon="10.661134650944618"><ele>338.0</ele><time>2026-04-11T05:44:50Z</time></trkpt><trkpt lat="43.248383954160566" lon="10.661249344819561"><ele>338.0</ele><time>2026-04-11T05:44:52Z</time></trkpt><trkpt lat="43.248367868892345" lon="10.66137372553652"><ele>338.0</ele><time>2026-04-11T05:44:53Z</time></trkpt><trkpt lat="43.24833588880845" lon="10.661479511657575"><ele>337.0</ele><time>2026-04-11T05:44:55Z</time></trkpt><trkpt lat="43.248290989041266" lon="10.661581111240038"><ele>336.0</ele><time>2026-04-11T05:44:57Z</time></trkpt><trkpt lat="43.24822446235509" lon="10.661677297617596"><ele>335.0</ele><time>2026-04-11T05:44:59Z</time></trkpt><trkpt lat="43.24816421282742" lon="10.661773491941759"><ele>334.0</ele><time>2026-04-11T05:45:01Z</time></trkpt><trkpt lat="43.24812428007937" lon="10.661888478705732"><ele>333.0</ele><time>2026-04-11T05:45:03Z</time></trkpt><trkpt lat="43.24806949457606" lon="10.661986203244185"><ele>335.3333333333333</ele><time>2026-04-11T05:45:05Z</time></trkpt><trkpt lat="43.24800991097985" lon="10.66206122226454"><ele>337.6666666666667</ele><time>2026-04-11T05:45:07Z</time></trkpt><trkpt lat="43.24794956162687" lon="10.662117073212155"><ele>340.0</ele><time>2026-04-11T05:45:10Z</time></trkpt><trkpt lat="43.24791394809765" lon="10.662238416661062"><ele>342.33333333333337</ele><time>2026-04-11T05:45:15Z</time></trkpt><trkpt lat="43.24785950589626" lon="10.662308437361542"><ele>344.6666666666667</ele><time>2026-04-11T05:45:18.999Z</time></trkpt><trkpt lat="43.24783594601699" lon="10.6623929798611"><ele>347.0</ele><time>2026-04-11T05:45:24.999Z</time></trkpt><trkpt lat="43.24779562509472" lon="10.66247057851049"><ele>347.0</ele><time>2026-04-11T05:45:30.999Z</time></trkpt><trkpt lat="43.247764433909055" lon="10.662546520459886"><ele>347.0</ele><time>2026-04-11T05:45:34.999Z</time></trkpt><trkpt lat="43.24775840658232" lon="10.66243407271573"><ele>347.0</ele><time>2026-04-11T05:45:44.999Z</time></trkpt><trkpt lat="43.24773577740815" lon="10.662334346213127"><ele>347.0</ele><time>2026-04-11T05:45:47.999Z</time></trkpt><trkpt lat="43.247756297118286" lon="10.662229707372958"><ele>347.0</ele><time>2026-04-11T05:45:50.999Z</time></trkpt><trkpt lat="43.24775645283717" lon="10.662114463366363"><ele>347.0</ele><time>2026-04-11T05:45:53.999Z</time></trkpt><trkpt lat="43.247757840941844" lon="10.66199017129159"><ele>345.0</ele><time>2026-04-11T05:45:58.999Z</time></trkpt><trkpt lat="43.24776131331422" lon="10.661874807131152"><ele>343.0</ele><time>2026-04-11T05:46:00.999Z</time></trkpt><trkpt lat="43.247766698959104" lon="10.661760435575868"><ele>341.0</ele><time>2026-04-11T05:46:02.999Z</time></trkpt><trkpt lat="43.247790832752436" lon="10.661676888529016"><ele>339.0</ele><time>2026-04-11T05:46:04.999Z</time></trkpt><trkpt lat="43.247794962701704" lon="10.661589000552226"><ele>337.0</ele><time>2026-04-11T05:46:07.999Z</time></trkpt><trkpt lat="43.247803951970084" lon="10.661498190260847"><ele>335.0</ele><time>2026-04-11T05:46:09.999Z</time></trkpt><trkpt lat="43.24785904478857" lon="10.661432495864618"><ele>333.0</ele><time>2026-04-11T05:46:13Z</time></trkpt><trkpt lat="43.247906111036954" lon="10.661349832307293"><ele>333.0</ele><time>2026-04-11T05:46:16Z</time></trkpt><trkpt lat="43.24783866970421" lon="10.661309065077779"><ele>333.0</ele><time>2026-04-11T05:46:19Z</time></trkpt><trkpt lat="43.24785396752307" lon="10.661170117756928"><ele>333.0</ele><time>2026-04-11T05:46:24Z</time></trkpt><trkpt lat="43.2478840201674" lon="10.661055626974395"><ele>333.0</ele><time>2026-04-11T05:46:26Z</time></trkpt><trkpt lat="43.24790639342605" lon="10.660905273376127"><ele>333.0</ele><time>2026-04-11T05:46:28Z</time></trkpt><trkpt lat="43.24792623026706" lon="10.660796449815594"><ele>330.8333333333333</ele><time>2026-04-11T05:46:29Z</time></trkpt><trkpt lat="43.2479405151131" lon="10.660702224059596"><ele>328.6666666666667</ele><time>2026-04-11T05:46:30Z</time></trkpt><trkpt lat="43.24796246136962" lon="10.660602471121647"><ele>326.5</ele><time>2026-04-11T05:46:32Z</time></trkpt><trkpt lat="43.24795659691548" lon="10.660507025950372"><ele>324.33333333333337</ele><time>2026-04-11T05:46:34Z</time></trkpt><trkpt lat="43.247954895455" lon="10.660397977698352"><ele>322.1666666666667</ele><time>2026-04-11T05:46:35Z</time></trkpt><trkpt lat="43.2479402436579" lon="10.6602503792451"><ele>320.0</ele><time>2026-04-11T05:46:37Z</time></trkpt><trkpt lat="43.24792329869243" lon="10.660097545255093"><ele>318.5</ele><time>2026-04-11T05:46:39Z</time></trkpt><trkpt lat="43.247893946597436" lon="10.659912491761581"><ele>317.0</ele><time>2026-04-11T05:46:41Z</time></trkpt><trkpt lat="43.24787771715731" lon="10.659824272925537"><ele>315.5</ele><time>2026-04-11T05:46:42Z</time></trkpt><trkpt lat="43.247861355128826" lon="10.659730264498677"><ele>314.0</ele><time>2026-04-11T05:46:43Z</time></trkpt><trkpt lat="43.247885594154205" lon="10.659609561158282"><ele>312.5</ele><time>2026-04-11T05:46:45Z</time></trkpt><trkpt lat="43.24785384815995" lon="10.659515605629846"><ele>311.0</ele><time>2026-04-11T05:46:47Z</time></trkpt><trkpt lat="43.24790247896054" lon="10.659458223950299"><ele>309.0</ele><time>2026-04-11T05:46:49Z</time></trkpt><trkpt lat="43.24791108881294" lon="10.659366852167002"><ele>307.0</ele><time>2026-04-11T05:46:52Z</time></trkpt><trkpt lat="43.24795687156743" lon="10.659265188817397"><ele>305.0</ele><time>2026-04-11T05:46:56Z</time></trkpt><trkpt lat="43.248013276327306" lon="10.659135979586534"><ele>303.0</ele><time>2026-04-11T05:46:59Z</time></trkpt><trkpt lat="43.24812430351431" lon="10.658938634085208"><ele>301.0</ele><time>2026-04-11T05:47:01Z</time></trkpt><trkpt lat="43.248163813506274" lon="10.658861667608514"><ele>300.40000000000003</ele><time>2026-04-11T05:47:02Z</time></trkpt><trkpt lat="43.24824101064075" lon="10.658745605828146"><ele>299.8</ele><time>2026-04-11T05:47:04Z</time></trkpt><trkpt lat="43.24829469997656" lon="10.658690109852008"><ele>299.20000000000005</ele><time>2026-04-11T05:47:05Z</time></trkpt><trkpt lat="43.248394782328944" lon="10.65855327506405"><ele>298.6</ele><time>2026-04-11T05:47:07Z</time></trkpt><trkpt lat="43.2484517926405" lon="10.658493784194336"><ele>298.0</ele><time>2026-04-11T05:47:08Z</time></trkpt><trkpt lat="43.24852084290225" lon="10.658465656094018"><ele>295.25</ele><time>2026-04-11T05:47:09Z</time></trkpt><trkpt lat="43.2486244532682" lon="10.658410898788228"><ele>292.5</ele><time>2026-04-11T05:47:11Z</time></trkpt><trkpt lat="43.24870230320454" lon="10.65835207863906"><ele>289.75</ele><time>2026-04-11T05:47:13Z</time></trkpt><trkpt lat="43.248774439854465" lon="10.658241066521429"><ele>287.0</ele><time>2026-04-11T05:47:15Z</time></trkpt><trkpt lat="43.24887161282793" lon="10.658085141903758"><ele>287.0</ele><time>2026-04-11T05:47:16.999Z</time></trkpt><trkpt lat="43.24895011126241" lon="10.658030452913637"><ele>287.0</ele><time>2026-04-11T05:47:17.999Z</time></trkpt><trkpt lat="43.249028359711204" lon="10.658010380015794"><ele>287.0</ele><time>2026-04-11T05:47:18.999Z</time></trkpt><trkpt lat="43.24910865106759" lon="10.658016980285886"><ele>287.0</ele><time>2026-04-11T05:47:19.999Z</time></trkpt><trkpt lat="43.24917626213111" lon="10.658014100337795"><ele>287.0</ele><time>2026-04-11T05:47:20.999Z</time></trkpt><trkpt lat="43.24923123202975" lon="10.657969744454109"><ele>287.0</ele><time>2026-04-11T05:47:22.999Z</time></trkpt><trkpt lat="43.24929859262826" lon="10.657866567195773"><ele>285.0</ele><time>2026-04-11T05:47:24.999Z</time></trkpt><trkpt lat="43.2493277692166" lon="10.657773996936292"><ele>283.0</ele><time>2026-04-11T05:47:25.999Z</time></trkpt><trkpt lat="43.24940409699934" lon="10.657645233371982"><ele>281.0</ele><time>2026-04-11T05:47:27.999Z</time></trkpt><trkpt lat="43.249472639846196" lon="10.657514935038053"><ele>279.0</ele><time>2026-04-11T05:47:29.999Z</time></trkpt><trkpt lat="43.24953023363222" lon="10.65745176026566"><ele>277.0</ele><time>2026-04-11T05:47:30.999Z</time></trkpt><trkpt lat="43.24958620888937" lon="10.657385759670635"><ele>277.0</ele><time>2026-04-11T05:47:31.999Z</time></trkpt><trkpt lat="43.24969792515644" lon="10.657302616656771"><ele>277.0</ele><time>2026-04-11T05:47:33.999Z</time></trkpt><trkpt lat="43.24975151695951" lon="10.657242982466977"><ele>277.0</ele><time>2026-04-11T05:47:34.999Z</time></trkpt><trkpt lat="43.24981712151715" lon="10.657177566164746"><ele>277.0</ele><time>2026-04-11T05:47:35.999Z</time></trkpt><trkpt lat="43.24989838527771" lon="10.657132989495251"><ele>277.0</ele><time>2026-04-11T05:47:36.999Z</time></trkpt><trkpt lat="43.2499852561757" lon="10.657076201083758"><ele>277.3333333333333</ele><time>2026-04-11T05:47:37.999Z</time></trkpt><trkpt lat="43.25005301230926" lon="10.657009969165161"><ele>277.66666666666663</ele><time>2026-04-11T05:47:38.999Z</time></trkpt><trkpt lat="43.250122724039045" lon="10.656937617892645"><ele>278.0</ele><time>2026-04-11T05:47:39.999Z</time></trkpt><trkpt lat="43.250183307657935" lon="10.656857046355235"><ele>278.3333333333333</ele><time>2026-04-11T05:47:40.999Z</time></trkpt><trkpt lat="43.25024467493107" lon="10.65675793572809"><ele>278.6666666666667</ele><time>2026-04-11T05:47:41.999Z</time></trkpt><trkpt lat="43.25030910509037" lon="10.656661993398561"><ele>279.0</ele><time>2026-04-11T05:47:42.999Z</time></trkpt><trkpt lat="43.25036151808816" lon="10.656567043564563"><ele>277.8333333333333</ele><time>2026-04-11T05:47:43.999Z</time></trkpt><trkpt lat="43.250433274633345" lon="10.65645511485847"><ele>276.6666666666667</ele><time>2026-04-11T05:47:45.999Z</time></trkpt><trkpt lat="43.25048056919524" lon="10.656392191351872"><ele>275.5</ele><time>2026-04-11T05:47:46.999Z</time></trkpt><trkpt lat="43.250527047715245" lon="10.656312272262833"><ele>274.33333333333337</ele><time>2026-04-11T05:47:47.999Z</time></trkpt><trkpt lat="43.25056298336887" lon="10.65621343417156"><ele>273.1666666666667</ele><time>2026-04-11T05:47:48.999Z</time></trkpt><trkpt lat="43.250592226909035" lon="10.656105171111264"><ele>272.0</ele><time>2026-04-11T05:47:49.999Z</time></trkpt><trkpt lat="43.25060693506955" lon="10.656010228714305"><ele>269.5</ele><time>2026-04-11T05:47:50.999Z</time></trkpt><trkpt lat="43.25066850419404" lon="10.655939675011872"><ele>267.0</ele><time>2026-04-11T05:47:51.999Z</time></trkpt><trkpt lat="43.2507309994234" lon="10.655868385048112"><ele>264.5</ele><time>2026-04-11T05:47:52.999Z</time></trkpt><trkpt lat="43.25079125811542" lon="10.655787238173605"><ele>262.0</ele><time>2026-04-11T05:47:53.999Z</time></trkpt><trkpt lat="43.250848938387996" lon="10.655697367234728"><ele>259.5</ele><time>2026-04-11T05:47:54.999Z</time></trkpt><trkpt lat="43.250912248064964" lon="10.65561481988459"><ele>257.0</ele><time>2026-04-11T05:47:55.999Z</time></trkpt><trkpt lat="43.25097184897308" lon="10.655560344236592"><ele>257.0</ele><time>2026-04-11T05:47:56.999Z</time></trkpt><trkpt lat="43.25105680025754" lon="10.655524253655278"><ele>257.0</ele><time>2026-04-11T05:47:57.999Z</time></trkpt><trkpt lat="43.251126234882555" lon="10.655446375625305"><ele>257.0</ele><time>2026-04-11T05:47:58.999Z</time></trkpt><trkpt lat="43.25118255198893" lon="10.655344255175919"><ele>257.0</ele><time>2026-04-11T05:47:59.999Z</time></trkpt><trkpt lat="43.251224808354216" lon="10.655225967057795"><ele>257.0</ele><time>2026-04-11T05:48:00.999Z</time></trkpt><trkpt lat="43.251271069582074" lon="10.65511828429434"><ele>256.4</ele><time>2026-04-11T05:48:01.999Z</time></trkpt><trkpt lat="43.25130359333323" lon="10.655001018924866"><ele>255.79999999999998</ele><time>2026-04-11T05:48:02.999Z</time></trkpt><trkpt lat="43.2513461044707" lon="10.654881031505381"><ele>255.2</ele><time>2026-04-11T05:48:03.999Z</time></trkpt><trkpt lat="43.251400867209995" lon="10.654753066005995"><ele>254.6</ele><time>2026-04-11T05:48:04.999Z</time></trkpt><trkpt lat="43.25145480589708" lon="10.654620683253166"><ele>254.0</ele><time>2026-04-11T05:48:05.999Z</time></trkpt><trkpt lat="43.25151256286526" lon="10.654493575129997"><ele>251.6</ele><time>2026-04-11T05:48:06.999Z</time></trkpt><trkpt lat="43.251577020590894" lon="10.65439232465132"><ele>249.2</ele><time>2026-04-11T05:48:07.999Z</time></trkpt><trkpt lat="43.25164962240576" lon="10.654294248650924"><ele>246.79999999999998</ele><time>2026-04-11T05:48:08.999Z</time></trkpt><trkpt lat="43.25171020882439" lon="10.65419341167648"><ele>244.39999999999998</ele><time>2026-04-11T05:48:09.999Z</time></trkpt><trkpt lat="43.251796224888274" lon="10.654108641846385"><ele>242.0</ele><time>2026-04-11T05:48:10.999Z</time></trkpt><trkpt lat="43.25186385132405" lon="10.654026982503623"><ele>242.00000000000003</ele><time>2026-04-11T05:48:11.999Z</time></trkpt><trkpt lat="43.251927494562" lon="10.653941031319492"><ele>242.0</ele><time>2026-04-11T05:48:12.999Z</time></trkpt><trkpt lat="43.251974865752544" lon="10.653856348739602"><ele>242.0</ele><time>2026-04-11T05:48:13.999Z</time></trkpt><trkpt lat="43.25203002688328" lon="10.653797219036884"><ele>242.0</ele><time>2026-04-11T05:48:14.999Z</time></trkpt><trkpt lat="43.25209936266811" lon="10.653749841520828"><ele>242.00000000000003</ele><time>2026-04-11T05:48:15.999Z</time></trkpt><trkpt lat="43.252172674843294" lon="10.653708488512548"><ele>242.0</ele><time>2026-04-11T05:48:16.999Z</time></trkpt><trkpt lat="43.25224873129547" lon="10.65366211012292"><ele>240.33333333333334</ele><time>2026-04-11T05:48:18Z</time></trkpt><trkpt lat="43.25232329967569" lon="10.653589521865916"><ele>238.66666666666669</ele><time>2026-04-11T05:48:19Z</time></trkpt><trkpt lat="43.2524005349859" lon="10.653529262320381"><ele>237.0</ele><time>2026-04-11T05:48:20Z</time></trkpt><trkpt lat="43.25248060412635" lon="10.653468043623146"><ele>235.33333333333331</ele><time>2026-04-11T05:48:21Z</time></trkpt><trkpt lat="43.25255669605826" lon="10.653399343335469"><ele>233.66666666666666</ele><time>2026-04-11T05:48:22Z</time></trkpt><trkpt lat="43.25262650659871" lon="10.653337363750785"><ele>232.0</ele><time>2026-04-11T05:48:23Z</time></trkpt><trkpt lat="43.25270158623494" lon="10.653300031384449"><ele>231.99999999999997</ele><time>2026-04-11T05:48:24Z</time></trkpt><trkpt lat="43.25278147484217" lon="10.65326575115583"><ele>232.0</ele><time>2026-04-11T05:48:25Z</time></trkpt><trkpt lat="43.25285865891859" lon="10.653237577245445"><ele>232.0</ele><time>2026-04-11T05:48:26Z</time></trkpt><trkpt lat="43.252919990764646" lon="10.653181924245409"><ele>232.0</ele><time>2026-04-11T05:48:27Z</time></trkpt><trkpt lat="43.25289984763441" lon="10.65301996406739"><ele>231.99999999999997</ele><time>2026-04-11T05:48:29Z</time></trkpt><trkpt lat="43.25287059776863" lon="10.652942963768696"><ele>232.0</ele><time>2026-04-11T05:48:30Z</time></trkpt><trkpt lat="43.25283475413748" lon="10.652775551743176"><ele>231.49999999999997</ele><time>2026-04-11T05:48:32Z</time></trkpt><trkpt lat="43.25282038662809" lon="10.65268131207693"><ele>231.0</ele><time>2026-04-11T05:48:33Z</time></trkpt><trkpt lat="43.25283316198477" lon="10.652573180534013"><ele>230.5</ele><time>2026-04-11T05:48:34Z</time></trkpt><trkpt lat="43.25283666208305" lon="10.652457729100467"><ele>230.0</ele><time>2026-04-11T05:48:35Z</time></trkpt><trkpt lat="43.252839278977774" lon="10.652345171172655"><ele>229.49999999999997</ele><time>2026-04-11T05:48:36Z</time></trkpt><trkpt lat="43.252858118351284" lon="10.652220985131224"><ele>229.0</ele><time>2026-04-11T05:48:37Z</time></trkpt><trkpt lat="43.252881591898415" lon="10.652099945236943"><ele>229.0</ele><time>2026-04-11T05:48:38Z</time></trkpt><trkpt lat="43.2528967303529" lon="10.651978005809774"><ele>228.99999999999997</ele><time>2026-04-11T05:48:39Z</time></trkpt><trkpt lat="43.25291317874338" lon="10.651848143775359"><ele>228.99999999999997</ele><time>2026-04-11T05:48:40Z</time></trkpt><trkpt lat="43.25292820463925" lon="10.651716439985139"><ele>229.0</ele><time>2026-04-11T05:48:41Z</time></trkpt><trkpt lat="43.25293878395068" lon="10.651580722912211"><ele>229.0</ele><time>2026-04-11T05:48:42Z</time></trkpt><trkpt lat="43.25294651128436" lon="10.651442327555065"><ele>228.79999999999998</ele><time>2026-04-11T05:48:43Z</time></trkpt><trkpt lat="43.25296052781241" lon="10.651323468727163"><ele>228.59999999999997</ele><time>2026-04-11T05:48:44Z</time></trkpt><trkpt lat="43.2529919654145" lon="10.651213249091464"><ele>228.4</ele><time>2026-04-11T05:48:45Z</time></trkpt><trkpt lat="43.25304197247729" lon="10.651101757216633"><ele>228.2</ele><time>2026-04-11T05:48:46Z</time></trkpt><trkpt lat="43.25309887712077" lon="10.650996659924585"><ele>228.0</ele><time>2026-04-11T05:48:47Z</time></trkpt><trkpt lat="43.253152189065666" lon="10.65087733695584"><ele>227.0</ele><time>2026-04-11T05:48:48Z</time></trkpt><trkpt lat="43.25321170996098" lon="10.650756494359165"><ele>226.0</ele><time>2026-04-11T05:48:49Z</time></trkpt><trkpt lat="43.25327735456616" lon="10.650632518088292"><ele>225.0</ele><time>2026-04-11T05:48:50Z</time></trkpt><trkpt lat="43.25334296434679" lon="10.650502298388197"><ele>224.0</ele><time>2026-04-11T05:48:51Z</time></trkpt><trkpt lat="43.253403061511364" lon="10.650370147172943"><ele>223.0</ele><time>2026-04-11T05:48:52Z</time></trkpt><trkpt lat="43.25345380625065" lon="10.650232847757204"><ele>219.25</ele><time>2026-04-11T05:48:53Z</time></trkpt><trkpt lat="43.25350640759347" lon="10.650087141143374"><ele>215.5</ele><time>2026-04-11T05:48:54Z</time></trkpt><trkpt lat="43.25354363233331" lon="10.649936127167908"><ele>211.75</ele><time>2026-04-11T05:48:55Z</time></trkpt><trkpt lat="43.25356741293763" lon="10.649780258517634"><ele>208.0</ele><time>2026-04-11T05:48:56Z</time></trkpt><trkpt lat="43.25359257341179" lon="10.649631882339943"><ele>208.0</ele><time>2026-04-11T05:48:57Z</time></trkpt><trkpt lat="43.25360560246615" lon="10.649486312363651"><ele>208.0</ele><time>2026-04-11T05:48:58Z</time></trkpt><trkpt lat="43.25359787331377" lon="10.649354733965788"><ele>208.0</ele><time>2026-04-11T05:48:59Z</time></trkpt><trkpt lat="43.25356603636862" lon="10.64922437238081"><ele>208.0</ele><time>2026-04-11T05:49:00Z</time></trkpt><trkpt lat="43.2535217181981" lon="10.649112377433793"><ele>208.0</ele><time>2026-04-11T05:49:01Z</time></trkpt><trkpt lat="43.253508981225295" lon="10.649019732473143"><ele>206.33333333333331</ele><time>2026-04-11T05:49:02Z</time></trkpt><trkpt lat="43.253547082826486" lon="10.648856254365791"><ele>204.66666666666666</ele><time>2026-04-11T05:49:04Z</time></trkpt><trkpt lat="43.2536014994579" lon="10.648780399582368"><ele>203.0</ele><time>2026-04-11T05:49:05Z</time></trkpt><trkpt lat="43.253653396065594" lon="10.648706318632524"><ele>201.33333333333331</ele><time>2026-04-11T05:49:06Z</time></trkpt><trkpt lat="43.25370245771819" lon="10.648606990030347"><ele>199.66666666666666</ele><time>2026-04-11T05:49:07Z</time></trkpt><trkpt lat="43.253737605448904" lon="10.648523513382937"><ele>198.0</ele><time>2026-04-11T05:49:08Z</time></trkpt><trkpt lat="43.25378639100799" lon="10.648437400901706"><ele>197.83333333333334</ele><time>2026-04-11T05:49:09Z</time></trkpt><trkpt lat="43.253833619750615" lon="10.648363563925523"><ele>197.66666666666669</ele><time>2026-04-11T05:49:10Z</time></trkpt><trkpt lat="43.25389223567144" lon="10.648325102150258"><ele>197.5</ele><time>2026-04-11T05:49:11Z</time></trkpt><trkpt lat="43.25398177931113" lon="10.648422629234704"><ele>197.33333333333334</ele><time>2026-04-11T05:49:12.999Z</time></trkpt><trkpt lat="43.25402527940974" lon="10.648560697332499"><ele>197.16666666666669</ele><time>2026-04-11T05:49:14.999Z</time></trkpt><trkpt lat="43.25406467505642" lon="10.64862874825606"><ele>197.0</ele><time>2026-04-11T05:49:15.999Z</time></trkpt><trkpt lat="43.25409754473576" lon="10.648714024421691"><ele>197.8</ele><time>2026-04-11T05:49:16.999Z</time></trkpt><trkpt lat="43.25412235799991" lon="10.648800575952876"><ele>198.6</ele><time>2026-04-11T05:49:17.999Z</time></trkpt><trkpt lat="43.25415958067273" lon="10.64888876350983"><ele>199.4</ele><time>2026-04-11T05:49:18.999Z</time></trkpt><trkpt lat="43.254245233690526" lon="10.649014530006289"><ele>200.20000000000002</ele><time>2026-04-11T05:49:20.999Z</time></trkpt><trkpt lat="43.254348253503906" lon="10.64907061030336"><ele>201.0</ele><time>2026-04-11T05:49:22.999Z</time></trkpt><trkpt lat="43.25441984511579" lon="10.649009717097025"><ele>201.0</ele><time>2026-04-11T05:49:24.999Z</time></trkpt><trkpt lat="43.25444216797902" lon="10.648870859649818"><ele>201.0</ele><time>2026-04-11T05:49:26.999Z</time></trkpt><trkpt lat="43.25443074083545" lon="10.648738066746267"><ele>201.0</ele><time>2026-04-11T05:49:29.999Z</time></trkpt><trkpt lat="43.25440712822486" lon="10.648652856274522"><ele>201.0</ele><time>2026-04-11T05:49:31.999Z</time></trkpt><trkpt lat="43.25433112601426" lon="10.648353580137547"><ele>200.0</ele><time>2026-04-11T05:49:33.999Z</time></trkpt><trkpt lat="43.25429343520903" lon="10.648197017588782"><ele>199.0</ele><time>2026-04-11T05:49:35.999Z</time></trkpt><trkpt lat="43.25427821340858" lon="10.648106758467096"><ele>198.0</ele><time>2026-04-11T05:49:36.999Z</time></trkpt><trkpt lat="43.25426842168548" lon="10.64800195662548"><ele>197.0</ele><time>2026-04-11T05:49:37.999Z</time></trkpt><trkpt lat="43.254253558862786" lon="10.647875450151592"><ele>196.0</ele><time>2026-04-11T05:49:38.999Z</time></trkpt><trkpt lat="43.25423977366479" lon="10.647773401080059"><ele>195.0</ele><time>2026-04-11T05:49:39.999Z</time></trkpt><trkpt lat="43.25422307793953" lon="10.647677978856024"><ele>194.14285714285714</ele><time>2026-04-11T05:49:40.999Z</time></trkpt><trkpt lat="43.25420965164932" lon="10.647577924588504"><ele>193.28571428571428</ele><time>2026-04-11T05:49:41.999Z</time></trkpt><trkpt lat="43.25420983328671" lon="10.647475599015726"><ele>192.42857142857144</ele><time>2026-04-11T05:49:42.999Z</time></trkpt><trkpt lat="43.25421974527074" lon="10.647378733534753"><ele>191.57142857142856</ele><time>2026-04-11T05:49:43.999Z</time></trkpt><trkpt lat="43.25423883361841" lon="10.647276157878547"><ele>190.71428571428572</ele><time>2026-04-11T05:49:44.999Z</time></trkpt><trkpt lat="43.25425535294837" lon="10.64717560563066"><ele>189.85714285714286</ele><time>2026-04-11T05:49:45.999Z</time></trkpt><trkpt lat="43.2542690131302" lon="10.64707898660019"><ele>189.0</ele><time>2026-04-11T05:49:46.999Z</time></trkpt><trkpt lat="43.25428733958908" lon="10.646979466040655"><ele>188.28571428571428</ele><time>2026-04-11T05:49:47.999Z</time></trkpt><trkpt lat="43.25431038356418" lon="10.646886712191959"><ele>187.57142857142856</ele><time>2026-04-11T05:49:48.999Z</time></trkpt><trkpt lat="43.25434908280008" lon="10.646797738091053"><ele>186.85714285714286</ele><time>2026-04-11T05:49:49.999Z</time></trkpt><trkpt lat="43.25437529391436" lon="10.64671230272747"><ele>186.14285714285714</ele><time>2026-04-11T05:49:50.999Z</time></trkpt><trkpt lat="43.25440759992757" lon="10.646623873276987"><ele>185.42857142857142</ele><time>2026-04-11T05:49:51.999Z</time></trkpt><trkpt lat="43.25444263947121" lon="10.64653805741513"><ele>184.71428571428572</ele><time>2026-04-11T05:49:52.999Z</time></trkpt><trkpt lat="43.25446869401009" lon="10.646444639278442"><ele>184.0</ele><time>2026-04-11T05:49:53.999Z</time></trkpt><trkpt lat="43.25449363928214" lon="10.646354769838437"><ele>184.0</ele><time>2026-04-11T05:49:54.999Z</time></trkpt><trkpt lat="43.25452545661321" lon="10.646272414010237"><ele>184.0</ele><time>2026-04-11T05:49:55.999Z</time></trkpt><trkpt lat="43.25451740794668" lon="10.6461704469249"><ele>184.0</ele><time>2026-04-11T05:49:56.999Z</time></trkpt><trkpt lat="43.25449657741326" lon="10.646070790414814"><ele>184.0</ele><time>2026-04-11T05:49:57.999Z</time></trkpt><trkpt lat="43.25448230138866" lon="10.64596003938768"><ele>184.0</ele><time>2026-04-11T05:49:58.999Z</time></trkpt><trkpt lat="43.25446477613272" lon="10.645868289461921"><ele>184.0</ele><time>2026-04-11T05:49:59.999Z</time></trkpt><trkpt lat="43.25446757475628" lon="10.645762082390734"><ele>184.0</ele><time>2026-04-11T05:50:00.999Z</time></trkpt><trkpt lat="43.254480111132146" lon="10.645652411589824"><ele>183.66666666666669</ele><time>2026-04-11T05:50:01.999Z</time></trkpt><trkpt lat="43.254487333175604" lon="10.645550989682777"><ele>183.33333333333334</ele><time>2026-04-11T05:50:02.999Z</time></trkpt><trkpt lat="43.25450156278172" lon="10.645447884017495"><ele>183.0</ele><time>2026-04-11T05:50:03.999Z</time></trkpt><trkpt lat="43.25448300231223" lon="10.645338409669753"><ele>182.66666666666666</ele><time>2026-04-11T05:50:04.999Z</time></trkpt><trkpt lat="43.25447480739686" lon="10.645242351265173"><ele>182.33333333333331</ele><time>2026-04-11T05:50:05.999Z</time></trkpt><trkpt lat="43.2544708349379" lon="10.645139412958875"><ele>182.0</ele><time>2026-04-11T05:50:06.999Z</time></trkpt><trkpt lat="43.254463450856264" lon="10.64504048447549"><ele>182.0</ele><time>2026-04-11T05:50:07.999Z</time></trkpt><trkpt lat="43.25445502041062" lon="10.644936224303121"><ele>182.0</ele><time>2026-04-11T05:50:08.999Z</time></trkpt><trkpt lat="43.25443886317212" lon="10.644841105795896"><ele>182.0</ele><time>2026-04-11T05:50:09.999Z</time></trkpt><trkpt lat="43.254411478050095" lon="10.644747907521799"><ele>182.0</ele><time>2026-04-11T05:50:10.999Z</time></trkpt><trkpt lat="43.25438538090544" lon="10.644649702618823"><ele>182.0</ele><time>2026-04-11T05:50:11.999Z</time></trkpt><trkpt lat="43.25436624076033" lon="10.644542157200515"><ele>182.0</ele><time>2026-04-11T05:50:12.999Z</time></trkpt><trkpt lat="43.25436141899469" lon="10.64444257220556"><ele>181.0</ele><time>2026-04-11T05:50:13.999Z</time></trkpt><trkpt lat="43.25436128533439" lon="10.644353159398083"><ele>180.0</ele><time>2026-04-11T05:50:14.999Z</time></trkpt><trkpt lat="43.25436354280478" lon="10.6442445119489"><ele>179.0</ele><time>2026-04-11T05:50:15.999Z</time></trkpt><trkpt lat="43.254372694123354" lon="10.644144627110785"><ele>178.0</ele><time>2026-04-11T05:50:16.998Z</time></trkpt><trkpt lat="43.254390616803356" lon="10.644047644165719"><ele>177.0</ele><time>2026-04-11T05:50:17.998Z</time></trkpt><trkpt lat="43.25441265828747" lon="10.643958733290063"><ele>176.0</ele><time>2026-04-11T05:50:18.998Z</time></trkpt><trkpt lat="43.25451057004577" lon="10.64389495578128"><ele>176.0</ele><time>2026-04-11T05:50:20.998Z</time></trkpt><trkpt lat="43.254630267024105" lon="10.6439177502887"><ele>176.0</ele><time>2026-04-11T05:50:22.998Z</time></trkpt><trkpt lat="43.25469300649263" lon="10.643943887281866"><ele>176.0</ele><time>2026-04-11T05:50:24Z</time></trkpt><trkpt lat="43.254825879138174" lon="10.643969628595524"><ele>176.0</ele><time>2026-04-11T05:50:26Z</time></trkpt><trkpt lat="43.25489775337766" lon="10.643986607595654"><ele>176.0</ele><time>2026-04-11T05:50:27Z</time></trkpt><trkpt lat="43.25497078116874" lon="10.644012107850616"><ele>178.0</ele><time>2026-04-11T05:50:28Z</time></trkpt><trkpt lat="43.25504607893461" lon="10.644035521426458"><ele>180.0</ele><time>2026-04-11T05:50:29Z</time></trkpt><trkpt lat="43.25511413333454" lon="10.64407162629128"><ele>182.0</ele><time>2026-04-11T05:50:30Z</time></trkpt><trkpt lat="43.25517585942402" lon="10.644109148164432"><ele>184.0</ele><time>2026-04-11T05:50:31Z</time></trkpt><trkpt lat="43.25525041523017" lon="10.644129180097833"><ele>186.0</ele><time>2026-04-11T05:50:32Z</time></trkpt><trkpt lat="43.25531900786775" lon="10.644160896619738"><ele>188.0</ele><time>2026-04-11T05:50:33Z</time></trkpt><trkpt lat="43.25538322578113" lon="10.644177271321466"><ele>190.0</ele><time>2026-04-11T05:50:34Z</time></trkpt><trkpt lat="43.2554866206062" lon="10.644215464569834"><ele>190.0</ele><time>2026-04-11T05:50:36Z</time></trkpt><trkpt lat="43.25555097168568" lon="10.644233430717913"><ele>190.0</ele><time>2026-04-11T05:50:37Z</time></trkpt><trkpt lat="43.255615194401024" lon="10.644234510289706"><ele>190.0</ele><time>2026-04-11T05:50:38Z</time></trkpt><trkpt lat="43.25567863063017" lon="10.644189078695396"><ele>190.0</ele><time>2026-04-11T05:50:39Z</time></trkpt><trkpt lat="43.25572513592936" lon="10.644108046525583"><ele>190.0</ele><time>2026-04-11T05:50:40Z</time></trkpt><trkpt lat="43.25573345338607" lon="10.644014186671248"><ele>190.0</ele><time>2026-04-11T05:50:41Z</time></trkpt><trkpt lat="43.255731635560174" lon="10.643921290008864"><ele>190.0</ele><time>2026-04-11T05:50:42Z</time></trkpt><trkpt lat="43.25569399466887" lon="10.643847142325066"><ele>190.0</ele><time>2026-04-11T05:50:43Z</time></trkpt><trkpt lat="43.255647693280736" lon="10.643771666255686"><ele>190.0</ele><time>2026-04-11T05:50:44Z</time></trkpt><trkpt lat="43.255593365294104" lon="10.643712400154662"><ele>190.0</ele><time>2026-04-11T05:50:45Z</time></trkpt><trkpt lat="43.25552492630542" lon="10.643657847125416"><ele>190.0</ele><time>2026-04-11T05:50:46Z</time></trkpt><trkpt lat="43.255445781003125" lon="10.64361953812913"><ele>190.0</ele><time>2026-04-11T05:50:47Z</time></trkpt><trkpt lat="43.255365298097935" lon="10.64360365110964"><ele>190.0</ele><time>2026-04-11T05:50:48Z</time></trkpt><trkpt lat="43.25529627592716" lon="10.643575845676349"><ele>189.42857142857144</ele><time>2026-04-11T05:50:49Z</time></trkpt><trkpt lat="43.255231026766175" lon="10.643525503789022"><ele>188.85714285714286</ele><time>2026-04-11T05:50:50Z</time></trkpt><trkpt lat="43.25516857869255" lon="10.643464351528927"><ele>188.28571428571428</ele><time>2026-04-11T05:50:51Z</time></trkpt><trkpt lat="43.255106446899" lon="10.643411526034223"><ele>187.71428571428572</ele><time>2026-04-11T05:50:52Z</time></trkpt><trkpt lat="43.255048355729066" lon="10.643350809860062"><ele>187.14285714285714</ele><time>2026-04-11T05:50:53Z</time></trkpt><trkpt lat="43.2549996859782" lon="10.64327560502804"><ele>186.57142857142858</ele><time>2026-04-11T05:50:54Z</time></trkpt><trkpt lat="43.25495651878589" lon="10.643196599293754"><ele>186.0</ele><time>2026-04-11T05:50:55Z</time></trkpt><trkpt lat="43.25490947217413" lon="10.643113007175844"><ele>186.0</ele><time>2026-04-11T05:50:56Z</time></trkpt><trkpt lat="43.254860705647125" lon="10.643035898242147"><ele>186.0</ele><time>2026-04-11T05:50:57Z</time></trkpt><trkpt lat="43.254798684601624" lon="10.642961813447817"><ele>186.0</ele><time>2026-04-11T05:50:58Z</time></trkpt><trkpt lat="43.254736256953805" lon="10.642884504549121"><ele>186.0</ele><time>2026-04-11T05:50:59Z</time></trkpt><trkpt lat="43.25467446060358" lon="10.642833252474848"><ele>186.0</ele><time>2026-04-11T05:51:00Z</time></trkpt><trkpt lat="43.25461376755592" lon="10.642763636258517"><ele>186.0</ele><time>2026-04-11T05:51:01Z</time></trkpt><trkpt lat="43.25457819753914" lon="10.642673351505724"><ele>182.66666666666666</ele><time>2026-04-11T05:51:02Z</time></trkpt><trkpt lat="43.25456521338269" lon="10.642564321859092"><ele>179.33333333333334</ele><time>2026-04-11T05:51:03Z</time></trkpt><trkpt lat="43.25456281238655" lon="10.64245287451084"><ele>176.0</ele><time>2026-04-11T05:51:04Z</time></trkpt><trkpt lat="43.25456968920643" lon="10.642338109658935"><ele>172.66666666666669</ele><time>2026-04-11T05:51:05Z</time></trkpt><trkpt lat="43.25457564452883" lon="10.642217133502275"><ele>169.33333333333334</ele><time>2026-04-11T05:51:06Z</time></trkpt><trkpt lat="43.25458674134817" lon="10.642097306083194"><ele>166.0</ele><time>2026-04-11T05:51:07Z</time></trkpt><trkpt lat="43.254600597898936" lon="10.641978299039808"><ele>165.5</ele><time>2026-04-11T05:51:08Z</time></trkpt><trkpt lat="43.25462223590801" lon="10.641859519177917"><ele>165.0</ele><time>2026-04-11T05:51:09Z</time></trkpt><trkpt lat="43.254650589223985" lon="10.641743528498694"><ele>164.5</ele><time>2026-04-11T05:51:10Z</time></trkpt><trkpt lat="43.25467984417458" lon="10.641628156897958"><ele>164.0</ele><time>2026-04-11T05:51:11Z</time></trkpt><trkpt lat="43.2547115446011" lon="10.641513186487636"><ele>163.5</ele><time>2026-04-11T05:51:12Z</time></trkpt><trkpt lat="43.25474463928596" lon="10.641407647008437"><ele>163.0</ele><time>2026-04-11T05:51:13Z</time></trkpt><trkpt lat="43.254788294858116" lon="10.641312438560776"><ele>165.5</ele><time>2026-04-11T05:51:14Z</time></trkpt><trkpt lat="43.254853077446526" lon="10.641241424952447"><ele>168.0</ele><time>2026-04-11T05:51:15Z</time></trkpt><trkpt lat="43.254924239947144" lon="10.641183466067437"><ele>170.5</ele><time>2026-04-11T05:51:16Z</time></trkpt><trkpt lat="43.25498348656992" lon="10.641110037917645"><ele>173.0</ele><time>2026-04-11T05:51:17Z</time></trkpt><trkpt lat="43.255013122578895" lon="10.641017703886256"><ele>175.5</ele><time>2026-04-11T05:51:18Z</time></trkpt><trkpt lat="43.25500942513444" lon="10.640910840441036"><ele>178.0</ele><time>2026-04-11T05:51:19Z</time></trkpt><trkpt lat="43.254987755305365" lon="10.640812614574157"><ele>177.99999999999997</ele><time>2026-04-11T05:51:20Z</time></trkpt><trkpt lat="43.254947317419806" lon="10.640731900134314"><ele>178.0</ele><time>2026-04-11T05:51:21Z</time></trkpt><trkpt lat="43.25489160097501" lon="10.640679292509457"><ele>178.0</ele><time>2026-04-11T05:51:21.999Z</time></trkpt><trkpt lat="43.25482607206725" lon="10.640642585015959"><ele>178.0</ele><time>2026-04-11T05:51:22.999Z</time></trkpt><trkpt lat="43.25476490951567" lon="10.640602024172228"><ele>178.0</ele><time>2026-04-11T05:51:23.999Z</time></trkpt><trkpt lat="43.2547185686907" lon="10.64053880088092"><ele>177.99999999999997</ele><time>2026-04-11T05:51:24.999Z</time></trkpt><trkpt lat="43.25468736949374" lon="10.640447693006946"><ele>178.0</ele><time>2026-04-11T05:51:25.999Z</time></trkpt><trkpt lat="43.25467478116984" lon="10.640351080888099"><ele>174.83333333333334</ele><time>2026-04-11T05:51:26.999Z</time></trkpt><trkpt lat="43.25469772515665" lon="10.640251539120035"><ele>171.66666666666669</ele><time>2026-04-11T05:51:27.999Z</time></trkpt><trkpt lat="43.25473351710792" lon="10.640148627881766"><ele>168.5</ele><time>2026-04-11T05:51:28.999Z</time></trkpt><trkpt lat="43.25476348637621" lon="10.640047949731658"><ele>165.33333333333334</ele><time>2026-04-11T05:51:29.999Z</time></trkpt><trkpt lat="43.254775468002705" lon="10.639935658104203"><ele>162.16666666666666</ele><time>2026-04-11T05:51:30.999Z</time></trkpt><trkpt lat="43.25478023256057" lon="10.639821448673874"><ele>159.0</ele><time>2026-04-11T05:51:31.999Z</time></trkpt><trkpt lat="43.25478441495672" lon="10.639711342016096"><ele>161.5</ele><time>2026-04-11T05:51:32.999Z</time></trkpt><trkpt lat="43.2547906476037" lon="10.63960378686367"><ele>164.0</ele><time>2026-04-11T05:51:33.999Z</time></trkpt><trkpt lat="43.254821328461546" lon="10.639499071570517"><ele>166.5</ele><time>2026-04-11T05:51:34.999Z</time></trkpt><trkpt lat="43.254875831409066" lon="10.639406609816293"><ele>169.0</ele><time>2026-04-11T05:51:35.999Z</time></trkpt><trkpt lat="43.25493927096672" lon="10.639328563701689"><ele>171.5</ele><time>2026-04-11T05:51:36.999Z</time></trkpt><trkpt lat="43.25498986748304" lon="10.639235566721151"><ele>174.0</ele><time>2026-04-11T05:51:37.999Z</time></trkpt><trkpt lat="43.2550224669059" lon="10.639124979066503"><ele>174.0</ele><time>2026-04-11T05:51:38.999Z</time></trkpt><trkpt lat="43.25502227004275" lon="10.639007276271826"><ele>174.0</ele><time>2026-04-11T05:51:39.999Z</time></trkpt><trkpt lat="43.25503061287907" lon="10.63888992810297"><ele>174.0</ele><time>2026-04-11T05:51:40.999Z</time></trkpt><trkpt lat="43.2550403409561" lon="10.638769291264126"><ele>174.0</ele><time>2026-04-11T05:51:41.999Z</time></trkpt><trkpt lat="43.255033616710115" lon="10.638650739962712"><ele>174.0</ele><time>2026-04-11T05:51:42.999Z</time></trkpt><trkpt lat="43.25502508929605" lon="10.638530126289707"><ele>174.0</ele><time>2026-04-11T05:51:43.999Z</time></trkpt><trkpt lat="43.255019276896235" lon="10.638410634008775"><ele>173.66666666666666</ele><time>2026-04-11T05:51:44.999Z</time></trkpt><trkpt lat="43.2550167805869" lon="10.638291469732081"><ele>173.33333333333334</ele><time>2026-04-11T05:51:45.999Z</time></trkpt><trkpt lat="43.25502309487878" lon="10.638173118088172"><ele>173.0</ele><time>2026-04-11T05:51:46.999Z</time></trkpt><trkpt lat="43.25502385528874" lon="10.638053393603052"><ele>172.66666666666669</ele><time>2026-04-11T05:51:47.999Z</time></trkpt><trkpt lat="43.255017662020116" lon="10.637930687726453"><ele>172.33333333333334</ele><time>2026-04-11T05:51:48.999Z</time></trkpt><trkpt lat="43.255014185155886" lon="10.63781223408834"><ele>172.0</ele><time>2026-04-11T05:51:49.999Z</time></trkpt><trkpt lat="43.25501221084462" lon="10.637693998346082"><ele>171.16666666666669</ele><time>2026-04-11T05:51:50.999Z</time></trkpt><trkpt lat="43.25501535578741" lon="10.637577882562626"><ele>170.33333333333334</ele><time>2026-04-11T05:51:51.999Z</time></trkpt><trkpt lat="43.255033996254895" lon="10.637469225314295"><ele>169.5</ele><time>2026-04-11T05:51:52.999Z</time></trkpt><trkpt lat="43.255083043007566" lon="10.637372149501337"><ele>168.66666666666666</ele><time>2026-04-11T05:51:53.999Z</time></trkpt><trkpt lat="43.255151843070564" lon="10.637291666885922"><ele>167.83333333333331</ele><time>2026-04-11T05:51:54.999Z</time></trkpt><trkpt lat="43.25523195693267" lon="10.637258311418462"><ele>167.0</ele><time>2026-04-11T05:51:55.999Z</time></trkpt><trkpt lat="43.255295231784" lon="10.637187529802386"><ele>167.0</ele><time>2026-04-11T05:51:56.999Z</time></trkpt><trkpt lat="43.25531027299084" lon="10.637086588162546"><ele>167.0</ele><time>2026-04-11T05:51:57.999Z</time></trkpt><trkpt lat="43.255295449858224" lon="10.636964999457271"><ele>167.0</ele><time>2026-04-11T05:51:58.999Z</time></trkpt><trkpt lat="43.255252536091334" lon="10.636863638989174"><ele>167.0</ele><time>2026-04-11T05:51:59.999Z</time></trkpt><trkpt lat="43.255209749835565" lon="10.636768194602865"><ele>167.0</ele><time>2026-04-11T05:52:00.999Z</time></trkpt><trkpt lat="43.25517841333911" lon="10.636660989918216"><ele>167.0</ele><time>2026-04-11T05:52:01.999Z</time></trkpt><trkpt lat="43.255175220724624" lon="10.63654469318979"><ele>166.16666666666666</ele><time>2026-04-11T05:52:02.999Z</time></trkpt><trkpt lat="43.25518963572468" lon="10.636426542832451"><ele>165.33333333333331</ele><time>2026-04-11T05:52:03.999Z</time></trkpt><trkpt lat="43.25521579663561" lon="10.636312322594836"><ele>164.5</ele><time>2026-04-11T05:52:04.999Z</time></trkpt><trkpt lat="43.255246367850404" lon="10.636199135692697"><ele>163.66666666666666</ele><time>2026-04-11T05:52:05.999Z</time></trkpt><trkpt lat="43.25528059592873" lon="10.63608989081455"><ele>162.83333333333334</ele><time>2026-04-11T05:52:06.999Z</time></trkpt><trkpt lat="43.25532068076224" lon="10.63598557876967"><ele>162.0</ele><time>2026-04-11T05:52:07.999Z</time></trkpt><trkpt lat="43.255360197982064" lon="10.635879480996422"><ele>161.16666666666666</ele><time>2026-04-11T05:52:08.999Z</time></trkpt><trkpt lat="43.255411527246586" lon="10.635780342162674"><ele>160.33333333333334</ele><time>2026-04-11T05:52:09.999Z</time></trkpt><trkpt lat="43.25545493155776" lon="10.635672670517373"><ele>159.5</ele><time>2026-04-11T05:52:10.999Z</time></trkpt><trkpt lat="43.25548717301437" lon="10.63556731405931"><ele>158.66666666666669</ele><time>2026-04-11T05:52:11.999Z</time></trkpt><trkpt lat="43.255506220883525" lon="10.63545925685798"><ele>157.83333333333334</ele><time>2026-04-11T05:52:12.999Z</time></trkpt><trkpt lat="43.25552271264035" lon="10.635351835076738"><ele>157.0</ele><time>2026-04-11T05:52:13.999Z</time></trkpt><trkpt lat="43.25554150915364" lon="10.635244724899703"><ele>156.7142857142857</ele><time>2026-04-11T05:52:14.999Z</time></trkpt><trkpt lat="43.25555526724232" lon="10.63514121545059"><ele>156.42857142857142</ele><time>2026-04-11T05:52:15.999Z</time></trkpt><trkpt lat="43.255571962614454" lon="10.635041279977202"><ele>156.14285714285714</ele><time>2026-04-11T05:52:16.999Z</time></trkpt><trkpt lat="43.25557246958314" lon="10.634942756982051"><ele>155.85714285714283</ele><time>2026-04-11T05:52:17.999Z</time></trkpt><trkpt lat="43.255578255261895" lon="10.63484316133872"><ele>155.57142857142856</ele><time>2026-04-11T05:52:18.999Z</time></trkpt><trkpt lat="43.25557187693501" lon="10.634746865107894"><ele>155.28571428571428</ele><time>2026-04-11T05:52:19.999Z</time></trkpt><trkpt lat="43.25555137970077" lon="10.634656741909255"><ele>155.0</ele><time>2026-04-11T05:52:20.999Z</time></trkpt><trkpt lat="43.25553189010732" lon="10.63456200410786"><ele>155.28571428571428</ele><time>2026-04-11T05:52:21.999Z</time></trkpt><trkpt lat="43.2555155530569" lon="10.634466777176462"><ele>155.57142857142856</ele><time>2026-04-11T05:52:22.999Z</time></trkpt><trkpt lat="43.25550601649606" lon="10.634367870471866"><ele>155.85714285714283</ele><time>2026-04-11T05:52:23.999Z</time></trkpt><trkpt lat="43.25551173351179" lon="10.63426775306937"><ele>156.14285714285714</ele><time>2026-04-11T05:52:24.998Z</time></trkpt><trkpt lat="43.255523865496" lon="10.634168478841355"><ele>156.42857142857142</ele><time>2026-04-11T05:52:25.998Z</time></trkpt><trkpt lat="43.25554401112225" lon="10.634073358233117"><ele>156.7142857142857</ele><time>2026-04-11T05:52:26.998Z</time></trkpt><trkpt lat="43.25557336513176" lon="10.633983813561127"><ele>157.0</ele><time>2026-04-11T05:52:27.998Z</time></trkpt><trkpt lat="43.25561063713381" lon="10.63390037858787"><ele>158.42857142857142</ele><time>2026-04-11T05:52:28.998Z</time></trkpt><trkpt lat="43.255657757909304" lon="10.63382662267622"><ele>159.85714285714286</ele><time>2026-04-11T05:52:30Z</time></trkpt><trkpt lat="43.25571209771799" lon="10.633769354358078"><ele>161.28571428571428</ele><time>2026-04-11T05:52:31Z</time></trkpt><trkpt lat="43.255761419224974" lon="10.633705240871608"><ele>162.71428571428572</ele><time>2026-04-11T05:52:32Z</time></trkpt><trkpt lat="43.25579308075373" lon="10.633623960427212"><ele>164.14285714285714</ele><time>2026-04-11T05:52:33Z</time></trkpt><trkpt lat="43.25581276748511" lon="10.63354009830345"><ele>165.57142857142856</ele><time>2026-04-11T05:52:34Z</time></trkpt><trkpt lat="43.25581403509645" lon="10.633438262982564"><ele>167.0</ele><time>2026-04-11T05:52:35Z</time></trkpt><trkpt lat="43.25578409256741" lon="10.633337954839195"><ele>167.0</ele><time>2026-04-11T05:52:36Z</time></trkpt><trkpt lat="43.25577056043525" lon="10.633242467947017"><ele>167.0</ele><time>2026-04-11T05:52:37Z</time></trkpt><trkpt lat="43.255750881086485" lon="10.633142296545687"><ele>167.0</ele><time>2026-04-11T05:52:38Z</time></trkpt><trkpt lat="43.25573707473876" lon="10.633036391597946"><ele>167.0</ele><time>2026-04-11T05:52:39Z</time></trkpt><trkpt lat="43.25572456628902" lon="10.632937776416295"><ele>167.0</ele><time>2026-04-11T05:52:40Z</time></trkpt><trkpt lat="43.255711038035166" lon="10.63283579094468"><ele>167.0</ele><time>2026-04-11T05:52:41Z</time></trkpt><trkpt lat="43.25569891113467" lon="10.63273048807432"><ele>167.14285714285714</ele><time>2026-04-11T05:52:42Z</time></trkpt><trkpt lat="43.25568521740549" lon="10.632633170778407"><ele>167.28571428571428</ele><time>2026-04-11T05:52:43Z</time></trkpt><trkpt lat="43.25567345772025" lon="10.632533061573765"><ele>167.42857142857144</ele><time>2026-04-11T05:52:44Z</time></trkpt><trkpt lat="43.25566117667934" lon="10.632436599009795"><ele>167.57142857142856</ele><time>2026-04-11T05:52:45Z</time></trkpt><trkpt lat="43.25565625406649" lon="10.632342015051895"><ele>167.71428571428572</ele><time>2026-04-11T05:52:46Z</time></trkpt><trkpt lat="43.25566401088119" lon="10.6322510763759"><ele>167.85714285714286</ele><time>2026-04-11T05:52:47Z</time></trkpt><trkpt lat="43.25567786854324" lon="10.632152189879196"><ele>168.0</ele><time>2026-04-11T05:52:48Z</time></trkpt><trkpt lat="43.25569480597849" lon="10.632060874307923"><ele>168.14285714285714</ele><time>2026-04-11T05:52:49Z</time></trkpt><trkpt lat="43.25571356409898" lon="10.631965682585658"><ele>168.28571428571428</ele><time>2026-04-11T05:52:50Z</time></trkpt><trkpt lat="43.25571978683344" lon="10.631867582184057"><ele>168.42857142857144</ele><time>2026-04-11T05:52:51Z</time></trkpt><trkpt lat="43.255728974463246" lon="10.631774151191125"><ele>168.57142857142856</ele><time>2026-04-11T05:52:52Z</time></trkpt><trkpt lat="43.2557407013415" lon="10.631679918592178"><ele>168.71428571428572</ele><time>2026-04-11T05:52:53Z</time></trkpt><trkpt lat="43.25575528762896" lon="10.631589381497221"><ele>168.85714285714286</ele><time>2026-04-11T05:52:54Z</time></trkpt><trkpt lat="43.25576779667731" lon="10.631491296867342"><ele>169.0</ele><time>2026-04-11T05:52:55Z</time></trkpt><trkpt lat="43.255780784639434" lon="10.631402881671237"><ele>169.0</ele><time>2026-04-11T05:52:56Z</time></trkpt><trkpt lat="43.255790817319486" lon="10.631310478920357"><ele>169.0</ele><time>2026-04-11T05:52:57Z</time></trkpt><trkpt lat="43.25579968000191" lon="10.631219916813242"><ele>169.0</ele><time>2026-04-11T05:52:58Z</time></trkpt><trkpt lat="43.2558207942742" lon="10.631132769066715"><ele>169.0</ele><time>2026-04-11T05:52:59Z</time></trkpt><trkpt lat="43.255851732284604" lon="10.631044008715312"><ele>169.0</ele><time>2026-04-11T05:53:00Z</time></trkpt><trkpt lat="43.25589128585303" lon="10.63096921173246"><ele>169.0</ele><time>2026-04-11T05:53:01Z</time></trkpt><trkpt lat="43.25593879248743" lon="10.630895436835193"><ele>169.0</ele><time>2026-04-11T05:53:02Z</time></trkpt><trkpt lat="43.25604262256861" lon="10.6308006693838"><ele>167.6</ele><time>2026-04-11T05:53:04Z</time></trkpt><trkpt lat="43.25609694377368" lon="10.630752721980162"><ele>166.2</ele><time>2026-04-11T05:53:05Z</time></trkpt><trkpt lat="43.25615120115552" lon="10.630697612052902"><ele>164.79999999999998</ele><time>2026-04-11T05:53:06Z</time></trkpt><trkpt lat="43.256218821732176" lon="10.63057735200204"><ele>163.39999999999998</ele><time>2026-04-11T05:53:08Z</time></trkpt><trkpt lat="43.25620779867054" lon="10.630417865082185"><ele>162.0</ele><time>2026-04-11T05:53:10Z</time></trkpt><trkpt lat="43.256179668984686" lon="10.630255644907441"><ele>161.42857142857144</ele><time>2026-04-11T05:53:12Z</time></trkpt><trkpt lat="43.256202383968606" lon="10.630162427564153"><ele>160.85714285714286</ele><time>2026-04-11T05:53:13Z</time></trkpt><trkpt lat="43.25621729608267" lon="10.630070729506135"><ele>160.28571428571428</ele><time>2026-04-11T05:53:14Z</time></trkpt><trkpt lat="43.25622663161255" lon="10.629977445993958"><ele>159.71428571428572</ele><time>2026-04-11T05:53:15Z</time></trkpt><trkpt lat="43.256221998906895" lon="10.629888430401586"><ele>159.14285714285714</ele><time>2026-04-11T05:53:16Z</time></trkpt><trkpt lat="43.25621078820737" lon="10.62979300654709"><ele>158.57142857142858</ele><time>2026-04-11T05:53:17Z</time></trkpt><trkpt lat="43.25620313472077" lon="10.629700850894892"><ele>158.0</ele><time>2026-04-11T05:53:18Z</time></trkpt><trkpt lat="43.256194457317655" lon="10.629613240793503"><ele>158.0</ele><time>2026-04-11T05:53:19Z</time></trkpt><trkpt lat="43.25617821928081" lon="10.629519758149378"><ele>158.0</ele><time>2026-04-11T05:53:20Z</time></trkpt><trkpt lat="43.25615739636799" lon="10.629432711966768"><ele>158.0</ele><time>2026-04-11T05:53:21Z</time></trkpt><trkpt lat="43.25613811186427" lon="10.62934040953931"><ele>158.0</ele><time>2026-04-11T05:53:22Z</time></trkpt><trkpt lat="43.25611382836181" lon="10.629254157144599"><ele>158.0</ele><time>2026-04-11T05:53:23Z</time></trkpt><trkpt lat="43.25605162201557" lon="10.629102658429717"><ele>158.0</ele><time>2026-04-11T05:53:25Z</time></trkpt><trkpt lat="43.25601274081271" lon="10.629022664935748"><ele>158.2857142857143</ele><time>2026-04-11T05:53:25.999Z</time></trkpt><trkpt lat="43.25598421845763" lon="10.628939246877387"><ele>158.57142857142858</ele><time>2026-04-11T05:53:26.999Z</time></trkpt><trkpt lat="43.2559716798559" lon="10.628851893359636"><ele>158.85714285714286</ele><time>2026-04-11T05:53:27.999Z</time></trkpt><trkpt lat="43.25595961690353" lon="10.62876235457139"><ele>159.14285714285717</ele><time>2026-04-11T05:53:28.999Z</time></trkpt><trkpt lat="43.25595787326747" lon="10.628674479333396"><ele>159.42857142857144</ele><time>2026-04-11T05:53:29.999Z</time></trkpt><trkpt lat="43.255960323104006" lon="10.628584732454307"><ele>159.71428571428572</ele><time>2026-04-11T05:53:30.999Z</time></trkpt><trkpt lat="43.255970934264624" lon="10.62849459572616"><ele>160.0</ele><time>2026-04-11T05:53:31.999Z</time></trkpt><trkpt lat="43.255993731450566" lon="10.628400691352834"><ele>160.16666666666669</ele><time>2026-04-11T05:53:32.999Z</time></trkpt><trkpt lat="43.2560359094837" lon="10.628317792433563"><ele>160.33333333333334</ele><time>2026-04-11T05:53:33.999Z</time></trkpt><trkpt lat="43.25607367771791" lon="10.628152374272142"><ele>160.5</ele><time>2026-04-11T05:53:35.999Z</time></trkpt><trkpt lat="43.25608122498229" lon="10.628062035004326"><ele>160.66666666666666</ele><time>2026-04-11T05:53:36.999Z</time></trkpt><trkpt lat="43.2560886754527" lon="10.627970337831757"><ele>160.83333333333331</ele><time>2026-04-11T05:53:37.999Z</time></trkpt><trkpt lat="43.25608547211909" lon="10.627877959415562"><ele>161.0</ele><time>2026-04-11T05:53:38.999Z</time></trkpt><trkpt lat="43.25606274421317" lon="10.627789409906278"><ele>161.0</ele><time>2026-04-11T05:53:39.999Z</time></trkpt><trkpt lat="43.25603815017173" lon="10.627695300561106"><ele>161.0</ele><time>2026-04-11T05:53:40.999Z</time></trkpt><trkpt lat="43.25600170972246" lon="10.627604798641014"><ele>161.0</ele><time>2026-04-11T05:53:41.999Z</time></trkpt><trkpt lat="43.255953035384415" lon="10.627527268008262"><ele>161.0</ele><time>2026-04-11T05:53:42.999Z</time></trkpt><trkpt lat="43.25591099966507" lon="10.627453505583569"><ele>161.0</ele><time>2026-04-11T05:53:43.999Z</time></trkpt><trkpt lat="43.255857629286794" lon="10.627369242293488"><ele>161.0</ele><time>2026-04-11T05:53:44.999Z</time></trkpt><trkpt lat="43.25581253356" lon="10.627281380421822"><ele>161.0</ele><time>2026-04-11T05:53:45.999Z</time></trkpt><trkpt lat="43.25577237696049" lon="10.627200948154186"><ele>161.0</ele><time>2026-04-11T05:53:46.999Z</time></trkpt><trkpt lat="43.25572069094686" lon="10.627129122253606"><ele>161.0</ele><time>2026-04-11T05:53:47.999Z</time></trkpt><trkpt lat="43.25569540189751" lon="10.627037672143278"><ele>161.0</ele><time>2026-04-11T05:53:48.999Z</time></trkpt><trkpt lat="43.25567731360875" lon="10.626944572843776"><ele>161.0</ele><time>2026-04-11T05:53:49.999Z</time></trkpt><trkpt lat="43.255676446092735" lon="10.626781669907414"><ele>161.0</ele><time>2026-04-11T05:53:51.999Z</time></trkpt><trkpt lat="43.255744004743136" lon="10.626666102706617"><ele>161.0</ele><time>2026-04-11T05:53:53.999Z</time></trkpt><trkpt lat="43.25586612106107" lon="10.62679591771624"><ele>161.0</ele><time>2026-04-11T05:53:54.999Z</time></trkpt><trkpt lat="43.25595860534594" lon="10.626833591068573"><ele>161.0</ele><time>2026-04-11T05:53:56.999Z</time></trkpt><trkpt lat="43.25602890649557" lon="10.626852381677871"><ele>161.0</ele><time>2026-04-11T05:53:57.999Z</time></trkpt><trkpt lat="43.25609079332822" lon="10.626868923235032"><ele>161.0</ele><time>2026-04-11T05:53:58.999Z</time></trkpt><trkpt lat="43.25615943921288" lon="10.626889454972206"><ele>161.0</ele><time>2026-04-11T05:53:59.999Z</time></trkpt><trkpt lat="43.25623265571598" lon="10.626915842858352"><ele>161.0</ele><time>2026-04-11T05:54:00.999Z</time></trkpt><trkpt lat="43.25630218545586" lon="10.62695013258501"><ele>161.0</ele><time>2026-04-11T05:54:01.999Z</time></trkpt><trkpt lat="43.25637145652276" lon="10.626989217394215"><ele>161.0</ele><time>2026-04-11T05:54:02.999Z</time></trkpt><trkpt lat="43.256443794690945" lon="10.627035735446444"><ele>161.0</ele><time>2026-04-11T05:54:03.999Z</time></trkpt><trkpt lat="43.256515143753695" lon="10.627086273715667"><ele>161.0</ele><time>2026-04-11T05:54:04.999Z</time></trkpt><trkpt lat="43.256583922488" lon="10.627140214530206"><ele>162.0</ele><time>2026-04-11T05:54:05.999Z</time></trkpt><trkpt lat="43.25664974288406" lon="10.627198090119375"><ele>163.0</ele><time>2026-04-11T05:54:06.999Z</time></trkpt><trkpt lat="43.256714492386934" lon="10.627261735238571"><ele>164.0</ele><time>2026-04-11T05:54:07.999Z</time></trkpt><trkpt lat="43.25677562495357" lon="10.627328609615072"><ele>165.0</ele><time>2026-04-11T05:54:08.999Z</time></trkpt><trkpt lat="43.2568380737375" lon="10.627402824389877"><ele>166.0</ele><time>2026-04-11T05:54:09.999Z</time></trkpt><trkpt lat="43.256897215740956" lon="10.627479621258981"><ele>167.0</ele><time>2026-04-11T05:54:10.999Z</time></trkpt><trkpt lat="43.25695262004403" lon="10.627558347320909"><ele>167.0</ele><time>2026-04-11T05:54:11.999Z</time></trkpt><trkpt lat="43.25700189847509" lon="10.6276367600092"><ele>167.0</ele><time>2026-04-11T05:54:12.999Z</time></trkpt><trkpt lat="43.25704504931096" lon="10.627716365864275"><ele>167.0</ele><time>2026-04-11T05:54:13.999Z</time></trkpt><trkpt lat="43.2570851842697" lon="10.627803637052576"><ele>167.0</ele><time>2026-04-11T05:54:14.999Z</time></trkpt><trkpt lat="43.25712006692104" lon="10.627890105450943"><ele>167.0</ele><time>2026-04-11T05:54:15.999Z</time></trkpt><trkpt lat="43.25714865929196" lon="10.627972186047801"><ele>167.0</ele><time>2026-04-11T05:54:16.999Z</time></trkpt><trkpt lat="43.25717923408382" lon="10.62805829301139"><ele>167.0</ele><time>2026-04-11T05:54:17.999Z</time></trkpt><trkpt lat="43.257207672666766" lon="10.6281412325642"><ele>167.33333333333331</ele><time>2026-04-11T05:54:18.999Z</time></trkpt><trkpt lat="43.257251214685226" lon="10.628312482806047"><ele>167.66666666666666</ele><time>2026-04-11T05:54:20.999Z</time></trkpt><trkpt lat="43.25727573385803" lon="10.62841258824697"><ele>168.0</ele><time>2026-04-11T05:54:21.999Z</time></trkpt><trkpt lat="43.25730524810426" lon="10.62851007823401"><ele>168.33333333333334</ele><time>2026-04-11T05:54:22.999Z</time></trkpt><trkpt lat="43.25733860918316" lon="10.62859931716811"><ele>168.66666666666669</ele><time>2026-04-11T05:54:23.999Z</time></trkpt><trkpt lat="43.25739405800806" lon="10.628689417787092"><ele>169.0</ele><time>2026-04-11T05:54:24.999Z</time></trkpt><trkpt lat="43.257449294097796" lon="10.628763042649403"><ele>169.0</ele><time>2026-04-11T05:54:25.999Z</time></trkpt><trkpt lat="43.257510048498034" lon="10.628830652288135"><ele>169.0</ele><time>2026-04-11T05:54:26.999Z</time></trkpt><trkpt lat="43.25758008745696" lon="10.62888750006912"><ele>169.0</ele><time>2026-04-11T05:54:27.999Z</time></trkpt><trkpt lat="43.25763583203267" lon="10.628947729517263"><ele>169.0</ele><time>2026-04-11T05:54:28.998Z</time></trkpt><trkpt lat="43.257693551344126" lon="10.629021729199055"><ele>169.0</ele><time>2026-04-11T05:54:29.998Z</time></trkpt><trkpt lat="43.2577553924815" lon="10.629085279961492"><ele>169.0</ele><time>2026-04-11T05:54:30.998Z</time></trkpt><trkpt lat="43.257809873610064" lon="10.629146580474236"><ele>169.0</ele><time>2026-04-11T05:54:31.998Z</time></trkpt><trkpt lat="43.25787213605787" lon="10.6292096231273"><ele>169.0</ele><time>2026-04-11T05:54:32.998Z</time></trkpt><trkpt lat="43.2579438549572" lon="10.62928126097829"><ele>169.0</ele><time>2026-04-11T05:54:33.998Z</time></trkpt><trkpt lat="43.25800900165771" lon="10.62936374399163"><ele>169.0</ele><time>2026-04-11T05:54:34.998Z</time></trkpt><trkpt lat="43.25807362476717" lon="10.629432951780498"><ele>169.0</ele><time>2026-04-11T05:54:36Z</time></trkpt><trkpt lat="43.25812979202563" lon="10.629512379948867"><ele>169.0</ele><time>2026-04-11T05:54:37Z</time></trkpt><trkpt lat="43.25817117063674" lon="10.629599179024314"><ele>168.0</ele><time>2026-04-11T05:54:38Z</time></trkpt><trkpt lat="43.25818609103693" lon="10.629707277517776"><ele>167.0</ele><time>2026-04-11T05:54:39Z</time></trkpt><trkpt lat="43.25821905864952" lon="10.629806180486543"><ele>166.0</ele><time>2026-04-11T05:54:40Z</time></trkpt><trkpt lat="43.2582719466373" lon="10.629881132495425"><ele>165.0</ele><time>2026-04-11T05:54:41Z</time></trkpt><trkpt lat="43.25830592710942" lon="10.629965481564808"><ele>164.0</ele><time>2026-04-11T05:54:42Z</time></trkpt><trkpt lat="43.2583667764737" lon="10.630045532967003"><ele>163.0</ele><time>2026-04-11T05:54:43Z</time></trkpt><trkpt lat="43.25842767744499" lon="10.63012089010341"><ele>163.0</ele><time>2026-04-11T05:54:44Z</time></trkpt><trkpt lat="43.2584881957889" lon="10.630202965831064"><ele>163.0</ele><time>2026-04-11T05:54:45Z</time></trkpt><trkpt lat="43.25854773267233" lon="10.630280446802773"><ele>163.0</ele><time>2026-04-11T05:54:46Z</time></trkpt><trkpt lat="43.25860568196737" lon="10.630351396022629"><ele>163.0</ele><time>2026-04-11T05:54:47Z</time></trkpt><trkpt lat="43.2586687097307" lon="10.630408069265894"><ele>163.0</ele><time>2026-04-11T05:54:48Z</time></trkpt><trkpt lat="43.25874674998292" lon="10.630431248954801"><ele>163.0</ele><time>2026-04-11T05:54:49Z</time></trkpt><trkpt lat="43.258821368915385" lon="10.630421017090056"><ele>162.33333333333334</ele><time>2026-04-11T05:54:50Z</time></trkpt><trkpt lat="43.25889654801564" lon="10.630375584245881"><ele>161.66666666666669</ele><time>2026-04-11T05:54:51Z</time></trkpt><trkpt lat="43.25896761180421" lon="10.63033026573436"><ele>161.0</ele><time>2026-04-11T05:54:52Z</time></trkpt><trkpt lat="43.25903192182689" lon="10.630267229066934"><ele>160.33333333333334</ele><time>2026-04-11T05:54:53Z</time></trkpt><trkpt lat="43.259091313483324" lon="10.630201916230897"><ele>159.66666666666666</ele><time>2026-04-11T05:54:54Z</time></trkpt><trkpt lat="43.259152687118686" lon="10.630146294847366"><ele>159.0</ele><time>2026-04-11T05:54:55Z</time></trkpt><trkpt lat="43.259218537363644" lon="10.63009498481228"><ele>159.0</ele><time>2026-04-11T05:54:56Z</time></trkpt><trkpt lat="43.25928468692888" lon="10.630057388380859"><ele>159.0</ele><time>2026-04-11T05:54:57Z</time></trkpt><trkpt lat="43.25935458924241" lon="10.630034419705161"><ele>159.0</ele><time>2026-04-11T05:54:58Z</time></trkpt><trkpt lat="43.25942994093347" lon="10.63002078506933"><ele>159.0</ele><time>2026-04-11T05:54:59Z</time></trkpt><trkpt lat="43.259498494813215" lon="10.629993016872413"><ele>159.0</ele><time>2026-04-11T05:55:00Z</time></trkpt><trkpt lat="43.25957302208131" lon="10.629937015104634"><ele>159.0</ele><time>2026-04-11T05:55:01Z</time></trkpt><trkpt lat="43.25962486580859" lon="10.629875347756157"><ele>159.0</ele><time>2026-04-11T05:55:02Z</time></trkpt><trkpt lat="43.259671180949134" lon="10.629801952187536"><ele>159.0</ele><time>2026-04-11T05:55:03Z</time></trkpt><trkpt lat="43.25970152496076" lon="10.629705515224185"><ele>159.0</ele><time>2026-04-11T05:55:04Z</time></trkpt><trkpt lat="43.25972498849467" lon="10.629602932549362"><ele>159.0</ele><time>2026-04-11T05:55:05Z</time></trkpt><trkpt lat="43.25974231051418" lon="10.629508310085484"><ele>159.0</ele><time>2026-04-11T05:55:06Z</time></trkpt><trkpt lat="43.25977427938369" lon="10.62942401988723"><ele>159.0</ele><time>2026-04-11T05:55:07Z</time></trkpt><trkpt lat="43.25978888226496" lon="10.629305605778672"><ele>159.0</ele><time>2026-04-11T05:55:08Z</time></trkpt><trkpt lat="43.25980090715771" lon="10.629219667215956"><ele>159.0</ele><time>2026-04-11T05:55:09Z</time></trkpt><trkpt lat="43.25982122437056" lon="10.629059231448393"><ele>159.5</ele><time>2026-04-11T05:55:11Z</time></trkpt><trkpt lat="43.25984913891317" lon="10.628974743493893"><ele>160.0</ele><time>2026-04-11T05:55:12Z</time></trkpt><trkpt lat="43.2598437184885" lon="10.628807032713834"><ele>160.5</ele><time>2026-04-11T05:55:14Z</time></trkpt><trkpt lat="43.25981842403107" lon="10.628719420396983"><ele>161.0</ele><time>2026-04-11T05:55:15Z</time></trkpt><trkpt lat="43.25976893781725" lon="10.628638853976383"><ele>161.5</ele><time>2026-04-11T05:55:16Z</time></trkpt><trkpt lat="43.259755061591044" lon="10.62853651627669"><ele>162.0</ele><time>2026-04-11T05:55:17Z</time></trkpt><trkpt lat="43.25974045194147" lon="10.628442623525153"><ele>162.0</ele><time>2026-04-11T05:55:18Z</time></trkpt><trkpt lat="43.25974685159706" lon="10.628344544606417"><ele>162.0</ele><time>2026-04-11T05:55:19Z</time></trkpt><trkpt lat="43.259777615954015" lon="10.628263476496743"><ele>162.0</ele><time>2026-04-11T05:55:20Z</time></trkpt><trkpt lat="43.25980142341882" lon="10.62816962391682"><ele>162.0</ele><time>2026-04-11T05:55:21Z</time></trkpt><trkpt lat="43.25982416212989" lon="10.628068583388579"><ele>162.0</ele><time>2026-04-11T05:55:22Z</time></trkpt><trkpt lat="43.25984148080677" lon="10.627964173482619"><ele>162.0</ele><time>2026-04-11T05:55:23Z</time></trkpt><trkpt lat="43.259839775302275" lon="10.62785836815786"><ele>162.0</ele><time>2026-04-11T05:55:24Z</time></trkpt><trkpt lat="43.25983235571845" lon="10.627760057651537"><ele>162.0</ele><time>2026-04-11T05:55:25Z</time></trkpt><trkpt lat="43.25982831884844" lon="10.62766144495643"><ele>162.0</ele><time>2026-04-11T05:55:26Z</time></trkpt><trkpt lat="43.25981828402832" lon="10.627565526938076"><ele>162.0</ele><time>2026-04-11T05:55:27Z</time></trkpt><trkpt lat="43.25980751257489" lon="10.627469593353059"><ele>162.0</ele><time>2026-04-11T05:55:28Z</time></trkpt><trkpt lat="43.25979693468886" lon="10.6273745819433"><ele>162.0</ele><time>2026-04-11T05:55:29Z</time></trkpt><trkpt lat="43.25977499603794" lon="10.627274815816273"><ele>162.0</ele><time>2026-04-11T05:55:30Z</time></trkpt><trkpt lat="43.25975554976045" lon="10.627176072571617"><ele>162.0</ele><time>2026-04-11T05:55:31Z</time></trkpt><trkpt lat="43.25974144572548" lon="10.627078614684162"><ele>160.28571428571428</ele><time>2026-04-11T05:55:32Z</time></trkpt><trkpt lat="43.25972965176593" lon="10.626977588848185"><ele>158.57142857142856</ele><time>2026-04-11T05:55:32.999Z</time></trkpt><trkpt lat="43.25971881961808" lon="10.62687594024266"><ele>156.85714285714283</ele><time>2026-04-11T05:55:33.999Z</time></trkpt><trkpt lat="43.25969934238984" lon="10.62678839938789"><ele>155.14285714285714</ele><time>2026-04-11T05:55:34.999Z</time></trkpt><trkpt lat="43.25969316623776" lon="10.626691688045439"><ele>153.42857142857142</ele><time>2026-04-11T05:55:35.999Z</time></trkpt><trkpt lat="43.25970411729712" lon="10.626595737732965"><ele>151.7142857142857</ele><time>2026-04-11T05:55:36.999Z</time></trkpt><trkpt lat="43.25975171137354" lon="10.626519278766557"><ele>150.0</ele><time>2026-04-11T05:55:37.999Z</time></trkpt><trkpt lat="43.25987686954755" lon="10.626567463613167"><ele>149.99999999999997</ele><time>2026-04-11T05:55:39.999Z</time></trkpt><trkpt lat="43.259935985422395" lon="10.626600467992628"><ele>150.0</ele><time>2026-04-11T05:55:40.999Z</time></trkpt><trkpt lat="43.259999884466275" lon="10.626631609672453"><ele>150.0</ele><time>2026-04-11T05:55:41.999Z</time></trkpt><trkpt lat="43.26007324507142" lon="10.626668499844154"><ele>150.0</ele><time>2026-04-11T05:55:42.999Z</time></trkpt><trkpt lat="43.260145424385804" lon="10.626702842102237"><ele>150.0</ele><time>2026-04-11T05:55:43.999Z</time></trkpt><trkpt lat="43.260214237871786" lon="10.626731587054499"><ele>149.99999999999997</ele><time>2026-04-11T05:55:44.999Z</time></trkpt><trkpt lat="43.26028723158993" lon="10.626759290187483"><ele>150.0</ele><time>2026-04-11T05:55:45.999Z</time></trkpt><trkpt lat="43.26035626986296" lon="10.626785458249781"><ele>150.0</ele><time>2026-04-11T05:55:46.999Z</time></trkpt><trkpt lat="43.26042833365704" lon="10.626812727421907"><ele>150.0</ele><time>2026-04-11T05:55:47.999Z</time></trkpt><trkpt lat="43.26049254182014" lon="10.626840530369671"><ele>150.0</ele><time>2026-04-11T05:55:48.999Z</time></trkpt><trkpt lat="43.26055709130984" lon="10.626877022525303"><ele>150.0</ele><time>2026-04-11T05:55:49.999Z</time></trkpt><trkpt lat="43.260623700565496" lon="10.62692310090084"><ele>150.0</ele><time>2026-04-11T05:55:50.999Z</time></trkpt><trkpt lat="43.260674950409225" lon="10.626979692118915"><ele>150.0</ele><time>2026-04-11T05:55:51.999Z</time></trkpt><trkpt lat="43.26075801581172" lon="10.627119327029723"><ele>151.16666666666666</ele><time>2026-04-11T05:55:53.999Z</time></trkpt><trkpt lat="43.260758863486785" lon="10.62722017631706"><ele>152.33333333333334</ele><time>2026-04-11T05:55:54.999Z</time></trkpt><trkpt lat="43.260772797357674" lon="10.627316904767921"><ele>153.5</ele><time>2026-04-11T05:55:55.999Z</time></trkpt><trkpt lat="43.26079422001298" lon="10.627413822880834"><ele>154.66666666666669</ele><time>2026-04-11T05:55:56.999Z</time></trkpt><trkpt lat="43.26082156187237" lon="10.62750793090608"><ele>155.83333333333334</ele><time>2026-04-11T05:55:57.999Z</time></trkpt><trkpt lat="43.2608705095496" lon="10.627591619801676"><ele>157.0</ele><time>2026-04-11T05:55:58.999Z</time></trkpt><trkpt lat="43.26093905972555" lon="10.627650005554921"><ele>157.0</ele><time>2026-04-11T05:55:59.999Z</time></trkpt><trkpt lat="43.26099383936371" lon="10.627717697281806"><ele>157.0</ele><time>2026-04-11T05:56:00.999Z</time></trkpt><trkpt lat="43.2610455419668" lon="10.627777999881848"><ele>157.0</ele><time>2026-04-11T05:56:01.999Z</time></trkpt><trkpt lat="43.26109904316865" lon="10.627831103377478"><ele>157.0</ele><time>2026-04-11T05:56:02.999Z</time></trkpt><trkpt lat="43.26114906691766" lon="10.627886666946036"><ele>157.0</ele><time>2026-04-11T05:56:03.999Z</time></trkpt><trkpt lat="43.2612424770477" lon="10.628010417271682"><ele>157.0</ele><time>2026-04-11T05:56:05.999Z</time></trkpt><trkpt lat="43.261305581553" lon="10.628141365140339"><ele>158.0</ele><time>2026-04-11T05:56:07.999Z</time></trkpt><trkpt lat="43.26130773188002" lon="10.628229392217783"><ele>159.0</ele><time>2026-04-11T05:56:08.999Z</time></trkpt><trkpt lat="43.26129107484304" lon="10.628320919086706"><ele>160.0</ele><time>2026-04-11T05:56:09.999Z</time></trkpt><trkpt lat="43.26124100936251" lon="10.628377436911208"><ele>161.0</ele><time>2026-04-11T05:56:10.999Z</time></trkpt><trkpt lat="43.261167746463165" lon="10.628527090779778"><ele>162.0</ele><time>2026-04-11T05:56:12.999Z</time></trkpt><trkpt lat="43.26109802366802" lon="10.628667277600385"><ele>162.14285714285714</ele><time>2026-04-11T05:56:14.999Z</time></trkpt><trkpt lat="43.26105738614316" lon="10.628738030251965"><ele>162.28571428571428</ele><time>2026-04-11T05:56:15.999Z</time></trkpt><trkpt lat="43.26101255455811" lon="10.628825159803558"><ele>162.42857142857144</ele><time>2026-04-11T05:56:16.999Z</time></trkpt><trkpt lat="43.260977391017896" lon="10.628929039403207"><ele>162.57142857142856</ele><time>2026-04-11T05:56:17.999Z</time></trkpt><trkpt lat="43.26096525927216" lon="10.62902323909606"><ele>162.7142857142857</ele><time>2026-04-11T05:56:18.999Z</time></trkpt><trkpt lat="43.260994034249194" lon="10.629127593426713"><ele>162.85714285714286</ele><time>2026-04-11T05:56:19.999Z</time></trkpt><trkpt lat="43.261025088958576" lon="10.629214195109533"><ele>163.0</ele><time>2026-04-11T05:56:20.999Z</time></trkpt><trkpt lat="43.26106952247276" lon="10.629296480783427"><ele>163.0</ele><time>2026-04-11T05:56:21.999Z</time></trkpt><trkpt lat="43.261119159594195" lon="10.62936232722613"><ele>163.0</ele><time>2026-04-11T05:56:22.999Z</time></trkpt><trkpt lat="43.26117623194265" lon="10.629421336336797"><ele>163.0</ele><time>2026-04-11T05:56:23.999Z</time></trkpt><trkpt lat="43.261228587147166" lon="10.629487654241041"><ele>163.0</ele><time>2026-04-11T05:56:24.999Z</time></trkpt><trkpt lat="43.26128356752853" lon="10.62955716872719"><ele>163.0</ele><time>2026-04-11T05:56:25.999Z</time></trkpt><trkpt lat="43.261337516344774" lon="10.62961973507441"><ele>163.0</ele><time>2026-04-11T05:56:26.999Z</time></trkpt><trkpt lat="43.26139108226782" lon="10.629678161396198"><ele>163.0</ele><time>2026-04-11T05:56:27.999Z</time></trkpt><trkpt lat="43.26145954055378" lon="10.629716824554428"><ele>162.2857142857143</ele><time>2026-04-11T05:56:28.999Z</time></trkpt><trkpt lat="43.2615321017248" lon="10.629728219528085"><ele>161.57142857142856</ele><time>2026-04-11T05:56:29.999Z</time></trkpt><trkpt lat="43.2616035979074" lon="10.629732156672823"><ele>160.85714285714286</ele><time>2026-04-11T05:56:30.999Z</time></trkpt><trkpt lat="43.26167597729382" lon="10.629740576831377"><ele>160.14285714285717</ele><time>2026-04-11T05:56:31.999Z</time></trkpt><trkpt lat="43.26174762307245" lon="10.629755139434524"><ele>159.42857142857144</ele><time>2026-04-11T05:56:32.999Z</time></trkpt><trkpt lat="43.26180785470937" lon="10.629793152640714"><ele>158.71428571428572</ele><time>2026-04-11T05:56:33.999Z</time></trkpt><trkpt lat="43.26186398213902" lon="10.629861483722685"><ele>158.0</ele><time>2026-04-11T05:56:34.998Z</time></trkpt><trkpt lat="43.261905232501206" lon="10.62994028890586"><ele>158.00000000000003</ele><time>2026-04-11T05:56:35.998Z</time></trkpt><trkpt lat="43.26195249463527" lon="10.630010636701794"><ele>158.0</ele><time>2026-04-11T05:56:36.998Z</time></trkpt><trkpt lat="43.261987259738135" lon="10.630097380687932"><ele>158.0</ele><time>2026-04-11T05:56:37.998Z</time></trkpt><trkpt lat="43.262031484454376" lon="10.630171401063127"><ele>158.0</ele><time>2026-04-11T05:56:38.998Z</time></trkpt><trkpt lat="43.26207695887853" lon="10.630244996457943"><ele>158.0</ele><time>2026-04-11T05:56:39.998Z</time></trkpt><trkpt lat="43.26212169061956" lon="10.630319409020121"><ele>158.00000000000003</ele><time>2026-04-11T05:56:40.998Z</time></trkpt><trkpt lat="43.262177538985924" lon="10.630391876758363"><ele>158.0</ele><time>2026-04-11T05:56:42Z</time></trkpt><trkpt lat="43.26222273458225" lon="10.63046758288552"><ele>157.85714285714286</ele><time>2026-04-11T05:56:43Z</time></trkpt><trkpt lat="43.26225556567312" lon="10.630556963003597"><ele>157.71428571428572</ele><time>2026-04-11T05:56:44Z</time></trkpt><trkpt lat="43.26228789812971" lon="10.630645016181724"><ele>157.57142857142856</ele><time>2026-04-11T05:56:45Z</time></trkpt><trkpt lat="43.26232313420322" lon="10.630738428309142"><ele>157.42857142857144</ele><time>2026-04-11T05:56:46Z</time></trkpt><trkpt lat="43.26236075586448" lon="10.630817325086264"><ele>157.28571428571428</ele><time>2026-04-11T05:56:47Z</time></trkpt><trkpt lat="43.262410546478264" lon="10.630877749730265"><ele>157.14285714285714</ele><time>2026-04-11T05:56:48Z</time></trkpt><trkpt lat="43.262482463241845" lon="10.630888448582297"><ele>157.0</ele><time>2026-04-11T05:56:49Z</time></trkpt><trkpt lat="43.26254975697583" lon="10.63086218149428"><ele>156.99999999999997</ele><time>2026-04-11T05:56:50Z</time></trkpt><trkpt lat="43.262605048343794" lon="10.630811358074128"><ele>157.0</ele><time>2026-04-11T05:56:51Z</time></trkpt><trkpt lat="43.26266338165665" lon="10.630759785599725"><ele>157.0</ele><time>2026-04-11T05:56:52Z</time></trkpt><trkpt lat="43.26272304231401" lon="10.630711647616732"><ele>157.0</ele><time>2026-04-11T05:56:53Z</time></trkpt><trkpt lat="43.262794398309836" lon="10.630675477608287"><ele>157.0</ele><time>2026-04-11T05:56:54Z</time></trkpt><trkpt lat="43.262858522686116" lon="10.630663198306745"><ele>156.99999999999997</ele><time>2026-04-11T05:56:55Z</time></trkpt><trkpt lat="43.262927416963365" lon="10.630669004562364"><ele>157.0</ele><time>2026-04-11T05:56:56Z</time></trkpt><trkpt lat="43.26297306421275" lon="10.630768043154749"><ele>157.0</ele><time>2026-04-11T05:56:57Z</time></trkpt><trkpt lat="43.26303322601734" lon="10.630832792825947"><ele>157.0</ele><time>2026-04-11T05:56:58Z</time></trkpt><trkpt lat="43.26314405344877" lon="10.630947478409349"><ele>157.0</ele><time>2026-04-11T05:57:00Z</time></trkpt><trkpt lat="43.263204080102916" lon="10.63100565757318"><ele>157.0</ele><time>2026-04-11T05:57:01Z</time></trkpt><trkpt lat="43.26327223305991" lon="10.631046475807906"><ele>157.0</ele><time>2026-04-11T05:57:02Z</time></trkpt><trkpt lat="43.26333344796889" lon="10.63110475036542"><ele>157.0</ele><time>2026-04-11T05:57:03Z</time></trkpt><trkpt lat="43.26341218869894" lon="10.631121574214806"><ele>156.33333333333334</ele><time>2026-04-11T05:57:04Z</time></trkpt><trkpt lat="43.26349133966795" lon="10.631056568888237"><ele>155.66666666666669</ele><time>2026-04-11T05:57:05Z</time></trkpt><trkpt lat="43.26354406935839" lon="10.630987973044396"><ele>155.0</ele><time>2026-04-11T05:57:06Z</time></trkpt><trkpt lat="43.263585770968625" lon="10.63090909238813"><ele>154.33333333333334</ele><time>2026-04-11T05:57:07Z</time></trkpt><trkpt lat="43.26362555359357" lon="10.630825562638247"><ele>153.66666666666666</ele><time>2026-04-11T05:57:08Z</time></trkpt><trkpt lat="43.26368169979099" lon="10.63075681580538"><ele>153.0</ele><time>2026-04-11T05:57:09Z</time></trkpt><trkpt lat="43.263719451888626" lon="10.630672015469951"><ele>153.0</ele><time>2026-04-11T05:57:10Z</time></trkpt><trkpt lat="43.26375116401025" lon="10.630576932382478"><ele>153.0</ele><time>2026-04-11T05:57:11Z</time></trkpt><trkpt lat="43.26377022572696" lon="10.630475572249397"><ele>153.0</ele><time>2026-04-11T05:57:12Z</time></trkpt><trkpt lat="43.26378955040888" lon="10.630380113009448"><ele>153.0</ele><time>2026-04-11T05:57:13Z</time></trkpt><trkpt lat="43.26381210748422" lon="10.630287836437466"><ele>153.0</ele><time>2026-04-11T05:57:14Z</time></trkpt><trkpt lat="43.26383656326757" lon="10.630195661040029"><ele>153.0</ele><time>2026-04-11T05:57:15Z</time></trkpt><trkpt lat="43.26386187146028" lon="10.630106092162434"><ele>153.0</ele><time>2026-04-11T05:57:16Z</time></trkpt><trkpt lat="43.26389213426757" lon="10.63001966881619"><ele>152.85714285714286</ele><time>2026-04-11T05:57:17Z</time></trkpt><trkpt lat="43.26392702749382" lon="10.629939004114188"><ele>152.71428571428572</ele><time>2026-04-11T05:57:18Z</time></trkpt><trkpt lat="43.26396894038242" lon="10.629856765111622"><ele>152.57142857142856</ele><time>2026-04-11T05:57:19Z</time></trkpt><trkpt lat="43.2640124842665" lon="10.629777205243988"><ele>152.42857142857144</ele><time>2026-04-11T05:57:20Z</time></trkpt><trkpt lat="43.264057892678295" lon="10.629693580885037"><ele>152.2857142857143</ele><time>2026-04-11T05:57:21Z</time></trkpt><trkpt lat="43.26410003210398" lon="10.629607775901562"><ele>152.14285714285714</ele><time>2026-04-11T05:57:22Z</time></trkpt><trkpt lat="43.26413440604055" lon="10.629517710654651"><ele>152.0</ele><time>2026-04-11T05:57:23Z</time></trkpt><trkpt lat="43.26415619870784" lon="10.629413728278468"><ele>152.0</ele><time>2026-04-11T05:57:24Z</time></trkpt><trkpt lat="43.26414501273652" lon="10.629301933056169"><ele>152.0</ele><time>2026-04-11T05:57:25Z</time></trkpt><trkpt lat="43.264105750254146" lon="10.629193531719038"><ele>152.0</ele><time>2026-04-11T05:57:26Z</time></trkpt><trkpt lat="43.26407375378166" lon="10.629110929698639"><ele>152.0</ele><time>2026-04-11T05:57:27Z</time></trkpt><trkpt lat="43.26405032233947" lon="10.62902932175087"><ele>152.0</ele><time>2026-04-11T05:57:28Z</time></trkpt><trkpt lat="43.26408734035" lon="10.628863086892576"><ele>152.0</ele><time>2026-04-11T05:57:30Z</time></trkpt><trkpt lat="43.26413090381875" lon="10.628795016820083"><ele>152.0</ele><time>2026-04-11T05:57:31Z</time></trkpt><trkpt lat="43.2641689584535" lon="10.628714480587895"><ele>152.0</ele><time>2026-04-11T05:57:32Z</time></trkpt><trkpt lat="43.264209571922606" lon="10.628631797781116"><ele>152.0</ele><time>2026-04-11T05:57:33Z</time></trkpt><trkpt lat="43.26425249000187" lon="10.628549451963261"><ele>152.0</ele><time>2026-04-11T05:57:34Z</time></trkpt><trkpt lat="43.26428663602236" lon="10.628449895260921"><ele>152.0</ele><time>2026-04-11T05:57:34.999Z</time></trkpt><trkpt lat="43.26433675727354" lon="10.628378898971228"><ele>152.0</ele><time>2026-04-11T05:57:35.999Z</time></trkpt><trkpt lat="43.26439912170899" lon="10.628326544430093"><ele>152.0</ele><time>2026-04-11T05:57:36.999Z</time></trkpt><trkpt lat="43.26446322486126" lon="10.6282868534904"><ele>152.16666666666666</ele><time>2026-04-11T05:57:37.999Z</time></trkpt><trkpt lat="43.26453070879035" lon="10.628242739000227"><ele>152.33333333333331</ele><time>2026-04-11T05:57:38.999Z</time></trkpt><trkpt lat="43.264600591809824" lon="10.628200519579881"><ele>152.5</ele><time>2026-04-11T05:57:39.999Z</time></trkpt><trkpt lat="43.264669207409355" lon="10.628158797934553"><ele>152.66666666666666</ele><time>2026-04-11T05:57:40.999Z</time></trkpt><trkpt lat="43.26473688113804" lon="10.628115262043204"><ele>152.83333333333334</ele><time>2026-04-11T05:57:41.999Z</time></trkpt><trkpt lat="43.26480571737229" lon="10.628065303905512"><ele>153.0</ele><time>2026-04-11T05:57:42.999Z</time></trkpt><trkpt lat="43.26487126473324" lon="10.628015023755639"><ele>153.0</ele><time>2026-04-11T05:57:43.999Z</time></trkpt><trkpt lat="43.264938366039395" lon="10.627962290802913"><ele>153.0</ele><time>2026-04-11T05:57:44.999Z</time></trkpt><trkpt lat="43.265001436959636" lon="10.627912725212534"><ele>153.0</ele><time>2026-04-11T05:57:45.999Z</time></trkpt><trkpt lat="43.26506578162866" lon="10.627866225829607"><ele>153.0</ele><time>2026-04-11T05:57:46.999Z</time></trkpt><trkpt lat="43.26513042130298" lon="10.627830584398168"><ele>153.0</ele><time>2026-04-11T05:57:47.999Z</time></trkpt><trkpt lat="43.265197094251626" lon="10.627814688769512"><ele>153.0</ele><time>2026-04-11T05:57:48.999Z</time></trkpt><trkpt lat="43.26527067641546" lon="10.62782839417946"><ele>153.0</ele><time>2026-04-11T05:57:50.999Z</time></trkpt><trkpt lat="43.26525850065702" lon="10.627614131909437"><ele>151.33333333333334</ele><time>2026-04-11T05:57:53.999Z</time></trkpt><trkpt lat="43.26524409418041" lon="10.627519678357977"><ele>149.66666666666666</ele><time>2026-04-11T05:57:54.999Z</time></trkpt><trkpt lat="43.26523666760152" lon="10.627422452962296"><ele>148.0</ele><time>2026-04-11T05:57:55.999Z</time></trkpt><trkpt lat="43.26522143745371" lon="10.627322705990778"><ele>146.33333333333331</ele><time>2026-04-11T05:57:56.999Z</time></trkpt><trkpt lat="43.265193958152636" lon="10.627221238448117"><ele>144.66666666666666</ele><time>2026-04-11T05:57:57.999Z</time></trkpt><trkpt lat="43.26516699862292" lon="10.627112159870066"><ele>143.0</ele><time>2026-04-11T05:57:58.999Z</time></trkpt><trkpt lat="43.26515052255192" lon="10.627001867867113"><ele>141.66666666666666</ele><time>2026-04-11T05:57:59.999Z</time></trkpt><trkpt lat="43.2651386352753" lon="10.626905191334517"><ele>140.33333333333331</ele><time>2026-04-11T05:58:00.999Z</time></trkpt><trkpt lat="43.26508893264018" lon="10.62681489568619"><ele>139.0</ele><time>2026-04-11T05:58:02.999Z</time></trkpt><trkpt lat="43.26498833804729" lon="10.62677738652239"><ele>137.66666666666666</ele><time>2026-04-11T05:58:04.999Z</time></trkpt><trkpt lat="43.26492549881481" lon="10.626757689770562"><ele>136.33333333333334</ele><time>2026-04-11T05:58:05.999Z</time></trkpt><trkpt lat="43.26485616250425" lon="10.626764101366952"><ele>135.0</ele><time>2026-04-11T05:58:06.999Z</time></trkpt><trkpt lat="43.264779084670415" lon="10.626766531139202"><ele>134.28571428571428</ele><time>2026-04-11T05:58:07.999Z</time></trkpt><trkpt lat="43.26471196581482" lon="10.626766951903237"><ele>133.57142857142856</ele><time>2026-04-11T05:58:08.999Z</time></trkpt><trkpt lat="43.264656013061774" lon="10.626661083029889"><ele>132.85714285714286</ele><time>2026-04-11T05:58:10.999Z</time></trkpt><trkpt lat="43.26459712408283" lon="10.62660944044735"><ele>132.14285714285714</ele><time>2026-04-11T05:58:11.999Z</time></trkpt><trkpt lat="43.26454601123407" lon="10.626556659357943"><ele>131.42857142857144</ele><time>2026-04-11T05:58:12.999Z</time></trkpt><trkpt lat="43.264488528177225" lon="10.626491170755882"><ele>130.71428571428572</ele><time>2026-04-11T05:58:13.999Z</time></trkpt><trkpt lat="43.264441808436715" lon="10.626412801202559"><ele>130.0</ele><time>2026-04-11T05:58:14.999Z</time></trkpt><trkpt lat="43.264335083403154" lon="10.626351149311425"><ele>130.0</ele><time>2026-04-11T05:58:16.999Z</time></trkpt><trkpt lat="43.26422281281764" lon="10.626304092997227"><ele>130.0</ele><time>2026-04-11T05:58:18.999Z</time></trkpt><trkpt lat="43.264153037282206" lon="10.626258131820368"><ele>130.0</ele><time>2026-04-11T05:58:20.999Z</time></trkpt><trkpt lat="43.26420306930535" lon="10.626163526708094"><ele>130.0</ele><time>2026-04-11T05:58:22.999Z</time></trkpt><trkpt lat="43.26428069901022" lon="10.626062367974116"><ele>130.0</ele><time>2026-04-11T05:58:24.999Z</time></trkpt><trkpt lat="43.26431079746027" lon="10.625951738643707"><ele>127.75</ele><time>2026-04-11T05:58:28.999Z</time></trkpt><trkpt lat="43.26436233039457" lon="10.625900234187455"><ele>125.5</ele><time>2026-04-11T05:58:30.999Z</time></trkpt><trkpt lat="43.26458949403077" lon="10.625730533292582"><ele>123.25</ele><time>2026-04-11T05:58:33.999Z</time></trkpt><trkpt lat="43.26470052128616" lon="10.625677342230723"><ele>121.0</ele><time>2026-04-11T05:58:35.998Z</time></trkpt><trkpt lat="43.26476644000139" lon="10.625648907615895"><ele>121.33333333333334</ele><time>2026-04-11T05:58:36.998Z</time></trkpt><trkpt lat="43.26482252353427" lon="10.62560729183478"><ele>121.66666666666667</ele><time>2026-04-11T05:58:37.998Z</time></trkpt><trkpt lat="43.26488591010602" lon="10.62558042049083"><ele>122.0</ele><time>2026-04-11T05:58:38.998Z</time></trkpt><trkpt lat="43.26500035897461" lon="10.625605498167682"><ele>122.33333333333334</ele><time>2026-04-11T05:58:40.998Z</time></trkpt><trkpt lat="43.26511948349415" lon="10.625595337264235"><ele>122.66666666666667</ele><time>2026-04-11T05:58:42.998Z</time></trkpt><trkpt lat="43.26518387874711" lon="10.625571972953914"><ele>123.0</ele><time>2026-04-11T05:58:43.998Z</time></trkpt><trkpt lat="43.265245083447034" lon="10.625545160005677"><ele>123.0</ele><time>2026-04-11T05:58:44.998Z</time></trkpt><trkpt lat="43.2653438021402" lon="10.625484321526423"><ele>123.00000000000001</ele><time>2026-04-11T05:58:46.998Z</time></trkpt><trkpt lat="43.265432872781254" lon="10.625427034590112"><ele>123.00000000000001</ele><time>2026-04-11T05:58:49Z</time></trkpt><trkpt lat="43.26553090147714" lon="10.625406674045754"><ele>123.0</ele><time>2026-04-11T05:58:51Z</time></trkpt><trkpt lat="43.26559270183744" lon="10.625473672126047"><ele>123.0</ele><time>2026-04-11T05:58:53Z</time></trkpt><trkpt lat="43.26564527914242" lon="10.625589377081084"><ele>122.4</ele><time>2026-04-11T05:58:55Z</time></trkpt><trkpt lat="43.265642875103914" lon="10.625699889694927"><ele>121.80000000000001</ele><time>2026-04-11T05:58:57Z</time></trkpt><trkpt lat="43.265712989297064" lon="10.625715000012125"><ele>121.2</ele><time>2026-04-11T05:59:01Z</time></trkpt><trkpt lat="43.265773548990694" lon="10.625674721205348"><ele>120.6</ele><time>2026-04-11T05:59:02Z</time></trkpt><trkpt lat="43.26585429464505" lon="10.625593933742598"><ele>120.0</ele><time>2026-04-11T05:59:05Z</time></trkpt><trkpt lat="43.2660005136281" lon="10.625501260311436"><ele>120.0</ele><time>2026-04-11T05:59:07Z</time></trkpt><trkpt lat="43.266065456470166" lon="10.625452893344054"><ele>120.0</ele><time>2026-04-11T05:59:08Z</time></trkpt><trkpt lat="43.26612662363379" lon="10.625398227097435"><ele>120.0</ele><time>2026-04-11T05:59:09Z</time></trkpt><trkpt lat="43.266180109079194" lon="10.625340780956918"><ele>120.0</ele><time>2026-04-11T05:59:10Z</time></trkpt><trkpt lat="43.26625908703013" lon="10.625243005294385"><ele>120.0</ele><time>2026-04-11T05:59:12Z</time></trkpt><trkpt lat="43.26636208144639" lon="10.625176712761958"><ele>120.0</ele><time>2026-04-11T05:59:14Z</time></trkpt><trkpt lat="43.26643631474075" lon="10.625125967770266"><ele>117.83333333333333</ele><time>2026-04-11T05:59:16Z</time></trkpt><trkpt lat="43.266485052935444" lon="10.625039147993641"><ele>115.66666666666666</ele><time>2026-04-11T05:59:18Z</time></trkpt><trkpt lat="43.266554734476706" lon="10.625018798617893"><ele>113.5</ele><time>2026-04-11T05:59:20Z</time></trkpt><trkpt lat="43.266633116610045" lon="10.624998523939258"><ele>111.33333333333333</ele><time>2026-04-11T05:59:23Z</time></trkpt><trkpt lat="43.26670211406211" lon="10.624970020639612"><ele>109.16666666666666</ele><time>2026-04-11T05:59:25Z</time></trkpt><trkpt lat="43.266783929762795" lon="10.624930098458394"><ele>107.0</ele><time>2026-04-11T05:59:28Z</time></trkpt><trkpt lat="43.266838805195455" lon="10.624853925123054"><ele>106.99999999999999</ele><time>2026-04-11T05:59:31Z</time></trkpt><trkpt lat="43.26689461010702" lon="10.624920508655059"><ele>107.0</ele><time>2026-04-11T05:59:33Z</time></trkpt><trkpt lat="43.26697171346396" lon="10.6248952239497"><ele>107.0</ele><time>2026-04-11T05:59:35Z</time></trkpt><trkpt lat="43.267086759031926" lon="10.624881155717016"><ele>107.0</ele><time>2026-04-11T05:59:37Z</time></trkpt><trkpt lat="43.26717519537963" lon="10.624881724536827"><ele>106.99999999999999</ele><time>2026-04-11T05:59:38.999Z</time></trkpt><trkpt lat="43.26725967309134" lon="10.624861847658154"><ele>107.0</ele><time>2026-04-11T05:59:40.999Z</time></trkpt><trkpt lat="43.267345012890594" lon="10.624862623594622"><ele>106.8</ele><time>2026-04-11T05:59:42.999Z</time></trkpt><trkpt lat="43.2674562579823" lon="10.624832966151331"><ele>106.6</ele><time>2026-04-11T05:59:45.999Z</time></trkpt><trkpt lat="43.26752278627147" lon="10.624821483421496"><ele>106.39999999999999</ele><time>2026-04-11T05:59:46.999Z</time></trkpt><trkpt lat="43.267590559216686" lon="10.624794442288954"><ele>106.19999999999999</ele><time>2026-04-11T05:59:48.999Z</time></trkpt><trkpt lat="43.267700657710094" lon="10.624785854517757"><ele>106.0</ele><time>2026-04-11T05:59:50.999Z</time></trkpt><trkpt lat="43.26781148124899" lon="10.624784396627918"><ele>106.0</ele><time>2026-04-11T05:59:52.999Z</time></trkpt><trkpt lat="43.267881515010714" lon="10.62474275630329"><ele>106.0</ele><time>2026-04-11T05:59:55.999Z</time></trkpt><trkpt lat="43.2682523784283" lon="10.624715884281944"><ele>106.0</ele><time>2026-04-11T05:59:57.999Z</time></trkpt><trkpt lat="43.26832466938219" lon="10.624701577820717"><ele>105.50000000000001</ele><time>2026-04-11T05:59:58.999Z</time></trkpt><trkpt lat="43.268393243276066" lon="10.624682813711486"><ele>105.0</ele><time>2026-04-11T05:59:59.999Z</time></trkpt><trkpt lat="43.26846497375811" lon="10.62466508475377"><ele>104.5</ele><time>2026-04-11T06:00:00.999Z</time></trkpt><trkpt lat="43.268536758537365" lon="10.624660495727836"><ele>104.0</ele><time>2026-04-11T06:00:01.999Z</time></trkpt><trkpt lat="43.26864826411965" lon="10.624660985496215"><ele>103.50000000000001</ele><time>2026-04-11T06:00:03.999Z</time></trkpt><trkpt lat="43.26872689869356" lon="10.624673873636665"><ele>103.0</ele><time>2026-04-11T06:00:05.999Z</time></trkpt><trkpt lat="43.26881747100754" lon="10.624728944385266"><ele>103.00000000000001</ele><time>2026-04-11T06:00:07.999Z</time></trkpt><trkpt lat="43.26886152914146" lon="10.62483318184145"><ele>103.0</ele><time>2026-04-11T06:00:09.999Z</time></trkpt><trkpt lat="43.26891276606295" lon="10.624949792153046"><ele>103.0</ele><time>2026-04-11T06:00:11.999Z</time></trkpt><trkpt lat="43.26894530387101" lon="10.625071276179892"><ele>103.0</ele><time>2026-04-11T06:00:13.999Z</time></trkpt><trkpt lat="43.26895693260119" lon="10.625159003949715"><ele>103.00000000000001</ele><time>2026-04-11T06:00:14.999Z</time></trkpt><trkpt lat="43.2689520693088" lon="10.625260169926326"><ele>103.0</ele><time>2026-04-11T06:00:15.999Z</time></trkpt><trkpt lat="43.26892414992098" lon="10.62534279890259"><ele>104.2</ele><time>2026-04-11T06:00:17.999Z</time></trkpt><trkpt lat="43.26892463783513" lon="10.625468933242134"><ele>105.4</ele><time>2026-04-11T06:00:19.999Z</time></trkpt><trkpt lat="43.26886167424549" lon="10.625599974202967"><ele>106.60000000000001</ele><time>2026-04-11T06:00:21.999Z</time></trkpt><trkpt lat="43.268828178234564" lon="10.625705967491003"><ele>107.80000000000001</ele><time>2026-04-11T06:00:23.999Z</time></trkpt><trkpt lat="43.2687653226748" lon="10.625796094566606"><ele>109.0</ele><time>2026-04-11T06:00:25.999Z</time></trkpt><trkpt lat="43.26872136489948" lon="10.625895178145804"><ele>109.00000000000001</ele><time>2026-04-11T06:00:27.999Z</time></trkpt><trkpt lat="43.268674535440574" lon="10.625994159443708"><ele>109.0</ele><time>2026-04-11T06:00:29.999Z</time></trkpt><trkpt lat="43.268654338903794" lon="10.626114764947296"><ele>109.0</ele><time>2026-04-11T06:00:31.999Z</time></trkpt><trkpt lat="43.26864286466329" lon="10.626224488583226"><ele>109.0</ele><time>2026-04-11T06:00:33.999Z</time></trkpt><trkpt lat="43.268715063164464" lon="10.626318084945746"><ele>109.00000000000001</ele><time>2026-04-11T06:00:35.999Z</time></trkpt><trkpt lat="43.26879560722168" lon="10.626340924910297"><ele>109.0</ele><time>2026-04-11T06:00:37.998Z</time></trkpt><trkpt lat="43.268860869426" lon="10.626328110542078"><ele>109.14285714285714</ele><time>2026-04-11T06:00:39.998Z</time></trkpt><trkpt lat="43.2689235938044" lon="10.626301659683696"><ele>109.28571428571429</ele><time>2026-04-11T06:00:41.998Z</time></trkpt><trkpt lat="43.26898826706206" lon="10.62628327855424"><ele>109.42857142857142</ele><time>2026-04-11T06:00:43.998Z</time></trkpt><trkpt lat="43.269051681734496" lon="10.626302196686112"><ele>109.57142857142857</ele><time>2026-04-11T06:00:45.998Z</time></trkpt><trkpt lat="43.26913242874032" lon="10.626347445056961"><ele>109.71428571428571</ele><time>2026-04-11T06:00:48.998Z</time></trkpt><trkpt lat="43.26919792373247" lon="10.62642421199125"><ele>109.85714285714285</ele><time>2026-04-11T06:00:51.998Z</time></trkpt><trkpt lat="43.26923583190881" lon="10.626494464154232"><ele>110.0</ele><time>2026-04-11T06:00:54Z</time></trkpt><trkpt lat="43.269280375720605" lon="10.626572517928341"><ele>110.0</ele><time>2026-04-11T06:00:57Z</time></trkpt><trkpt lat="43.26931658633932" lon="10.62666774196268"><ele>110.0</ele><time>2026-04-11T06:01:00Z</time></trkpt><trkpt lat="43.269354959590196" lon="10.626768511720044"><ele>110.0</ele><time>2026-04-11T06:01:03Z</time></trkpt><trkpt lat="43.269390606057314" lon="10.626880074708314"><ele>110.0</ele><time>2026-04-11T06:01:06Z</time></trkpt><trkpt lat="43.26947613596727" lon="10.627056606129836"><ele>110.0</ele><time>2026-04-11T06:01:09Z</time></trkpt><trkpt lat="43.26950242297504" lon="10.627174707996032"><ele>112.0</ele><time>2026-04-11T06:01:12Z</time></trkpt><trkpt lat="43.26950025653878" lon="10.62730086500689"><ele>114.0</ele><time>2026-04-11T06:01:15Z</time></trkpt><trkpt lat="43.269503343098734" lon="10.627398628200433"><ele>116.0</ele><time>2026-04-11T06:01:17Z</time></trkpt><trkpt lat="43.26950797758622" lon="10.62749175482875"><ele>118.0</ele><time>2026-04-11T06:01:19Z</time></trkpt><trkpt lat="43.26953252010549" lon="10.627578339657084"><ele>120.00000000000001</ele><time>2026-04-11T06:01:21Z</time></trkpt><trkpt lat="43.26954517985872" lon="10.627671451688625"><ele>122.0</ele><time>2026-04-11T06:01:23Z</time></trkpt><trkpt lat="43.26957526900323" lon="10.627747548245123"><ele>124.0</ele><time>2026-04-11T06:01:25Z</time></trkpt><trkpt lat="43.269601495196724" lon="10.627835817564197"><ele>122.66666666666667</ele><time>2026-04-11T06:01:27Z</time></trkpt><trkpt lat="43.26962415942017" lon="10.627920060797038"><ele>121.33333333333334</ele><time>2026-04-11T06:01:29Z</time></trkpt><trkpt lat="43.26965882929217" lon="10.628009400936245"><ele>120.0</ele><time>2026-04-11T06:01:32Z</time></trkpt><trkpt lat="43.26970686485851" lon="10.628074422578747"><ele>118.66666666666666</ele><time>2026-04-11T06:01:34Z</time></trkpt><trkpt lat="43.269758352223946" lon="10.628148860834695"><ele>117.33333333333333</ele><time>2026-04-11T06:01:35.999Z</time></trkpt><trkpt lat="43.26987493946892" lon="10.62817966686674"><ele>116.0</ele><time>2026-04-11T06:01:38.999Z</time></trkpt><trkpt lat="43.26991650954538" lon="10.62805448117151"><ele>115.99999999999999</ele><time>2026-04-11T06:01:42.999Z</time></trkpt><trkpt lat="43.26999274534049" lon="10.628042428805745"><ele>116.0</ele><time>2026-04-11T06:01:45.999Z</time></trkpt><trkpt lat="43.270071953177464" lon="10.62814257726848"><ele>116.0</ele><time>2026-04-11T06:01:48.999Z</time></trkpt><trkpt lat="43.27013567176063" lon="10.62816437671572"><ele>116.0</ele><time>2026-04-11T06:01:50.999Z</time></trkpt><trkpt lat="43.270220098732175" lon="10.62818316660841"><ele>115.99999999999999</ele><time>2026-04-11T06:01:52.999Z</time></trkpt><trkpt lat="43.270286731214796" lon="10.628199748669179"><ele>116.0</ele><time>2026-04-11T06:01:54.999Z</time></trkpt><trkpt lat="43.2703246136674" lon="10.6280829259937"><ele>116.0</ele><time>2026-04-11T06:02:00.999Z</time></trkpt><trkpt lat="43.27029897926283" lon="10.62791886641681"><ele>116.0</ele><time>2026-04-11T06:02:02.999Z</time></trkpt><trkpt lat="43.27027058927837" lon="10.627759028163373"><ele>116.0</ele><time>2026-04-11T06:02:04.999Z</time></trkpt><trkpt lat="43.270238120432154" lon="10.62766707100165"><ele>116.0</ele><time>2026-04-11T06:02:05.999Z</time></trkpt><trkpt lat="43.27018530716741" lon="10.627587940371512"><ele>116.0</ele><time>2026-04-11T06:02:06.999Z</time></trkpt><trkpt lat="43.27013555212568" lon="10.627489340714941"><ele>114.33333333333333</ele><time>2026-04-11T06:02:08.999Z</time></trkpt><trkpt lat="43.27011031330799" lon="10.627384871001984"><ele>112.66666666666666</ele><time>2026-04-11T06:02:11.999Z</time></trkpt><trkpt lat="43.27008720004179" lon="10.627294821089757"><ele>111.0</ele><time>2026-04-11T06:02:14.999Z</time></trkpt><trkpt lat="43.27009046116303" lon="10.627204062521132"><ele>109.33333333333334</ele><time>2026-04-11T06:02:22.999Z</time></trkpt><trkpt lat="43.27003719637001" lon="10.627111437992983"><ele>107.66666666666667</ele><time>2026-04-11T06:02:25.999Z</time></trkpt><trkpt lat="43.270020813367516" lon="10.626975599832054"><ele>106.0</ele><time>2026-04-11T06:02:27.999Z</time></trkpt><trkpt lat="43.270008996548576" lon="10.626850169300956"><ele>105.19999999999999</ele><time>2026-04-11T06:02:29.999Z</time></trkpt><trkpt lat="43.270002947051005" lon="10.626717128431228"><ele>104.39999999999999</ele><time>2026-04-11T06:02:31.999Z</time></trkpt><trkpt lat="43.2699869198475" lon="10.626581146887517"><ele>103.6</ele><time>2026-04-11T06:02:33.999Z</time></trkpt><trkpt lat="43.26997531629349" lon="10.626469549613239"><ele>102.8</ele><time>2026-04-11T06:02:35.998Z</time></trkpt><trkpt lat="43.269917974436936" lon="10.62635523023504"><ele>102.0</ele><time>2026-04-11T06:02:38.998Z</time></trkpt><trkpt lat="43.2698550609898" lon="10.626246020648288"><ele>101.66666666666667</ele><time>2026-04-11T06:02:40.998Z</time></trkpt><trkpt lat="43.269823569104744" lon="10.62608507808189"><ele>101.33333333333334</ele><time>2026-04-11T06:02:42.998Z</time></trkpt><trkpt lat="43.269807148834765" lon="10.62599648699467"><ele>101.0</ele><time>2026-04-11T06:02:43.998Z</time></trkpt><trkpt lat="43.26979134417439" lon="10.625911612228442"><ele>100.66666666666667</ele><time>2026-04-11T06:02:44.998Z</time></trkpt><trkpt lat="43.269768151980806" lon="10.625826587097972"><ele>100.33333333333334</ele><time>2026-04-11T06:02:45.998Z</time></trkpt><trkpt lat="43.2697340392654" lon="10.625752237270047"><ele>100.0</ele><time>2026-04-11T06:02:46.998Z</time></trkpt><trkpt lat="43.26966276655457" lon="10.625723411546417"><ele>100.00000000000001</ele><time>2026-04-11T06:02:48.998Z</time></trkpt><trkpt lat="43.26960866031749" lon="10.625673906412441"><ele>100.0</ele><time>2026-04-11T06:02:51.998Z</time></trkpt><trkpt lat="43.26957518061141" lon="10.625598640978694"><ele>100.0</ele><time>2026-04-11T06:02:53.998Z</time></trkpt><trkpt lat="43.269506373399125" lon="10.62558301765132"><ele>100.0</ele><time>2026-04-11T06:02:56.998Z</time></trkpt><trkpt lat="43.269465588861465" lon="10.625502944833029"><ele>100.0</ele><time>2026-04-11T06:02:59Z</time></trkpt><trkpt lat="43.26944204368163" lon="10.625397501046404"><ele>100.00000000000001</ele><time>2026-04-11T06:03:02Z</time></trkpt><trkpt lat="43.26941004056657" lon="10.6253185468845"><ele>100.0</ele><time>2026-04-11T06:03:04Z</time></trkpt><trkpt lat="43.26936756895112" lon="10.62523506529313"><ele>100.50000000000001</ele><time>2026-04-11T06:03:06Z</time></trkpt><trkpt lat="43.26928731581625" lon="10.625148878114707"><ele>101.0</ele><time>2026-04-11T06:03:08Z</time></trkpt><trkpt lat="43.26920421661867" lon="10.625114319376992"><ele>101.5</ele><time>2026-04-11T06:03:10Z</time></trkpt><trkpt lat="43.26913433835086" lon="10.625088741887266"><ele>102.0</ele><time>2026-04-11T06:03:12Z</time></trkpt><trkpt lat="43.26906762165973" lon="10.625056175034386"><ele>102.50000000000001</ele><time>2026-04-11T06:03:14Z</time></trkpt><trkpt lat="43.268989177334745" lon="10.625009346769506"><ele>103.0</ele><time>2026-04-11T06:03:18Z</time></trkpt><trkpt lat="43.268914990317185" lon="10.624946572728007"><ele>102.99999999999999</ele><time>2026-04-11T06:03:22Z</time></trkpt><trkpt lat="43.26884002752565" lon="10.624884668384638"><ele>103.0</ele><time>2026-04-11T06:03:25Z</time></trkpt><trkpt lat="43.26878170230282" lon="10.624845252824064"><ele>103.0</ele><time>2026-04-11T06:03:28Z</time></trkpt><trkpt lat="43.26872560169084" lon="10.62478829559953"><ele>103.0</ele><time>2026-04-11T06:03:31Z</time></trkpt><trkpt lat="43.26866684320189" lon="10.624752805742693"><ele>103.0</ele><time>2026-04-11T06:03:34Z</time></trkpt><trkpt lat="43.268607314959205" lon="10.624697877137216"><ele>102.99999999999999</ele><time>2026-04-11T06:03:37Z</time></trkpt><trkpt lat="43.26855058925293" lon="10.624600235954778"><ele>103.0</ele><time>2026-04-11T06:03:39.999Z</time></trkpt><trkpt lat="43.26853142346231" lon="10.624502951744812"><ele>101.50000000000001</ele><time>2026-04-11T06:03:42.999Z</time></trkpt><trkpt lat="43.26848634746266" lon="10.624372720995408"><ele>100.0</ele><time>2026-04-11T06:03:43.999Z</time></trkpt><trkpt lat="43.26847176046185" lon="10.624284567051816"><ele>98.5</ele><time>2026-04-11T06:03:44.999Z</time></trkpt><trkpt lat="43.268436013850426" lon="10.624130084565897"><ele>97.0</ele><time>2026-04-11T06:03:46.999Z</time></trkpt><trkpt lat="43.26840520313616" lon="10.624043318482128"><ele>95.5</ele><time>2026-04-11T06:03:47.999Z</time></trkpt><trkpt lat="43.26836544507096" lon="10.623975114507543"><ele>94.0</ele><time>2026-04-11T06:03:48.999Z</time></trkpt><trkpt lat="43.268322699911764" lon="10.623897426909078"><ele>94.0</ele><time>2026-04-11T06:03:49.999Z</time></trkpt><trkpt lat="43.268273318694376" lon="10.623828454385517"><ele>94.0</ele><time>2026-04-11T06:03:50.999Z</time></trkpt><trkpt lat="43.26824449489716" lon="10.623737566895612"><ele>94.0</ele><time>2026-04-11T06:03:51.999Z</time></trkpt><trkpt lat="43.268205975277425" lon="10.623655373896096"><ele>94.0</ele><time>2026-04-11T06:03:52.999Z</time></trkpt><trkpt lat="43.2681595343813" lon="10.623574039540268"><ele>94.0</ele><time>2026-04-11T06:03:53.999Z</time></trkpt><trkpt lat="43.26813078327758" lon="10.623483169886319"><ele>94.0</ele><time>2026-04-11T06:03:54.999Z</time></trkpt><trkpt lat="43.26810725066027" lon="10.623385129970657"><ele>94.0</ele><time>2026-04-11T06:03:55.999Z</time></trkpt><trkpt lat="43.26810950882212" lon="10.623289805533553"><ele>94.16666666666666</ele><time>2026-04-11T06:03:56.999Z</time></trkpt><trkpt lat="43.26811145174566" lon="10.623184333493336"><ele>94.33333333333333</ele><time>2026-04-11T06:03:57.999Z</time></trkpt><trkpt lat="43.268124951480736" lon="10.623079759447345"><ele>94.5</ele><time>2026-04-11T06:03:58.999Z</time></trkpt><trkpt lat="43.26813277658109" lon="10.622970738346545"><ele>94.66666666666667</ele><time>2026-04-11T06:03:59.999Z</time></trkpt><trkpt lat="43.26812815205052" lon="10.62286846900154"><ele>94.83333333333334</ele><time>2026-04-11T06:04:00.999Z</time></trkpt><trkpt lat="43.26810957621908" lon="10.62276279377885"><ele>95.0</ele><time>2026-04-11T06:04:01.999Z</time></trkpt><trkpt lat="43.268116031077014" lon="10.622639294632258"><ele>95.0</ele><time>2026-04-11T06:04:02.999Z</time></trkpt><trkpt lat="43.26810092763185" lon="10.622527764331842"><ele>95.0</ele><time>2026-04-11T06:04:03.999Z</time></trkpt><trkpt lat="43.268073713613454" lon="10.62242817203667"><ele>95.0</ele><time>2026-04-11T06:04:04.999Z</time></trkpt><trkpt lat="43.26804387413466" lon="10.622341649784888"><ele>95.0</ele><time>2026-04-11T06:04:05.999Z</time></trkpt><trkpt lat="43.26800758323981" lon="10.622232176641083"><ele>95.0</ele><time>2026-04-11T06:04:06.999Z</time></trkpt><trkpt lat="43.26796884311757" lon="10.622135440200053"><ele>95.0</ele><time>2026-04-11T06:04:07.999Z</time></trkpt><trkpt lat="43.2679297538812" lon="10.622027906260733"><ele>94.33333333333334</ele><time>2026-04-11T06:04:08.999Z</time></trkpt><trkpt lat="43.26789179609543" lon="10.621923029658214"><ele>93.66666666666667</ele><time>2026-04-11T06:04:09.999Z</time></trkpt><trkpt lat="43.267845002293065" lon="10.621825680211861"><ele>93.0</ele><time>2026-04-11T06:04:10.999Z</time></trkpt><trkpt lat="43.267808884798036" lon="10.621700642516409"><ele>92.33333333333333</ele><time>2026-04-11T06:04:11.999Z</time></trkpt><trkpt lat="43.26778234156808" lon="10.62159925892186"><ele>91.66666666666666</ele><time>2026-04-11T06:04:12.999Z</time></trkpt><trkpt lat="43.267744380506535" lon="10.621507087362767"><ele>91.0</ele><time>2026-04-11T06:04:13.999Z</time></trkpt><trkpt lat="43.2677118625466" lon="10.621402859603547"><ele>91.0</ele><time>2026-04-11T06:04:14.999Z</time></trkpt><trkpt lat="43.26768192233244" lon="10.621294830721858"><ele>91.0</ele><time>2026-04-11T06:04:15.999Z</time></trkpt><trkpt lat="43.267649478817" lon="10.621190611909144"><ele>91.0</ele><time>2026-04-11T06:04:16.999Z</time></trkpt><trkpt lat="43.26761410275231" lon="10.621086041742384"><ele>91.0</ele><time>2026-04-11T06:04:17.999Z</time></trkpt><trkpt lat="43.2675766535774" lon="10.620984322315307"><ele>91.0</ele><time>2026-04-11T06:04:18.999Z</time></trkpt><trkpt lat="43.26754065446757" lon="10.62088485792802"><ele>91.0</ele><time>2026-04-11T06:04:19.999Z</time></trkpt><trkpt lat="43.267529989200575" lon="10.620775811430759"><ele>89.83333333333333</ele><time>2026-04-11T06:04:20.999Z</time></trkpt><trkpt lat="43.2675083820732" lon="10.620669541297572"><ele>88.66666666666666</ele><time>2026-04-11T06:04:21.999Z</time></trkpt><trkpt lat="43.26748838357803" lon="10.62056261145628"><ele>87.5</ele><time>2026-04-11T06:04:22.999Z</time></trkpt><trkpt lat="43.267467287222495" lon="10.62044965166986"><ele>86.33333333333333</ele><time>2026-04-11T06:04:23.999Z</time></trkpt><trkpt lat="43.26744161637174" lon="10.620342770837663"><ele>85.16666666666667</ele><time>2026-04-11T06:04:24.999Z</time></trkpt><trkpt lat="43.26741239450695" lon="10.620231615633422"><ele>84.0</ele><time>2026-04-11T06:04:25.999Z</time></trkpt><trkpt lat="43.26738623896847" lon="10.620120845238146"><ele>83.33333333333333</ele><time>2026-04-11T06:04:26.999Z</time></trkpt><trkpt lat="43.267365334158036" lon="10.620016257218998"><ele>82.66666666666667</ele><time>2026-04-11T06:04:27.999Z</time></trkpt><trkpt lat="43.26734473571816" lon="10.61990628347452"><ele>82.0</ele><time>2026-04-11T06:04:28.999Z</time></trkpt><trkpt lat="43.26732399022838" lon="10.619794352583096"><ele>81.33333333333334</ele><time>2026-04-11T06:04:29.999Z</time></trkpt><trkpt lat="43.26730307834744" lon="10.619692780673219"><ele>80.66666666666667</ele><time>2026-04-11T06:04:30.999Z</time></trkpt><trkpt lat="43.26728044705901" lon="10.619594952411349"><ele>80.0</ele><time>2026-04-11T06:04:31.999Z</time></trkpt><trkpt lat="43.267257106111394" lon="10.619494069091191"><ele>79.71428571428571</ele><time>2026-04-11T06:04:32.999Z</time></trkpt><trkpt lat="43.26723526030933" lon="10.619399111530695"><ele>79.42857142857143</ele><time>2026-04-11T06:04:33.999Z</time></trkpt><trkpt lat="43.267212330400575" lon="10.61929751674771"><ele>79.14285714285714</ele><time>2026-04-11T06:04:34.999Z</time></trkpt><trkpt lat="43.26719282942769" lon="10.619208868428565"><ele>78.85714285714286</ele><time>2026-04-11T06:04:35.999Z</time></trkpt><trkpt lat="43.267172008248785" lon="10.619114628080268"><ele>78.57142857142857</ele><time>2026-04-11T06:04:36.999Z</time></trkpt><trkpt lat="43.26715073895391" lon="10.619022073978913"><ele>78.28571428571429</ele><time>2026-04-11T06:04:37.999Z</time></trkpt><trkpt lat="43.2671302595666" lon="10.618932957517554"><ele>78.0</ele><time>2026-04-11T06:04:38.999Z</time></trkpt><trkpt lat="43.267109144101575" lon="10.618841381780788"><ele>78.0</ele><time>2026-04-11T06:04:39.998Z</time></trkpt><trkpt lat="43.26707531573191" lon="10.618672028433075"><ele>78.0</ele><time>2026-04-11T06:04:41.998Z</time></trkpt><trkpt lat="43.267062698583295" lon="10.618579076675537"><ele>78.0</ele><time>2026-04-11T06:04:42.998Z</time></trkpt><trkpt lat="43.26704944339297" lon="10.618478781911806"><ele>78.0</ele><time>2026-04-11T06:04:43.998Z</time></trkpt><trkpt lat="43.26701837091242" lon="10.61839054149444"><ele>78.0</ele><time>2026-04-11T06:04:44.998Z</time></trkpt><trkpt lat="43.266994167335845" lon="10.61829853948217"><ele>78.0</ele><time>2026-04-11T06:04:45.998Z</time></trkpt><trkpt lat="43.26698048322852" lon="10.618204269793427"><ele>77.66666666666667</ele><time>2026-04-11T06:04:46.998Z</time></trkpt><trkpt lat="43.26697589310328" lon="10.618109448600764"><ele>77.33333333333333</ele><time>2026-04-11T06:04:47.998Z</time></trkpt><trkpt lat="43.26697446515435" lon="10.61801923321811"><ele>77.0</ele><time>2026-04-11T06:04:48.998Z</time></trkpt><trkpt lat="43.266989956757854" lon="10.617922073151309"><ele>76.66666666666666</ele><time>2026-04-11T06:04:49.998Z</time></trkpt><trkpt lat="43.266966394548874" lon="10.61775551713989"><ele>76.33333333333333</ele><time>2026-04-11T06:04:51.998Z</time></trkpt><trkpt lat="43.2669674681929" lon="10.617661818685436"><ele>76.0</ele><time>2026-04-11T06:04:52.998Z</time></trkpt><trkpt lat="43.26695585110153" lon="10.617569133684626"><ele>75.85714285714285</ele><time>2026-04-11T06:04:53.998Z</time></trkpt><trkpt lat="43.266932187298345" lon="10.617482242525572"><ele>75.71428571428572</ele><time>2026-04-11T06:04:54.998Z</time></trkpt><trkpt lat="43.2669106173769" lon="10.617390578950072"><ele>75.57142857142857</ele><time>2026-04-11T06:04:55.998Z</time></trkpt><trkpt lat="43.26688492598009" lon="10.617306327404249"><ele>75.42857142857142</ele><time>2026-04-11T06:04:56.998Z</time></trkpt><trkpt lat="43.26685508031597" lon="10.617220257926927"><ele>75.28571428571428</ele><time>2026-04-11T06:04:57.998Z</time></trkpt><trkpt lat="43.26682915515249" lon="10.617137916803744"><ele>75.14285714285714</ele><time>2026-04-11T06:04:58.998Z</time></trkpt><trkpt lat="43.266800091854975" lon="10.61705687521405"><ele>75.0</ele><time>2026-04-11T06:04:59.998Z</time></trkpt><trkpt lat="43.26675491615595" lon="10.6168992547583"><ele>75.0</ele><time>2026-04-11T06:05:01.998Z</time></trkpt><trkpt lat="43.2667336735285" lon="10.61673862446287"><ele>75.0</ele><time>2026-04-11T06:05:04Z</time></trkpt><trkpt lat="43.26672442740412" lon="10.616580133731903"><ele>75.0</ele><time>2026-04-11T06:05:06Z</time></trkpt><trkpt lat="43.26672453129689" lon="10.616410350850533"><ele>75.0</ele><time>2026-04-11T06:05:08Z</time></trkpt><trkpt lat="43.266711766463956" lon="10.61631401239332"><ele>75.0</ele><time>2026-04-11T06:05:09Z</time></trkpt><trkpt lat="43.26668907740508" lon="10.61621520801016"><ele>74.85714285714285</ele><time>2026-04-11T06:05:10Z</time></trkpt><trkpt lat="43.266659003988536" lon="10.61611597987539"><ele>74.71428571428571</ele><time>2026-04-11T06:05:11Z</time></trkpt><trkpt lat="43.2666201389393" lon="10.616022877579654"><ele>74.57142857142857</ele><time>2026-04-11T06:05:12Z</time></trkpt><trkpt lat="43.266567456450474" lon="10.615942532406033"><ele>74.42857142857142</ele><time>2026-04-11T06:05:13Z</time></trkpt><trkpt lat="43.2665186963458" lon="10.615867025506898"><ele>74.28571428571428</ele><time>2026-04-11T06:05:14Z</time></trkpt><trkpt lat="43.266477360516255" lon="10.615793812650042"><ele>74.14285714285714</ele><time>2026-04-11T06:05:15Z</time></trkpt><trkpt lat="43.266439642800464" lon="10.615715635627721"><ele>74.0</ele><time>2026-04-11T06:05:16Z</time></trkpt><trkpt lat="43.2663975991214" lon="10.615640921391222"><ele>73.85714285714286</ele><time>2026-04-11T06:05:17Z</time></trkpt><trkpt lat="43.266388400089554" lon="10.615540785160954"><ele>73.71428571428571</ele><time>2026-04-11T06:05:18Z</time></trkpt><trkpt lat="43.26638268327222" lon="10.615443399609271"><ele>73.57142857142857</ele><time>2026-04-11T06:05:19Z</time></trkpt><trkpt lat="43.26638235166582" lon="10.615339156596136"><ele>73.42857142857143</ele><time>2026-04-11T06:05:20Z</time></trkpt><trkpt lat="43.26641330071695" lon="10.615241980607063"><ele>73.28571428571429</ele><time>2026-04-11T06:05:21Z</time></trkpt><trkpt lat="43.26643050720377" lon="10.615140721633463"><ele>73.14285714285714</ele><time>2026-04-11T06:05:22Z</time></trkpt><trkpt lat="43.2664476372086" lon="10.615039912793401"><ele>73.0</ele><time>2026-04-11T06:05:23Z</time></trkpt><trkpt lat="43.26645112029801" lon="10.614935635504269"><ele>73.0</ele><time>2026-04-11T06:05:24Z</time></trkpt><trkpt lat="43.2664706476081" lon="10.614836161062174"><ele>73.0</ele><time>2026-04-11T06:05:25Z</time></trkpt><trkpt lat="43.266487244222844" lon="10.614733329651743"><ele>73.0</ele><time>2026-04-11T06:05:26Z</time></trkpt><trkpt lat="43.26650463516094" lon="10.614638358175064"><ele>73.0</ele><time>2026-04-11T06:05:27Z</time></trkpt><trkpt lat="43.26652026863946" lon="10.614542440902499"><ele>73.0</ele><time>2026-04-11T06:05:28Z</time></trkpt><trkpt lat="43.26654551418704" lon="10.614455890188744"><ele>73.0</ele><time>2026-04-11T06:05:29Z</time></trkpt><trkpt lat="43.26654287356398" lon="10.614359280514806"><ele>73.0</ele><time>2026-04-11T06:05:30Z</time></trkpt><trkpt lat="43.266560154599496" lon="10.614268654702952"><ele>72.85714285714286</ele><time>2026-04-11T06:05:31Z</time></trkpt><trkpt lat="43.26657908728743" lon="10.614173946391794"><ele>72.71428571428572</ele><time>2026-04-11T06:05:32Z</time></trkpt><trkpt lat="43.266597357969765" lon="10.614079321864185"><ele>72.57142857142858</ele><time>2026-04-11T06:05:33Z</time></trkpt><trkpt lat="43.26661302491725" lon="10.61397953982361"><ele>72.42857142857143</ele><time>2026-04-11T06:05:34Z</time></trkpt><trkpt lat="43.26662767041993" lon="10.613881173870064"><ele>72.28571428571429</ele><time>2026-04-11T06:05:35Z</time></trkpt><trkpt lat="43.26663879383818" lon="10.613781300252969"><ele>72.14285714285715</ele><time>2026-04-11T06:05:36Z</time></trkpt><trkpt lat="43.26665155669701" lon="10.613684151353166"><ele>72.0</ele><time>2026-04-11T06:05:37Z</time></trkpt><trkpt lat="43.266659095422185" lon="10.613582770457292"><ele>71.4</ele><time>2026-04-11T06:05:38Z</time></trkpt><trkpt lat="43.26665939474625" lon="10.613479003921832"><ele>70.80000000000001</ele><time>2026-04-11T06:05:38.999Z</time></trkpt><trkpt lat="43.266661889431404" lon="10.613378193988773"><ele>70.2</ele><time>2026-04-11T06:05:39.999Z</time></trkpt><trkpt lat="43.26666560018935" lon="10.613235475768287"><ele>69.60000000000001</ele><time>2026-04-11T06:05:41.999Z</time></trkpt><trkpt lat="43.26665750829898" lon="10.613087064611163"><ele>69.0</ele><time>2026-04-11T06:05:43.999Z</time></trkpt><trkpt lat="43.266651816243815" lon="10.612929171995267"><ele>68.5</ele><time>2026-04-11T06:05:45.999Z</time></trkpt><trkpt lat="43.266650526523165" lon="10.612753734198556"><ele>68.0</ele><time>2026-04-11T06:05:47.999Z</time></trkpt><trkpt lat="43.26665252052851" lon="10.612658004676522"><ele>67.5</ele><time>2026-04-11T06:05:48.999Z</time></trkpt><trkpt lat="43.266653480980096" lon="10.612563104475639"><ele>67.0</ele><time>2026-04-11T06:05:49.999Z</time></trkpt><trkpt lat="43.26665522028731" lon="10.612463157690259"><ele>66.5</ele><time>2026-04-11T06:05:50.999Z</time></trkpt><trkpt lat="43.26666058858225" lon="10.612363967069212"><ele>66.0</ele><time>2026-04-11T06:05:51.999Z</time></trkpt><trkpt lat="43.266670952887864" lon="10.612263039398506"><ele>66.0</ele><time>2026-04-11T06:05:52.999Z</time></trkpt><trkpt lat="43.26668512973194" lon="10.612163464871967"><ele>66.0</ele><time>2026-04-11T06:05:53.999Z</time></trkpt><trkpt lat="43.26670069636221" lon="10.612065827030053"><ele>66.0</ele><time>2026-04-11T06:05:54.999Z</time></trkpt><trkpt lat="43.26672410089616" lon="10.611973117659371"><ele>66.0</ele><time>2026-04-11T06:05:55.999Z</time></trkpt><trkpt lat="43.266738973668545" lon="10.611878864147306"><ele>66.0</ele><time>2026-04-11T06:05:57.999Z</time></trkpt><trkpt lat="43.26665779533938" lon="10.611922500148076"><ele>66.0</ele><time>2026-04-11T06:06:00.999Z</time></trkpt><trkpt lat="43.26660794587571" lon="10.611977918952608"><ele>66.0</ele><time>2026-04-11T06:06:05.999Z</time></trkpt><trkpt lat="43.2665445555099" lon="10.612059300897092"><ele>66.0</ele><time>2026-04-11T06:06:07.999Z</time></trkpt><trkpt lat="43.266649845186336" lon="10.612303876356801"><ele>66.0</ele><time>2026-04-11T06:06:08.999Z</time></trkpt><trkpt lat="43.266637607784396" lon="10.61239254493319"><ele>66.0</ele><time>2026-04-11T06:06:09.999Z</time></trkpt><trkpt lat="43.266630569439236" lon="10.612479286402012"><ele>66.0</ele><time>2026-04-11T06:06:10.999Z</time></trkpt><trkpt lat="43.26662714135184" lon="10.612639175311102"><ele>66.0</ele><time>2026-04-11T06:06:12.999Z</time></trkpt><trkpt lat="43.26663329334155" lon="10.612798614067673"><ele>66.0</ele><time>2026-04-11T06:06:14.999Z</time></trkpt><trkpt lat="43.266641894598244" lon="10.612956356145629"><ele>66.0</ele><time>2026-04-11T06:06:16.999Z</time></trkpt><trkpt lat="43.26663685845546" lon="10.613111830726156"><ele>66.0</ele><time>2026-04-11T06:06:18.999Z</time></trkpt><trkpt lat="43.26663669034313" lon="10.613259503545555"><ele>66.6</ele><time>2026-04-11T06:06:20.999Z</time></trkpt><trkpt lat="43.26663473236825" lon="10.613406354905452"><ele>67.19999999999999</ele><time>2026-04-11T06:06:22.999Z</time></trkpt><trkpt lat="43.26663289124103" lon="10.613554600061933"><ele>67.80000000000001</ele><time>2026-04-11T06:06:24.999Z</time></trkpt><trkpt lat="43.26662842601051" lon="10.613700385276935"><ele>68.4</ele><time>2026-04-11T06:06:26.999Z</time></trkpt><trkpt lat="43.26661298566551" lon="10.613846034799828"><ele>69.0</ele><time>2026-04-11T06:06:28.999Z</time></trkpt><trkpt lat="43.266591075436615" lon="10.614002338550893"><ele>69.75</ele><time>2026-04-11T06:06:30.999Z</time></trkpt><trkpt lat="43.2665635736558" lon="10.614159992296367"><ele>70.5</ele><time>2026-04-11T06:06:32.999Z</time></trkpt><trkpt lat="43.26653859681738" lon="10.61431263847891"><ele>71.25</ele><time>2026-04-11T06:06:34.999Z</time></trkpt><trkpt lat="43.26651445750827" lon="10.614470923217825"><ele>72.0</ele><time>2026-04-11T06:06:36.999Z</time></trkpt><trkpt lat="43.26649401259549" lon="10.614628225993064"><ele>72.25</ele><time>2026-04-11T06:06:38.998Z</time></trkpt><trkpt lat="43.26646535529377" lon="10.614787535803012"><ele>72.5</ele><time>2026-04-11T06:06:40.998Z</time></trkpt><trkpt lat="43.26644282311101" lon="10.614947500929736"><ele>72.75</ele><time>2026-04-11T06:06:42.998Z</time></trkpt><trkpt lat="43.26641526761251" lon="10.6151023624728"><ele>73.0</ele><time>2026-04-11T06:06:44.998Z</time></trkpt><trkpt lat="43.26637687695087" lon="10.615255114168438"><ele>73.2</ele><time>2026-04-11T06:06:46.998Z</time></trkpt><trkpt lat="43.26635994117968" lon="10.615420161015438"><ele>73.4</ele><time>2026-04-11T06:06:48.998Z</time></trkpt><trkpt lat="43.26636752242242" lon="10.615586912043616"><ele>73.60000000000001</ele><time>2026-04-11T06:06:50.998Z</time></trkpt><trkpt lat="43.2664081308893" lon="10.615746000151006"><ele>73.8</ele><time>2026-04-11T06:06:52.998Z</time></trkpt><trkpt lat="43.266454607199336" lon="10.615804757116926"><ele>74.0</ele><time>2026-04-11T06:06:53.998Z</time></trkpt><trkpt lat="43.266522859244574" lon="10.615927911448466"><ele>74.0</ele><time>2026-04-11T06:06:55.998Z</time></trkpt><trkpt lat="43.26658806237618" lon="10.61604162027397"><ele>74.0</ele><time>2026-04-11T06:06:57.998Z</time></trkpt><trkpt lat="43.26664696365093" lon="10.616161806085138"><ele>74.0</ele><time>2026-04-11T06:06:59.998Z</time></trkpt><trkpt lat="43.26668012633498" lon="10.616291300611625"><ele>74.0</ele><time>2026-04-11T06:07:01.998Z</time></trkpt><trkpt lat="43.266689871662265" lon="10.61641512275606"><ele>74.0</ele><time>2026-04-11T06:07:03.998Z</time></trkpt><trkpt lat="43.266693853815354" lon="10.61653025291799"><ele>74.2</ele><time>2026-04-11T06:07:05.998Z</time></trkpt><trkpt lat="43.26670091563426" lon="10.616630992841499"><ele>74.4</ele><time>2026-04-11T06:07:07.998Z</time></trkpt><trkpt lat="43.26671022316564" lon="10.616722555725266"><ele>74.6</ele><time>2026-04-11T06:07:10Z</time></trkpt><trkpt lat="43.26671797094862" lon="10.616842932988186"><ele>74.8</ele><time>2026-04-11T06:07:12Z</time></trkpt><trkpt lat="43.26676038828658" lon="10.616966476464754"><ele>75.0</ele><time>2026-04-11T06:07:14Z</time></trkpt><trkpt lat="43.26682163760664" lon="10.617159016049525"><ele>75.0</ele><time>2026-04-11T06:07:17Z</time></trkpt><trkpt lat="43.26686239416032" lon="10.61729250008321"><ele>75.0</ele><time>2026-04-11T06:07:19Z</time></trkpt><trkpt lat="43.26690584500301" lon="10.617430020165253"><ele>75.0</ele><time>2026-04-11T06:07:21Z</time></trkpt><trkpt lat="43.26694101424956" lon="10.617576544530227"><ele>75.0</ele><time>2026-04-11T06:07:23Z</time></trkpt><trkpt lat="43.266943760413845" lon="10.617731836468362"><ele>75.0</ele><time>2026-04-11T06:07:25Z</time></trkpt><trkpt lat="43.266957034247916" lon="10.617890396006741"><ele>75.25</ele><time>2026-04-11T06:07:27Z</time></trkpt><trkpt lat="43.26696061106471" lon="10.618044436915167"><ele>75.5</ele><time>2026-04-11T06:07:29Z</time></trkpt><trkpt lat="43.26695578503328" lon="10.618195541781445"><ele>75.75</ele><time>2026-04-11T06:07:31Z</time></trkpt><trkpt lat="43.26699252963577" lon="10.618350314652037"><ele>76.0</ele><time>2026-04-11T06:07:33Z</time></trkpt><trkpt lat="43.26702462828336" lon="10.618503805524693"><ele>76.5</ele><time>2026-04-11T06:07:35Z</time></trkpt><trkpt lat="43.26704252292702" lon="10.618672315269047"><ele>77.0</ele><time>2026-04-11T06:07:37Z</time></trkpt><trkpt lat="43.267086831201766" lon="10.618831916317909"><ele>77.5</ele><time>2026-04-11T06:07:39Z</time></trkpt><trkpt lat="43.267114486479855" lon="10.618985750066129"><ele>78.0</ele><time>2026-04-11T06:07:41Z</time></trkpt><trkpt lat="43.267144873388965" lon="10.619130608328884"><ele>78.0</ele><time>2026-04-11T06:07:43Z</time></trkpt><trkpt lat="43.2671748878335" lon="10.619287234172779"><ele>78.0</ele><time>2026-04-11T06:07:44.999Z</time></trkpt><trkpt lat="43.26720021222286" lon="10.619436420555983"><ele>78.0</ele><time>2026-04-11T06:07:46.999Z</time></trkpt><trkpt lat="43.267233001985076" lon="10.619568934776758"><ele>78.0</ele><time>2026-04-11T06:07:48.999Z</time></trkpt><trkpt lat="43.26725937271737" lon="10.619705535544538"><ele>78.0</ele><time>2026-04-11T06:07:50.999Z</time></trkpt><trkpt lat="43.26728989112678" lon="10.619837664240865"><ele>78.2</ele><time>2026-04-11T06:07:52.999Z</time></trkpt><trkpt lat="43.267321437936204" lon="10.619956841164718"><ele>78.4</ele><time>2026-04-11T06:07:54.999Z</time></trkpt><trkpt lat="43.267351008167715" lon="10.620077782995349"><ele>78.60000000000001</ele><time>2026-04-11T06:07:56.999Z</time></trkpt><trkpt lat="43.26737772868258" lon="10.620170301776636"><ele>78.8</ele><time>2026-04-11T06:07:59.999Z</time></trkpt><trkpt lat="43.26741505395657" lon="10.620322177327173"><ele>79.0</ele><time>2026-04-11T06:08:00.999Z</time></trkpt><trkpt lat="43.26744519772106" lon="10.62044438405815"><ele>80.0</ele><time>2026-04-11T06:08:02.999Z</time></trkpt><trkpt lat="43.267467813572395" lon="10.620563161229889"><ele>81.0</ele><time>2026-04-11T06:08:04.999Z</time></trkpt><trkpt lat="43.26749453239773" lon="10.620688365760351"><ele>82.0</ele><time>2026-04-11T06:08:06.999Z</time></trkpt><trkpt lat="43.267506750862324" lon="10.620824244526744"><ele>83.0</ele><time>2026-04-11T06:08:08.999Z</time></trkpt><trkpt lat="43.26753542406763" lon="10.62092986660704"><ele>84.0</ele><time>2026-04-11T06:08:10.999Z</time></trkpt><trkpt lat="43.2675699326661" lon="10.621042837500063"><ele>84.0</ele><time>2026-04-11T06:08:12.999Z</time></trkpt><trkpt lat="43.26760246498266" lon="10.621141875003127"><ele>84.0</ele><time>2026-04-11T06:08:14.999Z</time></trkpt><trkpt lat="43.26763887462761" lon="10.62125271616714"><ele>84.0</ele><time>2026-04-11T06:08:16.999Z</time></trkpt><trkpt lat="43.267679971611024" lon="10.621349355910988"><ele>84.0</ele><time>2026-04-11T06:08:18.999Z</time></trkpt><trkpt lat="43.26770861849546" lon="10.621433791103865"><ele>84.0</ele><time>2026-04-11T06:08:20.999Z</time></trkpt><trkpt lat="43.26773828905718" lon="10.621517731353881"><ele>84.0</ele><time>2026-04-11T06:08:22.999Z</time></trkpt><trkpt lat="43.26777698935168" lon="10.621604662169725"><ele>85.16666666666667</ele><time>2026-04-11T06:08:24.999Z</time></trkpt><trkpt lat="43.2678144870686" lon="10.621706366159989"><ele>86.33333333333333</ele><time>2026-04-11T06:08:27.999Z</time></trkpt><trkpt lat="43.26784531495335" lon="10.621803128181808"><ele>87.5</ele><time>2026-04-11T06:08:29.999Z</time></trkpt><trkpt lat="43.267884210338195" lon="10.621915915283614"><ele>88.66666666666666</ele><time>2026-04-11T06:08:32.999Z</time></trkpt><trkpt lat="43.267923030874805" lon="10.62201251965442"><ele>89.83333333333333</ele><time>2026-04-11T06:08:33.999Z</time></trkpt><trkpt lat="43.267945252526545" lon="10.622116612053915"><ele>91.0</ele><time>2026-04-11T06:08:35.999Z</time></trkpt><trkpt lat="43.26795851977556" lon="10.622207763412932"><ele>91.66666666666666</ele><time>2026-04-11T06:08:37.999Z</time></trkpt><trkpt lat="43.26800386676261" lon="10.622288579086032"><ele>92.33333333333333</ele><time>2026-04-11T06:08:39.999Z</time></trkpt><trkpt lat="43.26804095886303" lon="10.622366171614157"><ele>93.0</ele><time>2026-04-11T06:08:41.999Z</time></trkpt><trkpt lat="43.268071120449015" lon="10.622455398120778"><ele>93.66666666666667</ele><time>2026-04-11T06:08:43.999Z</time></trkpt><trkpt lat="43.26810008258861" lon="10.62256768912356"><ele>94.33333333333334</ele><time>2026-04-11T06:08:46.998Z</time></trkpt><trkpt lat="43.26811677391895" lon="10.622690323502127"><ele>95.0</ele><time>2026-04-11T06:08:49.998Z</time></trkpt><trkpt lat="43.2681299273741" lon="10.622797662456772"><ele>95.16666666666667</ele><time>2026-04-11T06:08:51.998Z</time></trkpt><trkpt lat="43.268125629213124" lon="10.62293505251854"><ele>95.33333333333334</ele><time>2026-04-11T06:08:54.998Z</time></trkpt><trkpt lat="43.268108090139755" lon="10.623061424210723"><ele>95.5</ele><time>2026-04-11T06:08:56.998Z</time></trkpt><trkpt lat="43.268106297457365" lon="10.623161607801352"><ele>95.66666666666667</ele><time>2026-04-11T06:08:58.998Z</time></trkpt><trkpt lat="43.26809712996072" lon="10.623251804445744"><ele>95.83333333333333</ele><time>2026-04-11T06:09:00.998Z</time></trkpt><trkpt lat="43.26809965922667" lon="10.623343480467327"><ele>96.0</ele><time>2026-04-11T06:09:02.998Z</time></trkpt><trkpt lat="43.26811919064229" lon="10.623452757724088"><ele>95.71428571428571</ele><time>2026-04-11T06:09:04.998Z</time></trkpt><trkpt lat="43.268149823609455" lon="10.623547137727169"><ele>95.42857142857143</ele><time>2026-04-11T06:09:06.998Z</time></trkpt><trkpt lat="43.26815811587937" lon="10.623639441924732"><ele>95.14285714285714</ele><time>2026-04-11T06:09:08.998Z</time></trkpt><trkpt lat="43.268194884934296" lon="10.623719281331244"><ele>94.85714285714286</ele><time>2026-04-11T06:09:10.998Z</time></trkpt><trkpt lat="43.26822315486151" lon="10.623805120279028"><ele>94.57142857142857</ele><time>2026-04-11T06:09:12.998Z</time></trkpt><trkpt lat="43.26826159116446" lon="10.623878667662096"><ele>94.28571428571428</ele><time>2026-04-11T06:09:15Z</time></trkpt><trkpt lat="43.26830966664846" lon="10.623940104636409"><ele>94.0</ele><time>2026-04-11T06:09:17Z</time></trkpt><trkpt lat="43.268364399712986" lon="10.624045521555884"><ele>94.0</ele><time>2026-04-11T06:09:20Z</time></trkpt><trkpt lat="43.26842512220349" lon="10.624150789118051"><ele>94.0</ele><time>2026-04-11T06:09:23Z</time></trkpt><trkpt lat="43.2684541524142" lon="10.62426144369293"><ele>94.0</ele><time>2026-04-11T06:09:26Z</time></trkpt><trkpt lat="43.26847550498597" lon="10.624367511687371"><ele>94.0</ele><time>2026-04-11T06:09:29Z</time></trkpt><trkpt lat="43.26852398324384" lon="10.6245424643231"><ele>94.0</ele><time>2026-04-11T06:09:31Z</time></trkpt><trkpt lat="43.268552346216055" lon="10.624624464581709"><ele>95.5</ele><time>2026-04-11T06:09:33Z</time></trkpt><trkpt lat="43.268611223268756" lon="10.624705784682817"><ele>97.0</ele><time>2026-04-11T06:09:36Z</time></trkpt><trkpt lat="43.268667990582905" lon="10.624786879084409"><ele>98.5</ele><time>2026-04-11T06:09:38Z</time></trkpt><trkpt lat="43.268723307475035" lon="10.624858739817903"><ele>100.0</ele><time>2026-04-11T06:09:40Z</time></trkpt><trkpt lat="43.26877615604037" lon="10.624933872961003"><ele>101.50000000000001</ele><time>2026-04-11T06:09:42Z</time></trkpt><trkpt lat="43.26882712296352" lon="10.62501555701565"><ele>103.0</ele><time>2026-04-11T06:09:44Z</time></trkpt><trkpt lat="43.26886754829268" lon="10.625104789398721"><ele>103.0</ele><time>2026-04-11T06:09:45.999Z</time></trkpt><trkpt lat="43.26889510557488" lon="10.625202864388195"><ele>103.0</ele><time>2026-04-11T06:09:47.999Z</time></trkpt><trkpt lat="43.26889242745405" lon="10.625310873546468"><ele>103.0</ele><time>2026-04-11T06:09:50.999Z</time></trkpt><trkpt lat="43.26889790575308" lon="10.625476225465855"><ele>103.0</ele><time>2026-04-11T06:09:52.999Z</time></trkpt><trkpt lat="43.26884696163257" lon="10.625582753370471"><ele>103.0</ele><time>2026-04-11T06:09:55.999Z</time></trkpt><trkpt lat="43.26878676950629" lon="10.625693451895852"><ele>104.00000000000001</ele><time>2026-04-11T06:09:58.999Z</time></trkpt><trkpt lat="43.26873987138057" lon="10.62577633324902"><ele>105.0</ele><time>2026-04-11T06:10:00.999Z</time></trkpt><trkpt lat="43.26869813559789" lon="10.625857607981233"><ele>106.0</ele><time>2026-04-11T06:10:02.999Z</time></trkpt><trkpt lat="43.268650440637316" lon="10.62595569702672"><ele>107.0</ele><time>2026-04-11T06:10:04.999Z</time></trkpt><trkpt lat="43.26860898843443" lon="10.626070745475149"><ele>108.00000000000001</ele><time>2026-04-11T06:10:06.999Z</time></trkpt><trkpt lat="43.26859494576229" lon="10.626199859101195"><ele>109.0</ele><time>2026-04-11T06:10:08.999Z</time></trkpt><trkpt lat="43.26863367993094" lon="10.626334203324813"><ele>109.2</ele><time>2026-04-11T06:10:10.999Z</time></trkpt><trkpt lat="43.2687379387377" lon="10.626356843661295"><ele>109.4</ele><time>2026-04-11T06:10:12.999Z</time></trkpt><trkpt lat="43.268834482459866" lon="10.62636872944178"><ele>109.6</ele><time>2026-04-11T06:10:15.999Z</time></trkpt><trkpt lat="43.26889876558068" lon="10.626357695765341"><ele>109.8</ele><time>2026-04-11T06:10:17.999Z</time></trkpt><trkpt lat="43.268984412503215" lon="10.626349185935236"><ele>110.0</ele><time>2026-04-11T06:10:20.999Z</time></trkpt><trkpt lat="43.269086503687085" lon="10.626299838920456"><ele>109.99999999999999</ele><time>2026-04-11T06:10:23.999Z</time></trkpt><trkpt lat="43.26914632790652" lon="10.626343217506259"><ele>110.0</ele><time>2026-04-11T06:10:25.999Z</time></trkpt><trkpt lat="43.26921714855844" lon="10.62642578290522"><ele>110.0</ele><time>2026-04-11T06:10:28.999Z</time></trkpt><trkpt lat="43.26927111207507" lon="10.62651717178391"><ele>110.0</ele><time>2026-04-11T06:10:31.999Z</time></trkpt><trkpt lat="43.26931897280702" lon="10.626617553381022"><ele>109.99999999999999</ele><time>2026-04-11T06:10:34.999Z</time></trkpt><trkpt lat="43.26935874540377" lon="10.626727356434813"><ele>110.0</ele><time>2026-04-11T06:10:37.999Z</time></trkpt><trkpt lat="43.26939554959693" lon="10.626835757377785"><ele>110.0</ele><time>2026-04-11T06:10:41.999Z</time></trkpt><trkpt lat="43.269430266546706" lon="10.626947322307775"><ele>110.0</ele><time>2026-04-11T06:10:44.999Z</time></trkpt><trkpt lat="43.26945981884767" lon="10.627066204626788"><ele>124.0</ele><time>2026-04-11T06:10:46.998Z</time></trkpt><trkpt lat="43.26947037714571" lon="10.627185407673885"><ele>124.0</ele><time>2026-04-11T06:10:49.998Z</time></trkpt><trkpt lat="43.26947700805348" lon="10.627298920335278"><ele>124.0</ele><time>2026-04-11T06:10:52.998Z</time></trkpt><trkpt lat="43.269490497373674" lon="10.627391299847554"><ele>124.0</ele><time>2026-04-11T06:10:55.998Z</time></trkpt><trkpt lat="43.269490497373674" lon="10.627391299847554"><ele>124.0</ele><time>2026-04-11T06:10:55.998Z</time></trkpt></trkseg></trk></gpx>